Time,TemperatureF,DewpointF,PressureIn,WindDirection,WindDirectionDegrees,WindSpeedMPH,WindSpeedGustMPH,Humidity,HourlyPrecipIn,Conditions,Clouds,dailyrainin,SoftwareType,DateUTC
2013-04-03 00:00:00,26.3,24.3,30.29,NW,305,0.0,0.0,92,0.00,,---,0.00,VWS V14.01,2013-04-03 06:00:00,
2013-04-03 00:01:00,26.3,24.3,30.29,NW,305,0.0,0.0,92,0.00,,---,0.00,VWS V14.01,2013-04-03 06:01:00,
2013-04-03 00:02:00,26.3,24.3,30.29,NW,305,0.0,0.0,92,0.00,,---,0.00,VWS V14.01,2013-04-03 06:02:00,
2013-04-03 00:03:00,26.3,24.3,30.29,NW,305,0.0,0.0,92,0.00,,---,0.00,VWS V14.01,2013-04-03 06:03:00,
2013-04-03 00:04:00,26.2,24.2,30.29,NW,305,0.0,1.0,92,0.00,,---,0.00,VWS V14.01,2013-04-03 06:04:00,
2013-04-03 00:05:00,26.3,24.3,30.29,NW,305,0.0,0.0,92,0.00,,---,0.00,VWS V14.01,2013-04-03 06:05:00,
2013-04-03 00:06:00,26.3,24.3,30.29,NW,305,0.0,0.0,92,0.00,,---,0.00,VWS V14.01,2013-04-03 06:06:00,
2013-04-03 00:07:00,26.2,24.2,30.29,NW,305,1.0,1.0,92,0.00,,---,0.00,VWS V14.01,2013-04-03 06:07:00,
2013-04-03 00:08:00,26.3,24.3,30.29,NW,305,0.0,0.0,92,0.00,,---,0.00,VWS V14.01,2013-04-03 06:08:00,
2013-04-03 00:09:00,26.2,24.2,30.29,NW,305,0.0,0.0,92,0.00,,---,0.00,VWS V14.01,2013-04-03 06:09:00,
2013-04-03 00:10:00,26.3,24.3,30.29,NW,305,0.0,0.0,92,0.00,,---,0.00,VWS V14.01,2013-04-03 06:10:00,
2013-04-03 00:11:00,26.2,24.2,30.29,NW,305,0.0,0.0,92,0.00,,---,0.00,VWS V14.01,2013-04-03 06:11:00,
2013-04-03 00:12:00,26.2,24.2,30.29,NW,305,0.0,0.0,92,0.00,,---,0.00,VWS V14.01,2013-04-03 06:12:00,
2013-04-03 00:13:00,26.2,24.2,30.29,NW,305,0.0,0.0,92,0.00,,---,0.00,VWS V14.01,2013-04-03 06:13:00,
2013-04-03 00:14:00,26.2,24.2,30.29,NW,305,0.0,0.0,92,0.00,,---,0.00,VWS V14.01,2013-04-03 06:14:00,
2013-04-03 00:15:00,26.2,24.2,30.29,NW,305,0.0,0.0,92,0.00,,---,0.00,VWS V14.01,2013-04-03 06:15:00,
2013-04-03 00:16:00,26.2,24.2,30.29,NW,305,0.0,0.0,92,0.00,,---,0.00,VWS V14.01,2013-04-03 06:16:00,
2013-04-03 00:17:00,26.2,24.2,30.29,NW,305,0.0,0.0,92,0.00,,---,0.00,VWS V14.01,2013-04-03 06:17:00,
2013-04-03 00:18:00,26.3,24.3,30.29,NW,305,0.0,0.0,92,0.00,,---,0.00,VWS V14.01,2013-04-03 06:18:00,
2013-04-03 00:19:00,26.2,24.2,30.29,NW,305,0.0,0.0,92,0.00,,---,0.00,VWS V14.01,2013-04-03 06:19:00,
2013-04-03 00:20:00,26.2,24.2,30.29,NW,305,1.0,1.0,92,0.00,,---,0.00,VWS V14.01,2013-04-03 06:20:00,
2013-04-03 00:21:00,26.2,24.2,30.29,NW,305,0.0,1.0,92,0.00,,---,0.00,VWS V14.01,2013-04-03 06:21:00,
2013-04-03 00:22:00,26.2,24.2,30.29,NW,305,0.0,0.0,92,0.00,,---,0.00,VWS V14.01,2013-04-03 06:22:00,
2013-04-03 00:23:00,26.2,24.2,30.29,NW,305,0.0,0.0,92,0.00,,---,0.00,VWS V14.01,2013-04-03 06:23:00,
2013-04-03 00:24:00,26.1,24.1,30.29,NW,305,0.0,0.0,92,0.00,,---,0.00,VWS V14.01,2013-04-03 06:24:00,
2013-04-03 00:25:00,26.1,24.1,30.29,NW,305,0.0,0.0,92,0.00,,---,0.00,VWS V14.01,2013-04-03 06:25:00,
2013-04-03 00:26:00,26.1,24.1,30.29,NW,305,0.0,0.0,92,0.00,,---,0.00,VWS V14.01,2013-04-03 06:26:00,
2013-04-03 00:27:00,26.0,24.0,30.29,NW,305,0.0,0.0,92,0.00,,---,0.00,VWS V14.01,2013-04-03 06:27:00,
2013-04-03 00:28:00,26.0,24.0,30.29,NW,305,0.0,0.0,92,0.00,,---,0.00,VWS V14.01,2013-04-03 06:28:00,
2013-04-03 00:29:00,26.0,24.0,30.29,NW,305,0.0,0.0,92,0.00,,---,0.00,VWS V14.01,2013-04-03 06:29:00,
2013-04-03 00:30:00,26.0,24.0,30.29,NW,305,0.0,1.0,92,0.00,,---,0.00,VWS V14.01,2013-04-03 06:30:00,
2013-04-03 00:31:00,25.9,23.9,30.29,NW,305,0.0,0.0,92,0.00,,---,0.00,VWS V14.01,2013-04-03 06:31:00,
2013-04-03 00:32:00,25.9,23.9,30.29,NW,305,0.0,1.0,92,0.00,,---,0.00,VWS V14.01,2013-04-03 06:32:00,
2013-04-03 00:33:00,25.9,23.9,30.29,NW,305,0.0,0.0,92,0.00,,---,0.00,VWS V14.01,2013-04-03 06:33:00,
2013-04-03 00:34:00,25.8,23.8,30.29,NW,305,2.0,2.0,92,0.00,,---,0.00,VWS V14.01,2013-04-03 06:34:00,
2013-04-03 00:35:00,25.8,23.8,30.29,NW,308,4.0,4.0,92,0.00,,---,0.00,VWS V14.01,2013-04-03 06:35:00,
2013-04-03 00:36:00,25.8,23.8,30.29,NW,308,3.0,4.0,92,0.00,,---,0.00,VWS V14.01,2013-04-03 06:36:00,
2013-04-03 00:37:00,25.8,23.8,30.29,NW,308,2.0,4.0,92,0.00,,---,0.00,VWS V14.01,2013-04-03 06:37:00,
2013-04-03 00:38:00,25.8,23.8,30.29,NW,308,1.0,4.0,92,0.00,,---,0.00,VWS V14.01,2013-04-03 06:38:00,
2013-04-03 00:39:00,25.8,23.8,30.29,North,360,4.0,5.0,92,0.00,,---,0.00,VWS V14.01,2013-04-03 06:39:00,
2013-04-03 00:40:00,25.8,23.8,30.29,North,360,1.0,5.0,92,0.00,,---,0.00,VWS V14.01,2013-04-03 06:40:00,
2013-04-03 00:41:00,25.8,23.8,30.29,North,360,1.0,2.0,92,0.00,,---,0.00,VWS V14.01,2013-04-03 06:41:00,
2013-04-03 00:42:00,25.8,23.8,30.29,North,360,2.0,4.0,92,0.00,,---,0.00,VWS V14.01,2013-04-03 06:42:00,
2013-04-03 00:43:00,25.8,23.8,30.29,North,360,3.0,3.0,92,0.00,,---,0.00,VWS V14.01,2013-04-03 06:43:00,
2013-04-03 00:44:00,25.8,23.8,30.29,North,360,2.0,3.0,92,0.00,,---,0.00,VWS V14.01,2013-04-03 06:44:00,
2013-04-03 00:45:00,25.8,23.8,30.29,North,355,1.0,5.0,92,0.00,,---,0.00,VWS V14.01,2013-04-03 06:45:00,
2013-04-03 00:46:00,25.8,23.8,30.29,North,355,1.0,5.0,92,0.00,,---,0.00,VWS V14.01,2013-04-03 06:46:00,
2013-04-03 00:47:00,25.8,23.8,30.29,North,355,2.0,4.0,92,0.00,,---,0.00,VWS V14.01,2013-04-03 06:47:00,
2013-04-03 00:48:00,25.8,23.8,30.29,North,355,4.0,4.0,92,0.00,,---,0.00,VWS V14.01,2013-04-03 06:48:00,
2013-04-03 00:49:00,25.8,23.8,30.29,North,355,4.0,5.0,92,0.00,,---,0.00,VWS V14.01,2013-04-03 06:49:00,
2013-04-03 00:50:00,25.8,23.8,30.29,North,355,4.0,5.0,92,0.00,,---,0.00,VWS V14.01,2013-04-03 06:50:00,
2013-04-03 00:51:00,25.8,23.8,30.29,North,355,1.0,5.0,92,0.00,,---,0.00,VWS V14.01,2013-04-03 06:51:00,
2013-04-03 00:52:00,25.8,23.8,30.29,North,355,1.0,4.0,92,0.00,,---,0.00,VWS V14.01,2013-04-03 06:52:00,
2013-04-03 00:53:00,25.8,23.8,30.29,North,355,1.0,4.0,92,0.00,,---,0.00,VWS V14.01,2013-04-03 06:53:00,
2013-04-03 00:54:00,25.9,23.9,30.29,North,355,1.0,2.0,92,0.00,,---,0.00,VWS V14.01,2013-04-03 06:54:00,
2013-04-03 00:55:00,25.9,23.9,30.29,North,355,1.0,2.0,92,0.00,,---,0.00,VWS V14.01,2013-04-03 06:55:00,
2013-04-03 00:56:00,25.8,23.8,30.29,North,355,0.0,2.0,92,0.00,,---,0.00,VWS V14.01,2013-04-03 06:56:00,
2013-04-03 00:57:00,25.9,23.9,30.29,North,355,2.0,2.0,92,0.00,,---,0.00,VWS V14.01,2013-04-03 06:57:00,
2013-04-03 00:58:00,25.9,23.9,30.29,North,355,1.0,1.0,92,0.00,,---,0.00,VWS V14.01,2013-04-03 06:58:00,
2013-04-03 00:59:00,25.9,23.9,30.29,North,355,0.0,1.0,92,0.00,,---,0.00,VWS V14.01,2013-04-03 06:59:00,
2013-04-03 01:00:00,25.9,23.9,30.29,North,355,0.0,0.0,92,0.00,,---,0.00,VWS V14.01,2013-04-03 07:00:00,
2013-04-03 01:01:00,25.9,23.9,30.29,North,355,0.0,0.0,92,0.00,,---,0.00,VWS V14.01,2013-04-03 07:01:00,
2013-04-03 01:02:00,25.9,23.9,30.29,North,355,0.0,0.0,92,0.00,,---,0.00,VWS V14.01,2013-04-03 07:02:00,
2013-04-03 01:03:00,25.9,23.9,30.29,North,355,0.0,0.0,92,0.00,,---,0.00,VWS V14.01,2013-04-03 07:03:00,
2013-04-03 01:04:00,25.9,23.9,30.29,North,355,0.0,2.0,92,0.00,,---,0.00,VWS V14.01,2013-04-03 07:04:00,
2013-04-03 01:05:00,25.9,23.9,30.29,North,355,0.0,0.0,92,0.00,,---,0.00,VWS V14.01,2013-04-03 07:05:00,
2013-04-03 01:06:00,25.9,23.9,30.29,North,355,0.0,0.0,92,0.00,,---,0.00,VWS V14.01,2013-04-03 07:06:00,
2013-04-03 01:07:00,25.9,23.9,30.29,North,355,0.0,0.0,92,0.00,,---,0.00,VWS V14.01,2013-04-03 07:07:00,
2013-04-03 01:08:00,25.9,23.9,30.29,North,355,0.0,0.0,92,0.00,,---,0.00,VWS V14.01,2013-04-03 07:08:00,
2013-04-03 01:09:00,25.9,23.9,30.29,North,355,0.0,0.0,92,0.00,,---,0.00,VWS V14.01,2013-04-03 07:09:00,
2013-04-03 01:10:00,25.9,23.9,30.29,North,355,0.0,0.0,92,0.00,,---,0.00,VWS V14.01,2013-04-03 07:10:00,
2013-04-03 01:11:00,25.9,23.9,30.29,North,355,0.0,0.0,92,0.00,,---,0.00,VWS V14.01,2013-04-03 07:11:00,
2013-04-03 01:12:00,25.9,23.9,30.29,North,355,0.0,0.0,92,0.00,,---,0.00,VWS V14.01,2013-04-03 07:12:00,
2013-04-03 01:13:00,25.9,23.9,30.29,North,355,0.0,0.0,92,0.00,,---,0.00,VWS V14.01,2013-04-03 07:13:00,
2013-04-03 01:14:00,25.9,23.9,30.29,North,355,2.0,2.0,92,0.00,,---,0.00,VWS V14.01,2013-04-03 07:14:00,
2013-04-03 01:15:00,25.9,23.9,30.29,North,355,0.0,2.0,92,0.00,,---,0.00,VWS V14.01,2013-04-03 07:15:00,
2013-04-03 01:16:00,25.9,23.9,30.29,North,355,1.0,1.0,92,0.00,,---,0.00,VWS V14.01,2013-04-03 07:16:00,
2013-04-03 01:17:00,25.9,23.9,30.29,North,355,1.0,1.0,92,0.00,,---,0.00,VWS V14.01,2013-04-03 07:17:00,
2013-04-03 01:18:00,25.9,23.9,30.29,North,355,1.0,1.0,92,0.00,,---,0.00,VWS V14.01,2013-04-03 07:18:00,
2013-04-03 01:19:00,25.9,23.9,30.29,North,355,1.0,1.0,92,0.00,,---,0.00,VWS V14.01,2013-04-03 07:19:00,
2013-04-03 01:20:00,25.9,23.9,30.29,North,355,2.0,3.0,92,0.00,,---,0.00,VWS V14.01,2013-04-03 07:20:00,
2013-04-03 01:21:00,25.9,23.9,30.29,North,355,0.0,4.0,92,0.00,,---,0.00,VWS V14.01,2013-04-03 07:21:00,
2013-04-03 01:22:00,26.0,24.0,30.29,North,355,0.0,2.0,92,0.00,,---,0.00,VWS V14.01,2013-04-03 07:22:00,
2013-04-03 01:23:00,26.0,24.0,30.29,North,355,0.0,2.0,92,0.00,,---,0.00,VWS V14.01,2013-04-03 07:23:00,
2013-04-03 01:24:00,26.0,24.0,30.29,North,355,0.0,0.0,92,0.00,,---,0.00,VWS V14.01,2013-04-03 07:24:00,
2013-04-03 01:25:00,26.0,24.0,30.29,North,355,0.0,0.0,92,0.00,,---,0.00,VWS V14.01,2013-04-03 07:25:00,
2013-04-03 01:26:00,26.0,24.0,30.29,North,355,1.0,2.0,92,0.00,,---,0.00,VWS V14.01,2013-04-03 07:26:00,
2013-04-03 01:27:00,26.0,24.0,30.29,North,355,1.0,2.0,92,0.00,,---,0.00,VWS V14.01,2013-04-03 07:27:00,
2013-04-03 01:28:00,26.0,24.0,30.29,North,355,1.0,2.0,92,0.00,,---,0.00,VWS V14.01,2013-04-03 07:28:00,
2013-04-03 01:29:00,26.0,24.0,30.29,North,355,1.0,2.0,92,0.00,,---,0.00,VWS V14.01,2013-04-03 07:29:00,
2013-04-03 01:31:00,26.1,24.1,30.29,North,355,0.0,4.0,92,0.00,,---,0.00,VWS V14.01,2013-04-03 07:31:00,
2013-04-03 01:32:00,26.1,24.1,30.29,North,355,0.0,2.0,92,0.00,,---,0.00,VWS V14.01,2013-04-03 07:32:00,
2013-04-03 01:33:00,26.0,24.0,30.29,North,360,3.0,3.0,92,0.00,,---,0.00,VWS V14.01,2013-04-03 07:33:00,
2013-04-03 01:34:00,26.1,24.1,30.29,North,355,0.0,2.0,92,0.00,,---,0.00,VWS V14.01,2013-04-03 07:34:00,
2013-04-03 01:35:00,26.1,24.1,30.29,North,360,2.0,4.0,92,0.00,,---,0.00,VWS V14.01,2013-04-03 07:35:00,
2013-04-03 01:36:00,26.1,24.1,30.29,North,360,2.0,4.0,92,0.00,,---,0.00,VWS V14.01,2013-04-03 07:36:00,
2013-04-03 01:37:00,26.1,24.1,30.29,North,360,0.0,4.0,92,0.00,,---,0.00,VWS V14.01,2013-04-03 07:37:00,
2013-04-03 01:38:00,26.1,24.1,30.29,North,360,0.0,0.0,92,0.00,,---,0.00,VWS V14.01,2013-04-03 07:38:00,
2013-04-03 01:39:00,26.1,24.1,30.29,North,360,0.0,0.0,92,0.00,,---,0.00,VWS V14.01,2013-04-03 07:39:00,
2013-04-03 01:40:00,26.1,24.1,30.29,North,360,2.0,4.0,92,0.00,,---,0.00,VWS V14.01,2013-04-03 07:40:00,
2013-04-03 01:41:00,26.1,24.1,30.29,North,360,0.0,5.0,92,0.00,,---,0.00,VWS V14.01,2013-04-03 07:41:00,
2013-04-03 01:42:00,26.1,24.1,30.29,North,355,3.0,3.0,92,0.00,,---,0.00,VWS V14.01,2013-04-03 07:42:00,
2013-04-03 01:43:00,26.1,24.1,30.29,North,355,0.0,5.0,92,0.00,,---,0.00,VWS V14.01,2013-04-03 07:43:00,
2013-04-03 01:44:00,26.1,24.1,30.29,North,355,3.0,5.0,92,0.00,,---,0.00,VWS V14.01,2013-04-03 07:44:00,
2013-04-03 01:45:00,26.1,24.1,30.29,North,355,0.0,1.0,92,0.00,,---,0.00,VWS V14.01,2013-04-03 07:45:00,
2013-04-03 01:47:00,26.1,24.1,30.29,North,355,0.0,0.0,92,0.00,,---,0.00,VWS V14.01,2013-04-03 07:47:00,
2013-04-03 01:49:00,26.1,24.1,30.29,North,355,0.0,0.0,92,0.00,,---,0.00,VWS V14.01,2013-04-03 07:49:00,
2013-04-03 01:50:00,26.1,24.1,30.29,North,355,0.0,2.0,92,0.00,,---,0.00,VWS V14.01,2013-04-03 07:50:00,
2013-04-03 01:51:00,26.1,24.1,30.29,North,355,2.0,2.0,92,0.00,,---,0.00,VWS V14.01,2013-04-03 07:51:00,
2013-04-03 01:52:00,26.1,24.1,30.29,North,355,1.0,2.0,92,0.00,,---,0.00,VWS V14.01,2013-04-03 07:52:00,
2013-04-03 01:53:00,26.1,24.1,30.29,North,355,2.0,2.0,92,0.00,,---,0.00,VWS V14.01,2013-04-03 07:53:00,
2013-04-03 01:54:00,26.1,24.1,30.29,North,355,0.0,1.0,92,0.00,,---,0.00,VWS V14.01,2013-04-03 07:54:00,
2013-04-03 01:55:00,26.0,24.0,30.29,North,355,0.0,4.0,92,0.00,,---,0.00,VWS V14.01,2013-04-03 07:55:00,
2013-04-03 01:56:00,26.1,24.1,30.29,North,355,1.0,2.0,92,0.00,,---,0.00,VWS V14.01,2013-04-03 07:56:00,
2013-04-03 01:57:00,26.1,24.1,30.29,North,355,0.0,1.0,92,0.00,,---,0.00,VWS V14.01,2013-04-03 07:57:00,
2013-04-03 01:58:00,26.1,24.1,30.29,North,355,1.0,1.0,92,0.00,,---,0.00,VWS V14.01,2013-04-03 07:58:00,
2013-04-03 01:59:00,26.1,24.1,30.29,North,355,0.0,0.0,92,0.00,,---,0.00,VWS V14.01,2013-04-03 07:59:00,
2013-04-03 02:00:00,26.1,24.1,30.29,North,355,0.0,1.0,92,0.00,,---,0.00,VWS V14.01,2013-04-03 08:00:00,
2013-04-03 02:01:00,26.1,24.1,30.29,North,355,0.0,1.0,92,0.00,,---,0.00,VWS V14.01,2013-04-03 08:01:00,
2013-04-03 02:02:00,26.1,24.1,30.29,North,355,0.0,1.0,92,0.00,,---,0.00,VWS V14.01,2013-04-03 08:02:00,
2013-04-03 02:03:00,26.1,24.1,30.29,North,355,0.0,0.0,92,0.00,,---,0.00,VWS V14.01,2013-04-03 08:03:00,
2013-04-03 02:04:00,26.1,24.1,30.29,North,355,0.0,0.0,92,0.00,,---,0.00,VWS V14.01,2013-04-03 08:04:00,
2013-04-03 02:05:00,26.1,24.1,30.28,North,355,0.0,0.0,92,0.00,,---,0.00,VWS V14.01,2013-04-03 08:05:00,
2013-04-03 02:06:00,26.2,24.2,30.28,North,355,0.0,0.0,92,0.00,,---,0.00,VWS V14.01,2013-04-03 08:06:00,
2013-04-03 02:07:00,26.2,24.2,30.28,North,355,0.0,0.0,92,0.00,,---,0.00,VWS V14.01,2013-04-03 08:07:00,
2013-04-03 02:08:00,26.2,24.2,30.28,North,355,0.0,0.0,92,0.00,,---,0.00,VWS V14.01,2013-04-03 08:08:00,
2013-04-03 02:09:00,26.2,24.2,30.28,North,355,0.0,0.0,92,0.00,,---,0.00,VWS V14.01,2013-04-03 08:09:00,
2013-04-03 02:10:00,26.2,24.2,30.28,North,355,0.0,0.0,92,0.00,,---,0.00,VWS V14.01,2013-04-03 08:10:00,
2013-04-03 02:11:00,26.2,24.2,30.29,North,355,0.0,0.0,92,0.00,,---,0.00,VWS V14.01,2013-04-03 08:11:00,
2013-04-03 02:12:00,26.2,24.2,30.29,North,355,0.0,0.0,92,0.00,,---,0.00,VWS V14.01,2013-04-03 08:12:00,
2013-04-03 02:13:00,26.2,24.2,30.29,North,355,0.0,0.0,92,0.00,,---,0.00,VWS V14.01,2013-04-03 08:13:00,
2013-04-03 02:14:00,26.2,24.2,30.29,North,355,0.0,0.0,92,0.00,,---,0.00,VWS V14.01,2013-04-03 08:14:00,
2013-04-03 02:15:00,26.2,24.2,30.28,North,355,0.0,0.0,92,0.00,,---,0.00,VWS V14.01,2013-04-03 08:15:00,
2013-04-03 02:16:00,26.2,24.2,30.28,North,355,0.0,0.0,92,0.00,,---,0.00,VWS V14.01,2013-04-03 08:16:00,
2013-04-03 02:17:00,26.3,24.3,30.28,North,355,0.0,0.0,92,0.00,,---,0.00,VWS V14.01,2013-04-03 08:17:00,
2013-04-03 02:18:00,26.3,24.3,30.28,North,355,0.0,0.0,92,0.00,,---,0.00,VWS V14.01,2013-04-03 08:18:00,
2013-04-03 02:19:00,26.3,24.3,30.28,North,355,0.0,0.0,92,0.00,,---,0.00,VWS V14.01,2013-04-03 08:19:00,
2013-04-03 02:20:00,26.3,24.3,30.28,North,355,0.0,0.0,92,0.00,,---,0.00,VWS V14.01,2013-04-03 08:20:00,
2013-04-03 02:21:00,26.3,24.3,30.28,North,355,0.0,0.0,92,0.00,,---,0.00,VWS V14.01,2013-04-03 08:21:00,
2013-04-03 02:22:00,26.3,24.3,30.28,North,355,2.0,2.0,92,0.00,,---,0.00,VWS V14.01,2013-04-03 08:22:00,
2013-04-03 02:23:00,26.4,24.4,30.28,North,355,1.0,2.0,92,0.00,,---,0.00,VWS V14.01,2013-04-03 08:23:00,
2013-04-03 02:24:00,26.4,24.4,30.28,North,355,0.0,2.0,92,0.00,,---,0.00,VWS V14.01,2013-04-03 08:24:00,
2013-04-03 02:26:00,26.4,24.4,30.28,North,355,0.0,0.0,92,0.00,,---,0.00,VWS V14.01,2013-04-03 08:26:00,
2013-04-03 02:27:00,26.4,24.4,30.28,North,355,0.0,0.0,92,0.00,,---,0.00,VWS V14.01,2013-04-03 08:27:00,
2013-04-03 02:28:00,26.4,24.4,30.28,North,355,0.0,0.0,92,0.00,,---,0.00,VWS V14.01,2013-04-03 08:28:00,
2013-04-03 02:29:00,26.4,24.4,30.28,North,355,0.0,0.0,92,0.00,,---,0.00,VWS V14.01,2013-04-03 08:29:00,
2013-04-03 02:30:00,26.4,24.4,30.28,North,355,0.0,0.0,92,0.00,,---,0.00,VWS V14.01,2013-04-03 08:30:00,
2013-04-03 02:31:00,26.5,24.5,30.28,North,355,0.0,0.0,92,0.00,,---,0.00,VWS V14.01,2013-04-03 08:31:00,
2013-04-03 02:32:00,26.5,24.5,30.28,North,355,0.0,0.0,92,0.00,,---,0.00,VWS V14.01,2013-04-03 08:32:00,
2013-04-03 02:33:00,26.5,24.5,30.28,North,355,0.0,0.0,92,0.00,,---,0.00,VWS V14.01,2013-04-03 08:33:00,
2013-04-03 02:34:00,26.5,24.5,30.28,North,355,0.0,0.0,92,0.00,,---,0.00,VWS V14.01,2013-04-03 08:34:00,
2013-04-03 02:35:00,26.5,24.5,30.28,North,355,0.0,0.0,92,0.00,,---,0.00,VWS V14.01,2013-04-03 08:35:00,
2013-04-03 02:36:00,26.5,24.5,30.28,North,355,0.0,0.0,92,0.00,,---,0.00,VWS V14.01,2013-04-03 08:36:00,
2013-04-03 02:37:00,26.5,24.5,30.28,North,355,0.0,0.0,92,0.00,,---,0.00,VWS V14.01,2013-04-03 08:37:00,
2013-04-03 02:38:00,26.5,24.5,30.28,North,355,0.0,0.0,92,0.00,,---,0.00,VWS V14.01,2013-04-03 08:38:00,
2013-04-03 02:39:00,26.5,24.5,30.28,North,355,0.0,0.0,92,0.00,,---,0.00,VWS V14.01,2013-04-03 08:39:00,
2013-04-03 02:40:00,26.5,24.5,30.28,North,355,0.0,0.0,92,0.00,,---,0.00,VWS V14.01,2013-04-03 08:40:00,
2013-04-03 02:41:00,26.5,24.5,30.28,North,355,0.0,0.0,92,0.00,,---,0.00,VWS V14.01,2013-04-03 08:41:00,
2013-04-03 02:42:00,26.5,24.5,30.28,North,355,0.0,0.0,92,0.00,,---,0.00,VWS V14.01,2013-04-03 08:42:00,
2013-04-03 02:43:00,26.5,24.5,30.28,North,355,0.0,0.0,92,0.00,,---,0.00,VWS V14.01,2013-04-03 08:43:00,
2013-04-03 02:44:00,26.5,24.5,30.28,North,355,0.0,0.0,92,0.00,,---,0.00,VWS V14.01,2013-04-03 08:44:00,
2013-04-03 02:45:00,26.5,24.5,30.28,North,355,0.0,0.0,92,0.00,,---,0.00,VWS V14.01,2013-04-03 08:45:00,
2013-04-03 02:46:00,26.5,24.5,30.28,North,355,0.0,0.0,92,0.00,,---,0.00,VWS V14.01,2013-04-03 08:46:00,
2013-04-03 02:47:00,26.6,24.6,30.28,North,355,0.0,0.0,92,0.00,,---,0.00,VWS V14.01,2013-04-03 08:47:00,
2013-04-03 02:48:00,26.6,24.6,30.28,North,355,0.0,0.0,92,0.00,,---,0.00,VWS V14.01,2013-04-03 08:48:00,
2013-04-03 02:49:00,26.5,24.5,30.28,North,355,0.0,0.0,92,0.00,,---,0.00,VWS V14.01,2013-04-03 08:49:00,
2013-04-03 02:50:00,26.5,24.5,30.28,North,355,0.0,0.0,92,0.00,,---,0.00,VWS V14.01,2013-04-03 08:50:00,
2013-04-03 02:51:00,26.6,24.6,30.28,North,355,0.0,0.0,92,0.00,,---,0.00,VWS V14.01,2013-04-03 08:51:00,
2013-04-03 02:52:00,26.5,24.5,30.28,North,355,0.0,0.0,92,0.00,,---,0.00,VWS V14.01,2013-04-03 08:52:00,
2013-04-03 02:53:00,26.6,24.6,30.28,North,355,0.0,0.0,92,0.00,,---,0.00,VWS V14.01,2013-04-03 08:53:00,
2013-04-03 02:54:00,26.6,24.6,30.28,North,355,0.0,0.0,92,0.00,,---,0.00,VWS V14.01,2013-04-03 08:54:00,
2013-04-03 02:55:00,26.5,24.5,30.28,North,355,0.0,0.0,92,0.00,,---,0.00,VWS V14.01,2013-04-03 08:55:00,
2013-04-03 02:56:00,26.6,24.6,30.28,North,355,0.0,0.0,92,0.00,,---,0.00,VWS V14.01,2013-04-03 08:56:00,
2013-04-03 02:57:00,26.6,24.6,30.28,North,355,0.0,0.0,92,0.00,,---,0.00,VWS V14.01,2013-04-03 08:57:00,
2013-04-03 02:58:00,26.5,24.5,30.28,North,355,0.0,0.0,92,0.00,,---,0.00,VWS V14.01,2013-04-03 08:58:00,
2013-04-03 02:59:00,26.5,24.5,30.28,North,355,0.0,0.0,92,0.00,,---,0.00,VWS V14.01,2013-04-03 08:59:00,
2013-04-03 03:00:00,26.5,24.5,30.28,North,355,0.0,0.0,92,0.00,,---,0.00,VWS V14.01,2013-04-03 09:00:00,
2013-04-03 03:01:00,26.5,24.5,30.28,North,355,0.0,0.0,92,0.00,,---,0.00,VWS V14.01,2013-04-03 09:01:00,
2013-04-03 03:02:00,26.5,24.5,30.28,North,355,0.0,0.0,92,0.00,,---,0.00,VWS V14.01,2013-04-03 09:02:00,
2013-04-03 03:03:00,26.5,24.5,30.28,North,355,0.0,0.0,92,0.00,,---,0.00,VWS V14.01,2013-04-03 09:03:00,
2013-04-03 03:04:00,26.5,24.5,30.28,North,355,0.0,0.0,92,0.00,,---,0.00,VWS V14.01,2013-04-03 09:04:00,
2013-04-03 03:05:00,26.5,24.5,30.28,North,355,0.0,0.0,92,0.00,,---,0.00,VWS V14.01,2013-04-03 09:05:00,
2013-04-03 03:06:00,26.5,24.5,30.28,North,355,0.0,0.0,92,0.00,,---,0.00,VWS V14.01,2013-04-03 09:06:00,
2013-04-03 03:07:00,26.5,24.5,30.28,North,355,0.0,0.0,92,0.00,,---,0.00,VWS V14.01,2013-04-03 09:07:00,
2013-04-03 03:08:00,26.5,24.5,30.28,North,355,0.0,0.0,92,0.00,,---,0.00,VWS V14.01,2013-04-03 09:08:00,
2013-04-03 03:09:00,26.5,24.5,30.28,North,355,0.0,0.0,92,0.00,,---,0.00,VWS V14.01,2013-04-03 09:09:00,
2013-04-03 03:10:00,26.5,24.5,30.28,North,355,0.0,0.0,92,0.00,,---,0.00,VWS V14.01,2013-04-03 09:10:00,
2013-04-03 03:11:00,26.5,24.5,30.28,North,355,0.0,0.0,92,0.00,,---,0.00,VWS V14.01,2013-04-03 09:11:00,
2013-04-03 03:12:00,26.5,24.5,30.28,North,355,0.0,0.0,92,0.00,,---,0.00,VWS V14.01,2013-04-03 09:12:00,
2013-04-03 03:13:00,26.5,24.5,30.28,North,355,0.0,0.0,92,0.00,,---,0.00,VWS V14.01,2013-04-03 09:13:00,
2013-04-03 03:14:00,26.5,24.5,30.28,North,355,0.0,0.0,92,0.00,,---,0.00,VWS V14.01,2013-04-03 09:14:00,
2013-04-03 03:15:00,26.5,24.5,30.28,North,355,0.0,0.0,92,0.00,,---,0.00,VWS V14.01,2013-04-03 09:15:00,
2013-04-03 03:16:00,26.5,24.2,30.28,North,355,0.0,0.0,91,0.00,,---,0.00,VWS V14.01,2013-04-03 09:16:00,
2013-04-03 03:17:00,26.5,24.2,30.28,North,355,0.0,0.0,91,0.00,,---,0.00,VWS V14.01,2013-04-03 09:17:00,
2013-04-03 03:18:00,26.5,24.2,30.28,North,355,0.0,0.0,91,0.00,,---,0.00,VWS V14.01,2013-04-03 09:18:00,
2013-04-03 03:19:00,26.4,24.1,30.28,North,355,0.0,0.0,91,0.00,,---,0.00,VWS V14.01,2013-04-03 09:19:00,
2013-04-03 03:20:00,26.5,24.2,30.28,North,355,0.0,0.0,91,0.00,,---,0.00,VWS V14.01,2013-04-03 09:20:00,
2013-04-03 03:21:00,26.5,24.2,30.28,North,355,0.0,0.0,91,0.00,,---,0.00,VWS V14.01,2013-04-03 09:21:00,
2013-04-03 03:22:00,26.5,24.2,30.28,North,355,0.0,0.0,91,0.00,,---,0.00,VWS V14.01,2013-04-03 09:22:00,
2013-04-03 03:23:00,26.5,24.2,30.28,North,355,1.0,3.0,91,0.00,,---,0.00,VWS V14.01,2013-04-03 09:23:00,
2013-04-03 03:24:00,26.5,24.2,30.28,North,355,1.0,2.0,91,0.00,,---,0.00,VWS V14.01,2013-04-03 09:24:00,
2013-04-03 03:25:00,26.5,24.2,30.28,North,355,0.0,2.0,91,0.00,,---,0.00,VWS V14.01,2013-04-03 09:25:00,
2013-04-03 03:26:00,26.5,24.2,30.28,North,355,0.0,0.0,91,0.00,,---,0.00,VWS V14.01,2013-04-03 09:26:00,
2013-04-03 03:27:00,26.5,24.2,30.28,North,355,0.0,0.0,91,0.00,,---,0.00,VWS V14.01,2013-04-03 09:27:00,
2013-04-03 03:28:00,26.5,24.2,30.28,North,355,0.0,0.0,91,0.00,,---,0.00,VWS V14.01,2013-04-03 09:28:00,
2013-04-03 03:29:00,26.5,24.2,30.28,North,355,0.0,0.0,91,0.00,,---,0.00,VWS V14.01,2013-04-03 09:29:00,
2013-04-03 03:30:00,26.5,24.2,30.28,North,355,0.0,0.0,91,0.00,,---,0.00,VWS V14.01,2013-04-03 09:30:00,
2013-04-03 03:31:00,26.5,24.5,30.28,North,355,0.0,0.0,92,0.00,,---,0.00,VWS V14.01,2013-04-03 09:31:00,
2013-04-03 03:32:00,26.5,24.5,30.28,North,355,0.0,0.0,92,0.00,,---,0.00,VWS V14.01,2013-04-03 09:32:00,
2013-04-03 03:33:00,26.6,24.6,30.28,North,355,0.0,0.0,92,0.00,,---,0.00,VWS V14.01,2013-04-03 09:33:00,
2013-04-03 03:34:00,26.6,24.6,30.28,North,355,0.0,0.0,92,0.00,,---,0.00,VWS V14.01,2013-04-03 09:34:00,
2013-04-03 03:35:00,26.6,24.6,30.28,North,355,0.0,0.0,92,0.00,,---,0.00,VWS V14.01,2013-04-03 09:35:00,
2013-04-03 03:36:00,26.6,24.6,30.28,North,355,1.0,1.0,92,0.00,,---,0.00,VWS V14.01,2013-04-03 09:36:00,
2013-04-03 03:37:00,26.6,24.6,30.28,North,355,0.0,1.0,92,0.00,,---,0.00,VWS V14.01,2013-04-03 09:37:00,
2013-04-03 03:38:00,26.6,24.6,30.28,North,355,0.0,0.0,92,0.00,,---,0.00,VWS V14.01,2013-04-03 09:38:00,
2013-04-03 03:39:00,26.6,24.6,30.28,North,355,0.0,0.0,92,0.00,,---,0.00,VWS V14.01,2013-04-03 09:39:00,
2013-04-03 03:40:00,26.6,24.6,30.28,North,355,0.0,0.0,92,0.00,,---,0.00,VWS V14.01,2013-04-03 09:40:00,
2013-04-03 03:41:00,26.6,24.6,30.28,North,355,0.0,0.0,92,0.00,,---,0.00,VWS V14.01,2013-04-03 09:41:00,
2013-04-03 03:42:00,26.6,24.6,30.28,North,355,0.0,0.0,92,0.00,,---,0.00,VWS V14.01,2013-04-03 09:42:00,
2013-04-03 03:43:00,26.6,24.6,30.28,North,355,0.0,0.0,92,0.00,,---,0.00,VWS V14.01,2013-04-03 09:43:00,
2013-04-03 03:44:00,26.6,24.6,30.28,North,355,0.0,0.0,92,0.00,,---,0.00,VWS V14.01,2013-04-03 09:44:00,
2013-04-03 03:45:00,26.6,24.6,30.28,North,355,0.0,0.0,92,0.00,,---,0.00,VWS V14.01,2013-04-03 09:45:00,
2013-04-03 03:46:00,26.6,24.3,30.28,North,355,0.0,0.0,91,0.00,,---,0.00,VWS V14.01,2013-04-03 09:46:00,
2013-04-03 03:47:00,26.6,24.3,30.28,North,355,0.0,0.0,91,0.00,,---,0.00,VWS V14.01,2013-04-03 09:47:00,
2013-04-03 03:48:00,26.6,24.6,30.28,North,355,0.0,0.0,92,0.00,,---,0.00,VWS V14.01,2013-04-03 09:48:00,
2013-04-03 03:49:00,26.6,24.6,30.28,North,355,0.0,0.0,92,0.00,,---,0.00,VWS V14.01,2013-04-03 09:49:00,
2013-04-03 03:50:00,26.6,24.6,30.28,North,355,0.0,0.0,92,0.00,,---,0.00,VWS V14.01,2013-04-03 09:50:00,
2013-04-03 03:51:00,26.6,24.6,30.28,North,355,0.0,0.0,92,0.00,,---,0.00,VWS V14.01,2013-04-03 09:51:00,
2013-04-03 03:52:00,26.6,24.6,30.28,North,355,0.0,0.0,92,0.00,,---,0.00,VWS V14.01,2013-04-03 09:52:00,
2013-04-03 03:53:00,26.6,24.6,30.28,North,355,0.0,0.0,92,0.00,,---,0.00,VWS V14.01,2013-04-03 09:53:00,
2013-04-03 03:54:00,26.6,24.6,30.28,North,355,0.0,0.0,92,0.00,,---,0.00,VWS V14.01,2013-04-03 09:54:00,
2013-04-03 03:55:00,26.6,24.6,30.28,North,355,0.0,0.0,92,0.00,,---,0.00,VWS V14.01,2013-04-03 09:55:00,
2013-04-03 03:56:00,26.5,24.5,30.28,North,355,0.0,0.0,92,0.00,,---,0.00,VWS V14.01,2013-04-03 09:56:00,
2013-04-03 03:57:00,26.5,24.5,30.28,North,355,0.0,0.0,92,0.00,,---,0.00,VWS V14.01,2013-04-03 09:57:00,
2013-04-03 03:58:00,26.5,24.5,30.28,North,355,0.0,0.0,92,0.00,,---,0.00,VWS V14.01,2013-04-03 09:58:00,
2013-04-03 03:59:00,26.5,24.5,30.28,North,355,0.0,0.0,92,0.00,,---,0.00,VWS V14.01,2013-04-03 09:59:00,
2013-04-03 04:00:00,26.5,24.5,30.28,North,355,0.0,0.0,92,0.00,,---,0.00,VWS V14.01,2013-04-03 10:00:00,
2013-04-03 04:01:00,26.4,24.4,30.28,North,355,0.0,0.0,92,0.00,,---,0.00,VWS V14.01,2013-04-03 10:01:00,
2013-04-03 04:02:00,26.3,24.3,30.28,North,355,0.0,0.0,92,0.00,,---,0.00,VWS V14.01,2013-04-03 10:02:00,
2013-04-03 04:03:00,26.3,24.3,30.28,North,355,0.0,0.0,92,0.00,,---,0.00,VWS V14.01,2013-04-03 10:03:00,
2013-04-03 04:04:00,26.3,24.3,30.28,North,355,0.0,0.0,92,0.00,,---,0.00,VWS V14.01,2013-04-03 10:04:00,
2013-04-03 04:05:00,26.3,24.3,30.28,North,355,0.0,0.0,92,0.00,,---,0.00,VWS V14.01,2013-04-03 10:05:00,
2013-04-03 04:06:00,26.2,24.2,30.28,North,355,0.0,0.0,92,0.00,,---,0.00,VWS V14.01,2013-04-03 10:06:00,
2013-04-03 04:07:00,26.2,24.2,30.28,North,355,0.0,0.0,92,0.00,,---,0.00,VWS V14.01,2013-04-03 10:07:00,
2013-04-03 04:08:00,26.1,24.1,30.28,North,355,0.0,0.0,92,0.00,,---,0.00,VWS V14.01,2013-04-03 10:08:00,
2013-04-03 04:09:00,26.1,23.8,30.28,North,355,0.0,0.0,91,0.00,,---,0.00,VWS V14.01,2013-04-03 10:09:00,
2013-04-03 04:10:00,26.1,23.8,30.28,North,355,0.0,0.0,91,0.00,,---,0.00,VWS V14.01,2013-04-03 10:10:00,
2013-04-03 04:11:00,26.0,23.7,30.28,North,355,0.0,0.0,91,0.00,,---,0.00,VWS V14.01,2013-04-03 10:11:00,
2013-04-03 04:12:00,25.9,23.6,30.28,North,355,2.0,3.0,91,0.00,,---,0.00,VWS V14.01,2013-04-03 10:12:00,
2013-04-03 04:13:00,25.8,23.5,30.28,NNW,331,0.0,4.0,91,0.00,,---,0.00,VWS V14.01,2013-04-03 10:13:00,
2013-04-03 04:14:00,25.7,23.4,30.28,NNW,331,2.0,2.0,91,0.00,,---,0.00,VWS V14.01,2013-04-03 10:14:00,
2013-04-03 04:15:00,25.7,23.4,30.28,NNW,331,2.0,2.0,91,0.00,,---,0.00,VWS V14.01,2013-04-03 10:15:00,
2013-04-03 04:16:00,25.6,23.3,30.28,WNW,288,2.0,6.0,91,0.00,,---,0.00,VWS V14.01,2013-04-03 10:16:00,
2013-04-03 04:17:00,25.5,23.2,30.28,WNW,288,4.0,5.0,91,0.00,,---,0.00,VWS V14.01,2013-04-03 10:17:00,
2013-04-03 04:18:00,25.4,23.1,30.28,WNW,288,5.0,5.0,91,0.00,,---,0.00,VWS V14.01,2013-04-03 10:18:00,
2013-04-03 04:19:00,25.3,23.0,30.28,WNW,288,2.0,5.0,91,0.00,,---,0.00,VWS V14.01,2013-04-03 10:19:00,
2013-04-03 04:20:00,25.3,23.0,30.28,WNW,288,2.0,5.0,91,0.00,,---,0.00,VWS V14.01,2013-04-03 10:20:00,
2013-04-03 04:21:00,25.2,23.0,30.28,WNW,288,4.0,5.0,91,0.00,,---,0.00,VWS V14.01,2013-04-03 10:21:00,
2013-04-03 04:22:00,25.2,23.0,30.28,WNW,288,4.0,5.0,91,0.00,,---,0.00,VWS V14.01,2013-04-03 10:22:00,
2013-04-03 04:23:00,25.1,23.1,30.28,WNW,288,2.0,4.0,92,0.00,,---,0.00,VWS V14.01,2013-04-03 10:23:00,
2013-04-03 04:24:00,25.0,23.0,30.28,WNW,288,1.0,4.0,92,0.00,,---,0.00,VWS V14.01,2013-04-03 10:24:00,
2013-04-03 04:25:00,25.0,23.0,30.28,WNW,288,1.0,4.0,92,0.00,,---,0.00,VWS V14.01,2013-04-03 10:25:00,
2013-04-03 04:26:00,24.9,22.9,30.28,WNW,288,1.0,2.0,92,0.00,,---,0.00,VWS V14.01,2013-04-03 10:26:00,
2013-04-03 04:27:00,24.8,22.8,30.28,WNW,288,1.0,2.0,92,0.00,,---,0.00,VWS V14.01,2013-04-03 10:27:00,
2013-04-03 04:28:00,24.8,22.8,30.28,WNW,288,1.0,1.0,92,0.00,,---,0.00,VWS V14.01,2013-04-03 10:28:00,
2013-04-03 04:29:00,24.7,22.7,30.28,WNW,288,2.0,2.0,92,0.00,,---,0.00,VWS V14.01,2013-04-03 10:29:00,
2013-04-03 04:30:00,24.7,22.7,30.28,WNW,288,2.0,2.0,92,0.00,,---,0.00,VWS V14.01,2013-04-03 10:30:00,
2013-04-03 04:31:00,24.6,22.6,30.28,WNW,288,4.0,4.0,92,0.00,,---,0.00,VWS V14.01,2013-04-03 10:31:00,
2013-04-03 04:32:00,24.6,22.6,30.28,WNW,288,2.0,4.0,92,0.00,,---,0.00,VWS V14.01,2013-04-03 10:32:00,
2013-04-03 04:33:00,24.5,22.5,30.28,WNW,288,3.0,4.0,92,0.00,,---,0.00,VWS V14.01,2013-04-03 10:33:00,
2013-04-03 04:34:00,24.5,22.5,30.28,WNW,288,2.0,4.0,92,0.00,,---,0.00,VWS V14.01,2013-04-03 10:34:00,
2013-04-03 04:35:00,24.5,22.5,30.28,WNW,288,3.0,4.0,92,0.00,,---,0.00,VWS V14.01,2013-04-03 10:35:00,
2013-04-03 04:36:00,24.4,22.4,30.28,WNW,288,2.0,4.0,92,0.00,,---,0.00,VWS V14.01,2013-04-03 10:36:00,
2013-04-03 04:37:00,24.3,22.3,30.28,WNW,288,2.0,2.0,92,0.00,,---,0.00,VWS V14.01,2013-04-03 10:37:00,
2013-04-03 04:38:00,24.3,22.3,30.28,WNW,288,2.0,2.0,92,0.00,,---,0.00,VWS V14.01,2013-04-03 10:38:00,
2013-04-03 04:39:00,24.2,22.2,30.28,WNW,288,2.0,4.0,92,0.00,,---,0.00,VWS V14.01,2013-04-03 10:39:00,
2013-04-03 04:40:00,24.2,22.2,30.28,WNW,288,2.0,4.0,92,0.00,,---,0.00,VWS V14.01,2013-04-03 10:40:00,
2013-04-03 04:41:00,24.2,22.2,30.28,WNW,288,2.0,2.0,92,0.00,,---,0.00,VWS V14.01,2013-04-03 10:41:00,
2013-04-03 04:42:00,24.1,22.1,30.28,WNW,288,1.0,2.0,92,0.00,,---,0.00,VWS V14.01,2013-04-03 10:42:00,
2013-04-03 04:43:00,24.1,22.4,30.28,WNW,288,2.0,2.0,93,0.00,,---,0.00,VWS V14.01,2013-04-03 10:43:00,
2013-04-03 04:44:00,24.1,22.1,30.28,WNW,288,2.0,4.0,92,0.00,,---,0.00,VWS V14.01,2013-04-03 10:44:00,
2013-04-03 04:45:00,24.1,22.1,30.28,WNW,288,2.0,4.0,92,0.00,,---,0.00,VWS V14.01,2013-04-03 10:45:00,
2013-04-03 04:46:00,24.2,22.5,30.28,WNW,288,2.0,4.0,93,0.00,,---,0.00,VWS V14.01,2013-04-03 10:46:00,
2013-04-03 04:47:00,24.2,22.5,30.28,WNW,288,2.0,4.0,93,0.00,,---,0.00,VWS V14.01,2013-04-03 10:47:00,
2013-04-03 04:48:00,24.2,22.5,30.28,WNW,288,1.0,3.0,93,0.00,,---,0.00,VWS V14.01,2013-04-03 10:48:00,
2013-04-03 04:49:00,24.2,22.5,30.28,WNW,288,0.0,1.0,93,0.00,,---,0.00,VWS V14.01,2013-04-03 10:49:00,
2013-04-03 04:50:00,24.2,22.5,30.28,WNW,288,2.0,2.0,93,0.00,,---,0.00,VWS V14.01,2013-04-03 10:50:00,
2013-04-03 04:51:00,24.2,22.5,30.28,WNW,288,0.0,1.0,93,0.00,,---,0.00,VWS V14.01,2013-04-03 10:51:00,
2013-04-03 04:52:00,24.2,22.5,30.28,WNW,288,4.0,5.0,93,0.00,,---,0.00,VWS V14.01,2013-04-03 10:52:00,
2013-04-03 04:53:00,24.2,22.5,30.28,WNW,288,4.0,4.0,93,0.00,,---,0.00,VWS V14.01,2013-04-03 10:53:00,
2013-04-03 04:54:00,24.2,22.5,30.28,WNW,288,4.0,4.0,93,0.00,,---,0.00,VWS V14.01,2013-04-03 10:54:00,
2013-04-03 04:55:00,24.2,22.5,30.28,WNW,288,2.0,4.0,93,0.00,,---,0.00,VWS V14.01,2013-04-03 10:55:00,
2013-04-03 04:56:00,24.2,22.5,30.28,WNW,288,4.0,4.0,93,0.00,,---,0.00,VWS V14.01,2013-04-03 10:56:00,
2013-04-03 04:57:00,24.2,22.5,30.29,WNW,288,4.0,4.0,93,0.00,,---,0.00,VWS V14.01,2013-04-03 10:57:00,
2013-04-03 04:58:00,24.2,22.5,30.29,WNW,288,4.0,4.0,93,0.00,,---,0.00,VWS V14.01,2013-04-03 10:58:00,
2013-04-03 04:59:00,24.2,22.5,30.29,WNW,288,3.0,4.0,93,0.00,,---,0.00,VWS V14.01,2013-04-03 10:59:00,
2013-04-03 05:00:00,24.2,22.5,30.29,WNW,288,3.0,4.0,93,0.00,,---,0.00,VWS V14.01,2013-04-03 11:00:00,
2013-04-03 05:01:00,24.2,22.5,30.29,WNW,288,3.0,4.0,93,0.00,,---,0.00,VWS V14.01,2013-04-03 11:01:00,
2013-04-03 05:02:00,24.2,22.5,30.29,WNW,288,2.0,4.0,93,0.00,,---,0.00,VWS V14.01,2013-04-03 11:02:00,
2013-04-03 05:03:00,24.2,22.5,30.29,WNW,288,3.0,3.0,93,0.00,,---,0.00,VWS V14.01,2013-04-03 11:03:00,
2013-04-03 05:04:00,24.2,22.5,30.29,WNW,288,2.0,4.0,93,0.00,,---,0.00,VWS V14.01,2013-04-03 11:04:00,
2013-04-03 05:05:00,24.2,22.5,30.29,WNW,288,2.0,3.0,93,0.00,,---,0.00,VWS V14.01,2013-04-03 11:05:00,
2013-04-03 05:06:00,24.2,22.5,30.29,WNW,288,2.0,2.0,93,0.00,,---,0.00,VWS V14.01,2013-04-03 11:06:00,
2013-04-03 05:07:00,24.1,22.4,30.29,WNW,288,2.0,4.0,93,0.00,,---,0.00,VWS V14.01,2013-04-03 11:07:00,
2013-04-03 05:08:00,24.0,22.3,30.29,WNW,288,1.0,2.0,93,0.00,,---,0.00,VWS V14.01,2013-04-03 11:08:00,
2013-04-03 05:09:00,24.0,22.3,30.29,WNW,288,1.0,1.0,93,0.00,,---,0.00,VWS V14.01,2013-04-03 11:09:00,
2013-04-03 05:10:00,24.0,22.3,30.29,WNW,288,0.0,1.0,93,0.00,,---,0.00,VWS V14.01,2013-04-03 11:10:00,
2013-04-03 05:11:00,24.0,22.3,30.29,WNW,288,0.0,1.0,93,0.00,,---,0.00,VWS V14.01,2013-04-03 11:11:00,
2013-04-03 05:12:00,24.0,22.3,30.29,WNW,288,0.0,1.0,93,0.00,,---,0.00,VWS V14.01,2013-04-03 11:12:00,
2013-04-03 05:13:00,24.0,22.3,30.29,WNW,288,1.0,1.0,93,0.00,,---,0.00,VWS V14.01,2013-04-03 11:13:00,
2013-04-03 05:14:00,24.0,22.3,30.29,WNW,288,0.0,1.0,93,0.00,,---,0.00,VWS V14.01,2013-04-03 11:14:00,
2013-04-03 05:15:00,24.0,22.3,30.29,WNW,288,1.0,1.0,93,0.00,,---,0.00,VWS V14.01,2013-04-03 11:15:00,
2013-04-03 05:16:00,24.0,22.3,30.29,WNW,288,1.0,1.0,93,0.00,,---,0.00,VWS V14.01,2013-04-03 11:16:00,
2013-04-03 05:17:00,24.0,22.3,30.29,WNW,288,2.0,2.0,93,0.00,,---,0.00,VWS V14.01,2013-04-03 11:17:00,
2013-04-03 05:18:00,24.0,22.3,30.29,WNW,288,0.0,2.0,93,0.00,,---,0.00,VWS V14.01,2013-04-03 11:18:00,
2013-04-03 05:19:00,24.0,22.3,30.29,WNW,288,0.0,1.0,93,0.00,,---,0.00,VWS V14.01,2013-04-03 11:19:00,
2013-04-03 05:20:00,23.9,22.2,30.29,WNW,288,0.0,0.0,93,0.00,,---,0.00,VWS V14.01,2013-04-03 11:20:00,
2013-04-03 05:21:00,23.9,22.2,30.29,WNW,288,0.0,0.0,93,0.00,,---,0.00,VWS V14.01,2013-04-03 11:21:00,
2013-04-03 05:22:00,23.8,22.1,30.29,WNW,288,0.0,0.0,93,0.00,,---,0.00,VWS V14.01,2013-04-03 11:22:00,
2013-04-03 05:23:00,23.8,21.8,30.29,WNW,288,0.0,0.0,92,0.00,,---,0.00,VWS V14.01,2013-04-03 11:23:00,
2013-04-03 05:24:00,23.8,21.8,30.29,WNW,288,0.0,0.0,92,0.00,,---,0.00,VWS V14.01,2013-04-03 11:24:00,
2013-04-03 05:25:00,23.8,21.8,30.30,WNW,288,0.0,0.0,92,0.00,,---,0.00,VWS V14.01,2013-04-03 11:25:00,
2013-04-03 05:26:00,23.8,21.8,30.30,WNW,288,0.0,0.0,92,0.00,,---,0.00,VWS V14.01,2013-04-03 11:26:00,
2013-04-03 05:27:00,23.7,22.0,30.29,WNW,288,0.0,0.0,93,0.00,,---,0.00,VWS V14.01,2013-04-03 11:27:00,
2013-04-03 05:28:00,23.7,22.0,30.30,WNW,288,0.0,0.0,93,0.00,,---,0.00,VWS V14.01,2013-04-03 11:28:00,
2013-04-03 05:29:00,23.7,22.0,30.30,WNW,288,0.0,0.0,93,0.00,,---,0.00,VWS V14.01,2013-04-03 11:29:00,
2013-04-03 05:30:00,23.7,22.0,30.29,WNW,288,0.0,0.0,93,0.00,,---,0.00,VWS V14.01,2013-04-03 11:30:00,
2013-04-03 05:31:00,23.7,22.0,30.29,WNW,288,0.0,0.0,93,0.00,,---,0.00,VWS V14.01,2013-04-03 11:31:00,
2013-04-03 05:32:00,23.8,22.1,30.30,WNW,288,0.0,0.0,93,0.00,,---,0.00,VWS V14.01,2013-04-03 11:32:00,
2013-04-03 05:33:00,23.8,22.1,30.30,WNW,288,0.0,0.0,93,0.00,,---,0.00,VWS V14.01,2013-04-03 11:33:00,
2013-04-03 05:34:00,23.8,22.1,30.30,WNW,288,0.0,0.0,93,0.00,,---,0.00,VWS V14.01,2013-04-03 11:34:00,
2013-04-03 05:35:00,23.9,22.2,30.30,WNW,288,0.0,0.0,93,0.00,,---,0.00,VWS V14.01,2013-04-03 11:35:00,
2013-04-03 05:36:00,23.9,22.2,30.29,WNW,288,0.0,0.0,93,0.00,,---,0.00,VWS V14.01,2013-04-03 11:36:00,
2013-04-03 05:37:00,23.9,22.2,30.30,WNW,288,0.0,0.0,93,0.00,,---,0.00,VWS V14.01,2013-04-03 11:37:00,
2013-04-03 05:38:00,23.9,22.2,30.30,WNW,288,0.0,0.0,93,0.00,,---,0.00,VWS V14.01,2013-04-03 11:38:00,
2013-04-03 05:39:00,23.9,22.2,30.30,WNW,288,0.0,0.0,93,0.00,,---,0.00,VWS V14.01,2013-04-03 11:39:00,
2013-04-03 05:40:00,23.9,22.2,30.30,WNW,288,0.0,0.0,93,0.00,,---,0.00,VWS V14.01,2013-04-03 11:40:00,
2013-04-03 05:41:00,24.0,22.3,30.30,WNW,288,0.0,0.0,93,0.00,,---,0.00,VWS V14.01,2013-04-03 11:41:00,
2013-04-03 05:42:00,23.9,22.2,30.30,WNW,288,0.0,0.0,93,0.00,,---,0.00,VWS V14.01,2013-04-03 11:42:00,
2013-04-03 05:43:00,24.0,22.3,30.30,WNW,288,0.0,0.0,93,0.00,,---,0.00,VWS V14.01,2013-04-03 11:43:00,
2013-04-03 05:44:00,24.0,22.3,30.30,WNW,288,0.0,0.0,93,0.00,,---,0.00,VWS V14.01,2013-04-03 11:44:00,
2013-04-03 05:45:00,24.0,22.3,30.30,WNW,288,0.0,0.0,93,0.00,,---,0.00,VWS V14.01,2013-04-03 11:45:00,
2013-04-03 05:46:00,23.9,22.2,30.30,WNW,288,0.0,0.0,93,0.00,,---,0.00,VWS V14.01,2013-04-03 11:46:00,
2013-04-03 05:47:00,23.9,22.2,30.30,WNW,288,0.0,0.0,93,0.00,,---,0.00,VWS V14.01,2013-04-03 11:47:00,
2013-04-03 05:48:00,23.9,22.2,30.30,WNW,288,0.0,0.0,93,0.00,,---,0.00,VWS V14.01,2013-04-03 11:48:00,
2013-04-03 05:49:00,24.0,22.3,30.30,WNW,288,0.0,0.0,93,0.00,,---,0.00,VWS V14.01,2013-04-03 11:49:00,
2013-04-03 05:50:00,24.0,22.3,30.30,WNW,288,0.0,0.0,93,0.00,,---,0.00,VWS V14.01,2013-04-03 11:50:00,
2013-04-03 05:51:00,24.0,22.3,30.30,WNW,288,0.0,0.0,93,0.00,,---,0.00,VWS V14.01,2013-04-03 11:51:00,
2013-04-03 05:52:00,24.0,22.3,30.30,WNW,288,0.0,0.0,93,0.00,,---,0.00,VWS V14.01,2013-04-03 11:52:00,
2013-04-03 05:53:00,24.0,22.3,30.30,WNW,288,0.0,0.0,93,0.00,,---,0.00,VWS V14.01,2013-04-03 11:53:00,
2013-04-03 05:54:00,24.1,22.4,30.30,WNW,288,0.0,0.0,93,0.00,,---,0.00,VWS V14.01,2013-04-03 11:54:00,
2013-04-03 05:55:00,24.0,22.3,30.30,WNW,288,0.0,0.0,93,0.00,,---,0.00,VWS V14.01,2013-04-03 11:55:00,
2013-04-03 05:56:00,24.0,22.3,30.30,WNW,288,0.0,0.0,93,0.00,,---,0.00,VWS V14.01,2013-04-03 11:56:00,
2013-04-03 05:57:00,24.0,22.3,30.30,WNW,288,0.0,0.0,93,0.00,,---,0.00,VWS V14.01,2013-04-03 11:57:00,
2013-04-03 05:58:00,24.0,22.3,30.31,WNW,288,0.0,0.0,93,0.00,,---,0.00,VWS V14.01,2013-04-03 11:58:00,
2013-04-03 05:59:00,24.0,22.0,30.31,WNW,288,0.0,0.0,92,0.00,,---,0.00,VWS V14.01,2013-04-03 11:59:00,
2013-04-03 06:00:00,24.0,22.0,30.31,WNW,288,0.0,0.0,92,0.00,,---,0.00,VWS V14.01,2013-04-03 12:00:00,
2013-04-03 06:01:00,24.0,22.0,30.31,WNW,288,0.0,0.0,92,0.00,,---,0.00,VWS V14.01,2013-04-03 12:01:00,
2013-04-03 06:02:00,24.0,22.0,30.31,WNW,288,0.0,0.0,92,0.00,,---,0.00,VWS V14.01,2013-04-03 12:02:00,
2013-04-03 06:03:00,23.9,21.9,30.31,WNW,288,0.0,0.0,92,0.00,,---,0.00,VWS V14.01,2013-04-03 12:03:00,
2013-04-03 06:04:00,23.9,21.9,30.31,WNW,288,0.0,0.0,92,0.00,,---,0.00,VWS V14.01,2013-04-03 12:04:00,
2013-04-03 06:05:00,23.9,21.9,30.31,WNW,288,0.0,0.0,92,0.00,,---,0.00,VWS V14.01,2013-04-03 12:05:00,
2013-04-03 06:06:00,23.8,21.8,30.31,WNW,288,0.0,0.0,92,0.00,,---,0.00,VWS V14.01,2013-04-03 12:06:00,
2013-04-03 06:07:00,23.8,21.8,30.31,WNW,288,0.0,0.0,92,0.00,,---,0.00,VWS V14.01,2013-04-03 12:07:00,
2013-04-03 06:08:00,23.8,21.8,30.31,WNW,288,0.0,0.0,92,0.00,,---,0.00,VWS V14.01,2013-04-03 12:08:00,
2013-04-03 06:09:00,23.8,21.8,30.31,WNW,288,0.0,0.0,92,0.00,,---,0.00,VWS V14.01,2013-04-03 12:09:00,
2013-04-03 06:10:00,23.8,21.8,30.31,WNW,288,0.0,0.0,92,0.00,,---,0.00,VWS V14.01,2013-04-03 12:10:00,
2013-04-03 06:11:00,23.8,21.8,30.31,WNW,288,0.0,0.0,92,0.00,,---,0.00,VWS V14.01,2013-04-03 12:11:00,
2013-04-03 06:12:00,23.8,21.8,30.31,WNW,288,0.0,0.0,92,0.00,,---,0.00,VWS V14.01,2013-04-03 12:12:00,
2013-04-03 06:13:00,23.9,21.9,30.31,WNW,288,0.0,0.0,92,0.00,,---,0.00,VWS V14.01,2013-04-03 12:13:00,
2013-04-03 06:14:00,23.9,21.9,30.31,WNW,288,0.0,0.0,92,0.00,,---,0.00,VWS V14.01,2013-04-03 12:14:00,
2013-04-03 06:15:00,23.8,21.8,30.31,WNW,288,0.0,0.0,92,0.00,,---,0.00,VWS V14.01,2013-04-03 12:15:00,
2013-04-03 06:16:00,23.8,21.8,30.31,WNW,288,0.0,0.0,92,0.00,,---,0.00,VWS V14.01,2013-04-03 12:16:00,
2013-04-03 06:17:00,23.8,21.8,30.31,WNW,288,0.0,0.0,92,0.00,,---,0.00,VWS V14.01,2013-04-03 12:17:00,
2013-04-03 06:18:00,23.8,21.8,30.31,WNW,288,0.0,1.0,92,0.00,,---,0.00,VWS V14.01,2013-04-03 12:18:00,
2013-04-03 06:19:00,23.8,21.8,30.31,WNW,288,0.0,0.0,92,0.00,,---,0.00,VWS V14.01,2013-04-03 12:19:00,
2013-04-03 06:20:00,23.7,21.7,30.31,WNW,288,0.0,0.0,92,0.00,,---,0.00,VWS V14.01,2013-04-03 12:20:00,
2013-04-03 06:21:00,23.7,21.7,30.31,WNW,288,0.0,1.0,92,0.00,,---,0.00,VWS V14.01,2013-04-03 12:21:00,
2013-04-03 06:22:00,23.7,21.7,30.31,WNW,288,0.0,1.0,92,0.00,,---,0.00,VWS V14.01,2013-04-03 12:22:00,
2013-04-03 06:23:00,23.6,21.6,30.32,WNW,288,0.0,0.0,92,0.00,,---,0.00,VWS V14.01,2013-04-03 12:23:00,
2013-04-03 06:24:00,23.6,21.6,30.32,WNW,288,2.0,2.0,92,0.00,,---,0.00,VWS V14.01,2013-04-03 12:24:00,
2013-04-03 06:25:00,23.6,21.6,30.32,WNW,288,1.0,2.0,92,0.00,,---,0.00,VWS V14.01,2013-04-03 12:25:00,
2013-04-03 06:26:00,23.5,21.5,30.32,WNW,288,0.0,1.0,92,0.00,,---,0.00,VWS V14.01,2013-04-03 12:26:00,
2013-04-03 06:27:00,23.5,21.5,30.32,WNW,288,0.0,1.0,92,0.00,,---,0.00,VWS V14.01,2013-04-03 12:27:00,
2013-04-03 06:28:00,23.5,21.3,30.32,WNW,288,2.0,4.0,91,0.00,,---,0.00,VWS V14.01,2013-04-03 12:28:00,
2013-04-03 06:29:00,23.4,21.2,30.32,WNW,288,3.0,4.0,91,0.00,,---,0.00,VWS V14.01,2013-04-03 12:29:00,
2013-04-03 06:30:00,23.4,21.2,30.32,WNW,288,1.0,3.0,91,0.00,,---,0.00,VWS V14.01,2013-04-03 12:30:00,
2013-04-03 06:31:00,23.3,21.1,30.32,WNW,288,2.0,2.0,91,0.00,,---,0.00,VWS V14.01,2013-04-03 12:31:00,
2013-04-03 06:32:00,23.3,21.1,30.32,WNW,288,2.0,2.0,91,0.00,,---,0.00,VWS V14.01,2013-04-03 12:32:00,
2013-04-03 06:33:00,23.3,21.3,30.32,WNW,288,3.0,4.0,92,0.00,,---,0.00,VWS V14.01,2013-04-03 12:33:00,
2013-04-03 06:34:00,23.3,21.3,30.32,WNW,288,3.0,3.0,92,0.00,,---,0.00,VWS V14.01,2013-04-03 12:34:00,
2013-04-03 06:35:00,23.2,21.2,30.32,WNW,288,4.0,4.0,92,0.00,,---,0.00,VWS V14.01,2013-04-03 12:35:00,
2013-04-03 06:36:00,23.2,21.2,30.32,WNW,288,2.0,4.0,92,0.00,,---,0.00,VWS V14.01,2013-04-03 12:36:00,
2013-04-03 06:37:00,23.2,21.2,30.32,WNW,288,2.0,4.0,92,0.00,,---,0.00,VWS V14.01,2013-04-03 12:37:00,
2013-04-03 06:38:00,23.1,21.1,30.32,WNW,288,0.0,2.0,92,0.00,,---,0.00,VWS V14.01,2013-04-03 12:38:00,
2013-04-03 06:39:00,23.1,21.1,30.32,WNW,288,0.0,0.0,92,0.00,,---,0.00,VWS V14.01,2013-04-03 12:39:00,
2013-04-03 06:40:00,23.1,21.1,30.32,WNW,288,0.0,0.0,92,0.00,,---,0.00,VWS V14.01,2013-04-03 12:40:00,
2013-04-03 06:41:00,23.1,21.1,30.32,WNW,288,0.0,0.0,92,0.00,,---,0.00,VWS V14.01,2013-04-03 12:41:00,
2013-04-03 06:42:00,23.1,21.1,30.32,WNW,288,0.0,0.0,92,0.00,,---,0.00,VWS V14.01,2013-04-03 12:42:00,
2013-04-03 06:43:00,23.2,21.2,30.32,WNW,288,0.0,1.0,92,0.00,,---,0.00,VWS V14.01,2013-04-03 12:43:00,
2013-04-03 06:44:00,23.2,21.2,30.31,WNW,288,0.0,0.0,92,0.00,,---,0.00,VWS V14.01,2013-04-03 12:44:00,
2013-04-03 06:45:00,23.3,21.3,30.32,WNW,288,0.0,0.0,92,0.00,,---,0.00,VWS V14.01,2013-04-03 12:45:00,
2013-04-03 06:46:00,23.3,21.3,30.31,WNW,288,0.0,0.0,92,0.00,,---,0.00,VWS V14.01,2013-04-03 12:46:00,
2013-04-03 06:47:00,23.3,21.3,30.31,WNW,288,0.0,0.0,92,0.00,,---,0.00,VWS V14.01,2013-04-03 12:47:00,
2013-04-03 06:48:00,23.4,21.4,30.32,WNW,288,0.0,0.0,92,0.00,,---,0.00,VWS V14.01,2013-04-03 12:48:00,
2013-04-03 06:49:00,23.4,21.7,30.32,WNW,288,0.0,0.0,93,0.00,,---,0.00,VWS V14.01,2013-04-03 12:49:00,
2013-04-03 06:50:00,23.5,21.8,30.32,WNW,288,0.0,0.0,93,0.00,,---,0.00,VWS V14.01,2013-04-03 12:50:00,
2013-04-03 06:51:00,23.5,21.5,30.32,WNW,288,1.0,1.0,92,0.00,,---,0.00,VWS V14.01,2013-04-03 12:51:00,
2013-04-03 06:52:00,23.5,21.5,30.32,WNW,288,1.0,1.0,92,0.00,,---,0.00,VWS V14.01,2013-04-03 12:52:00,
2013-04-03 06:53:00,23.6,21.6,30.32,WNW,288,0.0,2.0,92,0.00,,---,0.00,VWS V14.01,2013-04-03 12:53:00,
2013-04-03 06:54:00,23.6,21.6,30.32,WNW,288,0.0,0.0,92,0.00,,---,0.00,VWS V14.01,2013-04-03 12:54:00,
2013-04-03 06:55:00,23.5,21.5,30.32,WNW,288,0.0,0.0,92,0.00,,---,0.00,VWS V14.01,2013-04-03 12:55:00,
2013-04-03 06:56:00,23.6,21.6,30.32,WNW,288,0.0,1.0,92,0.00,,---,0.00,VWS V14.01,2013-04-03 12:56:00,
2013-04-03 06:57:00,23.6,21.6,30.32,WNW,288,0.0,1.0,92,0.00,,---,0.00,VWS V14.01,2013-04-03 12:57:00,
2013-04-03 06:58:00,23.5,21.5,30.32,WNW,288,0.0,0.0,92,0.00,,---,0.00,VWS V14.01,2013-04-03 12:58:00,
2013-04-03 06:59:00,23.5,21.5,30.32,WNW,288,0.0,0.0,92,0.00,,---,0.00,VWS V14.01,2013-04-03 12:59:00,
2013-04-03 07:00:00,23.5,21.5,30.32,WNW,288,0.0,0.0,92,0.00,,---,0.00,VWS V14.01,2013-04-03 13:00:00,
2013-04-03 07:01:00,23.5,21.5,30.32,WNW,288,0.0,0.0,92,0.00,,---,0.00,VWS V14.01,2013-04-03 13:01:00,
2013-04-03 07:02:00,23.5,21.5,30.32,WNW,288,0.0,0.0,92,0.00,,---,0.00,VWS V14.01,2013-04-03 13:02:00,
2013-04-03 07:03:00,23.5,21.5,30.33,WNW,288,0.0,0.0,92,0.00,,---,0.00,VWS V14.01,2013-04-03 13:03:00,
2013-04-03 07:04:00,23.5,21.5,30.33,WNW,288,0.0,0.0,92,0.00,,---,0.00,VWS V14.01,2013-04-03 13:04:00,
2013-04-03 07:05:00,23.5,21.5,30.33,WNW,288,0.0,0.0,92,0.00,,---,0.00,VWS V14.01,2013-04-03 13:05:00,
2013-04-03 07:06:00,23.5,21.5,30.33,WNW,288,0.0,0.0,92,0.00,,---,0.00,VWS V14.01,2013-04-03 13:06:00,
2013-04-03 07:07:00,23.5,21.5,30.33,WNW,288,0.0,0.0,92,0.00,,---,0.00,VWS V14.01,2013-04-03 13:07:00,
2013-04-03 07:08:00,23.5,21.5,30.33,WNW,288,0.0,0.0,92,0.00,,---,0.00,VWS V14.01,2013-04-03 13:08:00,
2013-04-03 07:09:00,23.5,21.5,30.33,WNW,288,2.0,2.0,92,0.00,,---,0.00,VWS V14.01,2013-04-03 13:09:00,
2013-04-03 07:10:00,23.6,21.6,30.33,WNW,288,0.0,2.0,92,0.00,,---,0.00,VWS V14.01,2013-04-03 13:10:00,
2013-04-03 07:11:00,23.6,21.6,30.33,WNW,288,0.0,0.0,92,0.00,,---,0.00,VWS V14.01,2013-04-03 13:11:00,
2013-04-03 07:12:00,23.6,21.6,30.33,WNW,288,0.0,0.0,92,0.00,,---,0.00,VWS V14.01,2013-04-03 13:12:00,
2013-04-03 07:13:00,23.6,21.6,30.33,WNW,288,1.0,2.0,92,0.00,,---,0.00,VWS V14.01,2013-04-03 13:13:00,
2013-04-03 07:14:00,23.6,21.6,30.34,WNW,288,2.0,2.0,92,0.00,,---,0.00,VWS V14.01,2013-04-03 13:14:00,
2013-04-03 07:15:00,23.7,21.7,30.34,WNW,288,1.0,2.0,92,0.00,,---,0.00,VWS V14.01,2013-04-03 13:15:00,
2013-04-03 07:16:00,23.7,21.7,30.34,WNW,288,2.0,2.0,92,0.00,,---,0.00,VWS V14.01,2013-04-03 13:16:00,
2013-04-03 07:17:00,23.7,21.7,30.34,WNW,288,2.0,2.0,92,0.00,,---,0.00,VWS V14.01,2013-04-03 13:17:00,
2013-04-03 07:18:00,23.8,21.8,30.34,WNW,288,3.0,4.0,92,0.00,,---,0.00,VWS V14.01,2013-04-03 13:18:00,
2013-04-03 07:19:00,23.8,21.8,30.34,WNW,288,1.0,4.0,92,0.00,,---,0.00,VWS V14.01,2013-04-03 13:19:00,
2013-04-03 07:20:00,23.9,21.9,30.34,WNW,288,4.0,4.0,92,0.00,,---,0.00,VWS V14.01,2013-04-03 13:20:00,
2013-04-03 07:21:00,23.9,21.9,30.34,WNW,288,3.0,5.0,92,0.00,,---,0.00,VWS V14.01,2013-04-03 13:21:00,
2013-04-03 07:22:00,23.9,21.9,30.34,WNW,288,3.0,5.0,92,0.00,,---,0.00,VWS V14.01,2013-04-03 13:22:00,
2013-04-03 07:23:00,24.0,22.0,30.34,WNW,288,2.0,4.0,92,0.00,,---,0.00,VWS V14.01,2013-04-03 13:23:00,
2013-04-03 07:24:00,24.0,22.0,30.34,WNW,288,2.0,4.0,92,0.00,,---,0.00,VWS V14.01,2013-04-03 13:24:00,
2013-04-03 07:25:00,24.1,22.1,30.35,WNW,288,4.0,4.0,92,0.00,,---,0.00,VWS V14.01,2013-04-03 13:25:00,
2013-04-03 07:26:00,24.1,22.1,30.35,WNW,288,4.0,4.0,92,0.00,,---,0.00,VWS V14.01,2013-04-03 13:26:00,
2013-04-03 07:27:00,24.1,22.1,30.35,WNW,288,4.0,4.0,92,0.00,,---,0.00,VWS V14.01,2013-04-03 13:27:00,
2013-04-03 07:28:00,24.3,22.1,30.35,WNW,288,1.0,2.0,91,0.00,,---,0.00,VWS V14.01,2013-04-03 13:28:00,
2013-04-03 07:29:00,24.3,22.1,30.35,WNW,288,0.0,1.0,91,0.00,,---,0.00,VWS V14.01,2013-04-03 13:29:00,
2013-04-03 07:30:00,24.4,22.2,30.35,WNW,288,0.0,0.0,91,0.00,,---,0.00,VWS V14.01,2013-04-03 13:30:00,
2013-04-03 07:31:00,24.4,22.2,30.35,WNW,288,1.0,1.0,91,0.00,,---,0.00,VWS V14.01,2013-04-03 13:31:00,
2013-04-03 07:32:00,24.4,22.2,30.35,WNW,288,1.0,1.0,91,0.00,,---,0.00,VWS V14.01,2013-04-03 13:32:00,
2013-04-03 07:33:00,24.5,22.0,30.35,WNW,288,2.0,4.0,90,0.00,,---,0.00,VWS V14.01,2013-04-03 13:33:00,
2013-04-03 07:34:00,24.6,22.1,30.35,WNW,288,1.0,3.0,90,0.00,,---,0.00,VWS V14.01,2013-04-03 13:34:00,
2013-04-03 07:36:00,24.7,22.2,30.35,WNW,288,1.0,2.0,90,0.00,,---,0.00,VWS V14.01,2013-04-03 13:36:00,
2013-04-03 07:37:00,24.7,22.2,30.35,WNW,288,1.0,2.0,90,0.00,,---,0.00,VWS V14.01,2013-04-03 13:37:00,
2013-04-03 07:38:00,24.8,22.3,30.35,WNW,288,2.0,2.0,90,0.00,,---,0.00,VWS V14.01,2013-04-03 13:38:00,
2013-04-03 07:39:00,24.8,22.3,30.35,WNW,288,0.0,2.0,90,0.00,,---,0.00,VWS V14.01,2013-04-03 13:39:00,
2013-04-03 07:40:00,24.9,22.4,30.35,WNW,288,0.0,0.0,90,0.00,,---,0.00,VWS V14.01,2013-04-03 13:40:00,
2013-04-03 07:41:00,24.9,22.4,30.35,WNW,288,0.0,1.0,90,0.00,,---,0.00,VWS V14.01,2013-04-03 13:41:00,
2013-04-03 07:42:00,24.9,22.4,30.35,WNW,288,0.0,1.0,90,0.00,,---,0.00,VWS V14.01,2013-04-03 13:42:00,
2013-04-03 07:43:00,24.9,22.1,30.35,WNW,288,2.0,3.0,89,0.00,,---,0.00,VWS V14.01,2013-04-03 13:43:00,
2013-04-03 07:44:00,25.0,22.5,30.35,WNW,288,0.0,3.0,90,0.00,,---,0.00,VWS V14.01,2013-04-03 13:44:00,
2013-04-03 07:45:00,25.1,22.3,30.35,WNW,288,1.0,4.0,89,0.00,,---,0.00,VWS V14.01,2013-04-03 13:45:00,
2013-04-03 07:46:00,25.2,22.4,30.35,WNW,288,2.0,3.0,89,0.00,,---,0.00,VWS V14.01,2013-04-03 13:46:00,
2013-04-03 07:47:00,25.2,22.4,30.35,WNW,288,2.0,3.0,89,0.00,,---,0.00,VWS V14.01,2013-04-03 13:47:00,
2013-04-03 07:48:00,25.5,22.7,30.35,WNW,288,4.0,5.0,89,0.00,,---,0.00,VWS V14.01,2013-04-03 13:48:00,
2013-04-03 07:49:00,25.6,22.8,30.35,WNW,288,2.0,4.0,89,0.00,,---,0.00,VWS V14.01,2013-04-03 13:49:00,
2013-04-03 07:50:00,25.8,23.0,30.35,WNW,288,0.0,3.0,89,0.00,,---,0.00,VWS V14.01,2013-04-03 13:50:00,
2013-04-03 07:51:00,25.9,23.1,30.35,WNW,288,2.0,2.0,89,0.00,,---,0.00,VWS V14.01,2013-04-03 13:51:00,
2013-04-03 07:52:00,25.9,23.1,30.35,WNW,288,2.0,2.0,89,0.00,,---,0.00,VWS V14.01,2013-04-03 13:52:00,
2013-04-03 07:53:00,26.2,23.1,30.35,WNW,288,1.0,4.0,88,0.00,,---,0.00,VWS V14.01,2013-04-03 13:53:00,
2013-04-03 07:54:00,26.4,23.3,30.36,WNW,288,1.0,2.0,88,0.00,,---,0.00,VWS V14.01,2013-04-03 13:54:00,
2013-04-03 07:55:00,26.5,23.2,30.36,WNW,288,0.0,2.0,87,0.00,,---,0.00,VWS V14.01,2013-04-03 13:55:00,
2013-04-03 07:56:00,26.6,23.3,30.36,WNW,288,1.0,1.0,87,0.00,,---,0.00,VWS V14.01,2013-04-03 13:56:00,
2013-04-03 07:57:00,26.8,23.5,30.36,WNW,288,2.0,2.0,87,0.00,,---,0.00,VWS V14.01,2013-04-03 13:57:00,
2013-04-03 07:58:00,26.7,23.4,30.36,WNW,288,2.0,2.0,87,0.00,,---,0.00,VWS V14.01,2013-04-03 13:58:00,
2013-04-03 07:59:00,27.2,23.6,30.36,WNW,288,4.0,5.0,86,0.00,,---,0.00,VWS V14.01,2013-04-03 13:59:00,
2013-04-03 08:00:00,27.4,23.8,30.36,WNW,288,4.0,4.0,86,0.00,,---,0.00,VWS V14.01,2013-04-03 14:00:00,
2013-04-03 08:01:00,27.5,23.9,30.36,WNW,288,3.0,4.0,86,0.00,,---,0.00,VWS V14.01,2013-04-03 14:01:00,
2013-04-03 08:02:00,27.6,24.0,30.36,WNW,288,3.0,3.0,86,0.00,,---,0.00,VWS V14.01,2013-04-03 14:02:00,
2013-04-03 08:03:00,27.5,23.9,30.36,WNW,288,1.0,3.0,86,0.00,,---,0.00,VWS V14.01,2013-04-03 14:03:00,
2013-04-03 08:04:00,27.9,24.0,30.36,WNW,288,1.0,2.0,85,0.00,,---,0.00,VWS V14.01,2013-04-03 14:04:00,
2013-04-03 08:05:00,28.0,24.1,30.36,WNW,288,0.0,1.0,85,0.00,,---,0.00,VWS V14.01,2013-04-03 14:05:00,
2013-04-03 08:06:00,28.1,23.9,30.36,WNW,288,0.0,2.0,84,0.00,,---,0.00,VWS V14.01,2013-04-03 14:06:00,
2013-04-03 08:07:00,28.2,24.0,30.36,WNW,288,2.0,4.0,84,0.00,,---,0.00,VWS V14.01,2013-04-03 14:07:00,
2013-04-03 08:08:00,28.1,23.9,30.36,WNW,288,1.0,1.0,84,0.00,,---,0.00,VWS V14.01,2013-04-03 14:08:00,
2013-04-03 08:09:00,28.5,24.0,30.36,WNW,288,1.0,4.0,83,0.00,,---,0.00,VWS V14.01,2013-04-03 14:09:00,
2013-04-03 08:10:00,28.6,24.1,30.36,WNW,288,0.0,1.0,83,0.00,,---,0.00,VWS V14.01,2013-04-03 14:10:00,
2013-04-03 08:11:00,28.7,23.9,30.36,WNW,288,0.0,0.0,82,0.00,,---,0.00,VWS V14.01,2013-04-03 14:11:00,
2013-04-03 08:12:00,28.8,24.0,30.36,WNW,288,0.0,0.0,82,0.00,,---,0.00,VWS V14.01,2013-04-03 14:12:00,
2013-04-03 08:13:00,28.7,23.9,30.36,WNW,288,0.0,0.0,82,0.00,,---,0.00,VWS V14.01,2013-04-03 14:13:00,
2013-04-03 08:14:00,29.1,24.3,30.36,WNW,288,0.0,1.0,82,0.00,,---,0.00,VWS V14.01,2013-04-03 14:14:00,
2013-04-03 08:15:00,29.2,24.4,30.36,WNW,288,0.0,1.0,82,0.00,,---,0.00,VWS V14.01,2013-04-03 14:15:00,
2013-04-03 08:16:00,29.3,24.2,30.36,WNW,288,1.0,2.0,81,0.00,,---,0.00,VWS V14.01,2013-04-03 14:16:00,
2013-04-03 08:17:00,29.4,24.3,30.36,WNW,288,2.0,3.0,81,0.00,,---,0.00,VWS V14.01,2013-04-03 14:17:00,
2013-04-03 08:18:00,29.4,24.3,30.36,WNW,288,0.0,1.0,81,0.00,,---,0.00,VWS V14.01,2013-04-03 14:18:00,
2013-04-03 08:19:00,29.7,24.6,30.36,WNW,288,0.0,0.0,81,0.00,,---,0.00,VWS V14.01,2013-04-03 14:19:00,
2013-04-03 08:20:00,29.9,24.5,30.36,WNW,288,0.0,1.0,80,0.00,,---,0.00,VWS V14.01,2013-04-03 14:20:00,
2013-04-03 08:21:00,30.1,24.7,30.36,WNW,288,0.0,0.0,80,0.00,,---,0.00,VWS V14.01,2013-04-03 14:21:00,
2013-04-03 08:22:00,30.3,24.9,30.36,WNW,288,0.0,0.0,80,0.00,,---,0.00,VWS V14.01,2013-04-03 14:22:00,
2013-04-03 08:23:00,30.2,24.8,30.36,WNW,288,0.0,0.0,80,0.00,,---,0.00,VWS V14.01,2013-04-03 14:23:00,
2013-04-03 08:24:00,30.5,25.1,30.36,WNW,288,0.0,0.0,80,0.00,,---,0.00,VWS V14.01,2013-04-03 14:24:00,
2013-04-03 08:25:00,30.7,25.3,30.36,WNW,288,0.0,0.0,80,0.00,,---,0.00,VWS V14.01,2013-04-03 14:25:00,
2013-04-03 08:26:00,30.9,25.5,30.36,WNW,288,0.0,0.0,80,0.00,,---,0.00,VWS V14.01,2013-04-03 14:26:00,
2013-04-03 08:27:00,31.0,25.3,30.36,WNW,288,0.0,0.0,79,0.00,,---,0.00,VWS V14.01,2013-04-03 14:27:00,
2013-04-03 08:28:00,31.0,25.3,30.36,WNW,288,0.0,0.0,79,0.00,,---,0.00,VWS V14.01,2013-04-03 14:28:00,
2013-04-03 08:29:00,31.4,25.6,30.36,WNW,288,0.0,0.0,79,0.00,,---,0.00,VWS V14.01,2013-04-03 14:29:00,
2013-04-03 08:30:00,31.6,25.9,30.36,WNW,288,0.0,0.0,79,0.00,,---,0.00,VWS V14.01,2013-04-03 14:30:00,
2013-04-03 08:31:00,31.8,25.7,30.35,WNW,288,0.0,0.0,78,0.00,,---,0.00,VWS V14.01,2013-04-03 14:31:00,
2013-04-03 08:32:00,31.9,25.5,30.36,WNW,288,2.0,2.0,77,0.00,,---,0.00,VWS V14.01,2013-04-03 14:32:00,
2013-04-03 08:33:00,31.9,25.5,30.36,WNW,288,1.0,2.0,77,0.00,,---,0.00,VWS V14.01,2013-04-03 14:33:00,
2013-04-03 08:34:00,32.2,25.5,30.36,WNW,288,1.0,1.0,76,0.00,,---,0.00,VWS V14.01,2013-04-03 14:34:00,
2013-04-03 08:35:00,32.4,25.7,30.35,WNW,288,0.0,5.0,76,0.00,,---,0.00,VWS V14.01,2013-04-03 14:35:00,
2013-04-03 08:36:00,32.5,25.8,30.36,WNW,288,2.0,2.0,76,0.00,,---,0.00,VWS V14.01,2013-04-03 14:36:00,
2013-04-03 08:37:00,32.6,25.6,30.35,WNW,288,0.0,2.0,75,0.00,,---,0.00,VWS V14.01,2013-04-03 14:37:00,
2013-04-03 08:38:00,32.6,25.6,30.35,WNW,288,0.0,2.0,75,0.00,,---,0.00,VWS V14.01,2013-04-03 14:38:00,
2013-04-03 08:39:00,33.0,26.0,30.36,West,274,4.0,6.0,75,0.00,,---,0.00,VWS V14.01,2013-04-03 14:39:00,
2013-04-03 08:40:00,33.2,25.8,30.36,West,274,1.0,4.0,74,0.00,,---,0.00,VWS V14.01,2013-04-03 14:40:00,
2013-04-03 08:41:00,33.3,25.6,30.35,West,274,0.0,2.0,73,0.00,,---,0.00,VWS V14.01,2013-04-03 14:41:00,
2013-04-03 08:42:00,33.4,25.7,30.35,West,274,0.0,2.0,73,0.00,,---,0.00,VWS V14.01,2013-04-03 14:42:00,
2013-04-03 08:43:00,33.4,25.7,30.35,West,274,0.0,2.0,73,0.00,,---,0.00,VWS V14.01,2013-04-03 14:43:00,
2013-04-03 08:44:00,33.6,25.9,30.36,West,274,3.0,3.0,73,0.00,,---,0.00,VWS V14.01,2013-04-03 14:44:00,
2013-04-03 08:45:00,33.7,26.0,30.35,West,274,2.0,4.0,73,0.00,,---,0.00,VWS V14.01,2013-04-03 14:45:00,
2013-04-03 08:46:00,33.8,25.8,30.35,West,274,1.0,2.0,72,0.00,,---,0.00,VWS V14.01,2013-04-03 14:46:00,
2013-04-03 08:47:00,33.9,25.5,30.35,West,274,0.0,2.0,71,0.01,,---,0.01,VWS V14.01,2013-04-03 14:47:00,
2013-04-03 08:48:00,33.9,25.5,30.35,West,274,0.0,2.0,71,0.01,,---,0.01,VWS V14.01,2013-04-03 14:48:00,
2013-04-03 08:49:00,34.1,25.7,30.35,West,274,0.0,3.0,71,0.01,,---,0.01,VWS V14.01,2013-04-03 14:49:00,
2013-04-03 08:50:00,34.2,25.5,30.36,West,274,2.0,2.0,70,0.01,,---,0.01,VWS V14.01,2013-04-03 14:50:00,
2013-04-03 08:51:00,34.3,25.5,30.35,West,274,0.0,4.0,70,0.01,,---,0.01,VWS V14.01,2013-04-03 14:51:00,
2013-04-03 08:52:00,34.3,25.2,30.35,West,274,0.0,0.0,69,0.01,,---,0.01,VWS V14.01,2013-04-03 14:52:00,
2013-04-03 08:53:00,34.4,25.3,30.35,West,274,2.0,2.0,69,0.01,,---,0.01,VWS V14.01,2013-04-03 14:53:00,
2013-04-03 08:54:00,34.3,25.2,30.35,West,274,0.0,0.0,69,0.01,,---,0.01,VWS V14.01,2013-04-03 14:54:00,
2013-04-03 08:55:00,34.6,25.5,30.35,West,274,4.0,5.0,69,0.02,,---,0.02,VWS V14.01,2013-04-03 14:55:00,
2013-04-03 08:56:00,34.6,25.5,30.35,West,269,2.0,5.0,69,0.02,,---,0.02,VWS V14.01,2013-04-03 14:56:00,
2013-04-03 08:57:00,34.7,25.9,30.35,West,269,1.0,2.0,70,0.02,,---,0.02,VWS V14.01,2013-04-03 14:57:00,
2013-04-03 08:58:00,34.8,26.0,30.35,West,269,0.0,1.0,70,0.02,,---,0.02,VWS V14.01,2013-04-03 14:58:00,
2013-04-03 08:59:00,34.6,25.5,30.35,West,269,2.0,5.0,69,0.02,,---,0.02,VWS V14.01,2013-04-03 14:59:00,
2013-04-03 09:00:00,35.0,25.9,30.35,West,269,0.0,0.0,69,0.03,,---,0.03,VWS V14.01,2013-04-03 15:00:00,
2013-04-03 09:01:00,35.1,26.0,30.35,West,269,2.0,2.0,69,0.03,,---,0.03,VWS V14.01,2013-04-03 15:01:00,
2013-04-03 09:02:00,35.2,26.1,30.35,West,269,3.0,4.0,69,0.04,,---,0.04,VWS V14.01,2013-04-03 15:02:00,
2013-04-03 09:03:00,35.3,26.2,30.35,WSW,245,5.0,5.0,69,0.04,,---,0.04,VWS V14.01,2013-04-03 15:03:00,
2013-04-03 09:04:00,35.2,26.1,30.35,West,259,5.0,5.0,69,0.04,,---,0.04,VWS V14.01,2013-04-03 15:04:00,
2013-04-03 09:05:00,35.5,26.0,30.35,WSW,245,1.0,3.0,68,0.04,,---,0.04,VWS V14.01,2013-04-03 15:05:00,
2013-04-03 09:06:00,35.7,26.2,30.35,WSW,245,2.0,4.0,68,0.04,,---,0.04,VWS V14.01,2013-04-03 15:06:00,
2013-04-03 09:07:00,35.7,26.2,30.35,WSW,245,2.0,3.0,68,0.05,,---,0.05,VWS V14.01,2013-04-03 15:07:00,
2013-04-03 09:08:00,35.9,26.4,30.35,WSW,245,3.0,3.0,68,0.05,,---,0.05,VWS V14.01,2013-04-03 15:08:00,
2013-04-03 09:09:00,35.8,26.3,30.35,WSW,245,0.0,2.0,68,0.05,,---,0.05,VWS V14.01,2013-04-03 15:09:00,
2013-04-03 09:10:00,36.0,26.1,30.35,WSW,245,3.0,5.0,67,0.05,,---,0.05,VWS V14.01,2013-04-03 15:10:00,
2013-04-03 09:11:00,36.0,26.5,30.35,WSW,245,2.0,5.0,68,0.06,,---,0.06,VWS V14.01,2013-04-03 15:11:00,
2013-04-03 09:12:00,36.1,26.2,30.35,WSW,245,0.0,4.0,67,0.06,,---,0.06,VWS V14.01,2013-04-03 15:12:00,
2013-04-03 09:13:00,36.1,25.9,30.35,WSW,245,1.0,1.0,66,0.06,,---,0.06,VWS V14.01,2013-04-03 15:13:00,
2013-04-03 09:14:00,36.1,26.2,30.35,WSW,245,1.0,1.0,67,0.06,,---,0.06,VWS V14.01,2013-04-03 15:14:00,
2013-04-03 09:15:00,36.2,26.3,30.35,WSW,245,2.0,2.0,67,0.06,,---,0.06,VWS V14.01,2013-04-03 15:15:00,
2013-04-03 09:16:00,36.2,26.3,30.35,WSW,245,4.0,4.0,67,0.06,,---,0.06,VWS V14.01,2013-04-03 15:16:00,
2013-04-03 09:17:00,36.2,26.3,30.35,WSW,245,0.0,5.0,67,0.07,,---,0.07,VWS V14.01,2013-04-03 15:17:00,
2013-04-03 09:18:00,36.3,26.4,30.35,WSW,245,0.0,0.0,67,0.07,,---,0.07,VWS V14.01,2013-04-03 15:18:00,
2013-04-03 09:19:00,36.2,26.3,30.35,WSW,245,0.0,0.0,67,0.07,,---,0.07,VWS V14.01,2013-04-03 15:19:00,
2013-04-03 09:20:00,36.4,26.9,30.35,WSW,245,4.0,5.0,68,0.07,,---,0.07,VWS V14.01,2013-04-03 15:20:00,
2013-04-03 09:21:00,36.4,26.5,30.35,WSW,245,0.0,4.0,67,0.08,,---,0.08,VWS V14.01,2013-04-03 15:21:00,
2013-04-03 09:22:00,36.5,26.2,30.35,WSW,245,0.0,2.0,66,0.08,,---,0.08,VWS V14.01,2013-04-03 15:22:00,
2013-04-03 09:23:00,36.5,26.2,30.35,WSW,245,0.0,2.0,66,0.08,,---,0.08,VWS V14.01,2013-04-03 15:23:00,
2013-04-03 09:24:00,36.5,26.2,30.35,WSW,245,0.0,0.0,66,0.08,,---,0.08,VWS V14.01,2013-04-03 15:24:00,
2013-04-03 09:25:00,36.7,27.1,30.35,WSW,245,1.0,3.0,68,0.08,,---,0.08,VWS V14.01,2013-04-03 15:25:00,
2013-04-03 09:26:00,36.8,27.2,30.35,SW,229,3.0,5.0,68,0.08,,---,0.08,VWS V14.01,2013-04-03 15:26:00,
2013-04-03 09:27:00,36.9,27.3,30.35,SW,229,1.0,5.0,68,0.08,,---,0.08,VWS V14.01,2013-04-03 15:27:00,
2013-04-03 09:28:00,37.0,27.1,30.35,SW,229,0.0,3.0,67,0.09,,---,0.09,VWS V14.01,2013-04-03 15:28:00,
2013-04-03 09:29:00,37.0,27.4,30.35,SW,229,2.0,3.0,68,0.09,,---,0.09,VWS V14.01,2013-04-03 15:29:00,
2013-04-03 09:30:00,37.2,27.3,30.35,SW,229,2.0,3.0,67,0.09,,---,0.09,VWS V14.01,2013-04-03 15:30:00,
2013-04-03 09:31:00,37.4,27.5,30.35,SW,219,4.0,6.0,67,0.09,,---,0.09,VWS V14.01,2013-04-03 15:31:00,
2013-04-03 09:32:00,37.5,27.6,30.35,SW,218,2.0,6.0,67,0.10,,---,0.10,VWS V14.01,2013-04-03 15:32:00,
2013-04-03 09:33:00,37.6,28.0,30.35,SW,218,0.0,2.0,68,0.10,,---,0.10,VWS V14.01,2013-04-03 15:33:00,
2013-04-03 09:34:00,37.6,27.6,30.35,SW,218,0.0,2.0,67,0.10,,---,0.10,VWS V14.01,2013-04-03 15:34:00,
2013-04-03 09:35:00,37.9,28.3,30.35,SW,218,1.0,2.0,68,0.10,,---,0.10,VWS V14.01,2013-04-03 15:35:00,
2013-04-03 09:36:00,37.9,28.6,30.35,SW,218,0.0,2.0,69,0.10,,---,0.10,VWS V14.01,2013-04-03 15:36:00,
2013-04-03 09:37:00,38.0,28.0,30.35,SW,215,4.0,5.0,67,0.10,,---,0.10,VWS V14.01,2013-04-03 15:37:00,
2013-04-03 09:38:00,38.1,27.8,30.35,SW,215,2.0,4.0,66,0.10,,---,0.10,VWS V14.01,2013-04-03 15:38:00,
2013-04-03 09:39:00,38.1,27.8,30.35,SW,215,2.0,4.0,66,0.10,,---,0.10,VWS V14.01,2013-04-03 15:39:00,
2013-04-03 09:40:00,38.2,27.9,30.35,SSE,149,5.0,5.0,66,0.11,,---,0.11,VWS V14.01,2013-04-03 15:40:00,
2013-04-03 09:41:00,38.3,28.0,30.35,SSE,153,1.0,5.0,66,0.11,,---,0.11,VWS V14.01,2013-04-03 15:41:00,
2013-04-03 09:42:00,38.5,28.5,30.35,SSE,156,4.0,5.0,67,0.11,,---,0.11,VWS V14.01,2013-04-03 15:42:00,
2013-04-03 09:43:00,38.6,28.6,30.35,SSE,156,3.0,4.0,67,0.12,,---,0.12,VWS V14.01,2013-04-03 15:43:00,
2013-04-03 09:44:00,38.6,28.6,30.35,SSE,156,4.0,4.0,67,0.11,,---,0.11,VWS V14.01,2013-04-03 15:44:00,
2013-04-03 09:45:00,38.7,27.2,30.35,SSE,155,0.0,1.0,63,0.12,,---,0.12,VWS V14.01,2013-04-03 15:45:00,
2013-04-03 09:46:00,38.7,28.0,30.35,SSE,155,1.0,1.0,65,0.12,,---,0.12,VWS V14.01,2013-04-03 15:46:00,
2013-04-03 09:47:00,38.6,27.5,30.35,South,182,6.0,6.0,64,0.12,,---,0.12,VWS V14.01,2013-04-03 15:47:00,
2013-04-03 09:48:00,38.6,27.5,30.35,South,182,2.0,6.0,64,0.11,,---,0.12,VWS V14.01,2013-04-03 15:48:00,
2013-04-03 09:49:00,38.6,27.5,30.35,South,182,2.0,6.0,64,0.11,,---,0.12,VWS V14.01,2013-04-03 15:49:00,
2013-04-03 09:50:00,38.6,27.1,30.35,SSE,155,6.0,7.0,63,0.12,,---,0.13,VWS V14.01,2013-04-03 15:50:00,
2013-04-03 09:51:00,38.5,26.2,30.35,SSE,155,4.0,6.0,61,0.12,,---,0.13,VWS V14.01,2013-04-03 15:51:00,
2013-04-03 09:52:00,38.4,25.7,30.35,SSE,155,3.0,5.0,60,0.12,,---,0.13,VWS V14.01,2013-04-03 15:52:00,
2013-04-03 09:53:00,38.4,25.7,30.35,SSE,155,4.0,5.0,60,0.12,,---,0.13,VWS V14.01,2013-04-03 15:53:00,
2013-04-03 09:54:00,38.4,26.1,30.35,South,178,2.0,6.0,61,0.13,,---,0.14,VWS V14.01,2013-04-03 15:54:00,
2013-04-03 09:55:00,38.4,25.7,30.35,SSE,155,4.0,5.0,60,0.12,,---,0.13,VWS V14.01,2013-04-03 15:55:00,
2013-04-03 09:56:00,38.6,27.1,30.35,South,178,1.0,2.0,63,0.12,,---,0.14,VWS V14.01,2013-04-03 15:56:00,
2013-04-03 09:57:00,38.7,27.2,30.35,South,178,0.0,2.0,63,0.12,,---,0.14,VWS V14.01,2013-04-03 15:57:00,
2013-04-03 09:58:00,38.8,27.7,30.35,South,178,2.0,5.0,64,0.12,,---,0.14,VWS V14.01,2013-04-03 15:58:00,
2013-04-03 09:59:00,38.9,27.8,30.35,South,178,1.0,2.0,64,0.12,,---,0.14,VWS V14.01,2013-04-03 15:59:00,
2013-04-03 10:00:00,38.8,27.7,30.35,South,178,2.0,2.0,64,0.12,,---,0.14,VWS V14.01,2013-04-03 16:00:00,
2013-04-03 10:01:00,39.1,28.0,30.35,South,179,2.0,4.0,64,0.11,,---,0.14,VWS V14.01,2013-04-03 16:01:00,
2013-04-03 10:02:00,39.1,26.8,30.35,South,176,2.0,5.0,61,0.12,,---,0.15,VWS V14.01,2013-04-03 16:02:00,
2013-04-03 10:03:00,39.2,27.7,30.35,SSE,158,0.0,4.0,63,0.11,,---,0.15,VWS V14.01,2013-04-03 16:03:00,
2013-04-03 10:04:00,39.3,27.8,30.35,SSE,159,2.0,2.0,63,0.11,,---,0.15,VWS V14.01,2013-04-03 16:04:00,
2013-04-03 10:05:00,39.2,27.7,30.35,SSE,158,0.0,0.0,63,0.11,,---,0.15,VWS V14.01,2013-04-03 16:05:00,
2013-04-03 10:06:00,39.4,27.5,30.35,SSW,210,6.0,8.0,62,0.11,,---,0.15,VWS V14.01,2013-04-03 16:06:00,
2013-04-03 10:07:00,39.3,26.6,30.35,SSW,202,2.0,6.0,60,0.12,,---,0.16,VWS V14.01,2013-04-03 16:07:00,
2013-04-03 10:08:00,39.2,26.5,30.35,SSW,204,4.0,6.0,60,0.11,,---,0.16,VWS V14.01,2013-04-03 16:08:00,
2013-04-03 10:09:00,39.2,26.5,30.35,SSW,204,1.0,4.0,60,0.11,,---,0.16,VWS V14.01,2013-04-03 16:09:00,
2013-04-03 10:10:00,39.2,26.5,30.35,SSW,204,4.0,6.0,60,0.11,,---,0.16,VWS V14.01,2013-04-03 16:10:00,
2013-04-03 10:11:00,39.1,28.0,30.35,SSW,199,6.0,7.0,64,0.11,,---,0.16,VWS V14.01,2013-04-03 16:11:00,
2013-04-03 10:12:00,39.1,26.8,30.35,SSW,208,7.0,8.0,61,0.10,,---,0.16,VWS V14.01,2013-04-03 16:12:00,
2013-04-03 10:13:00,39.0,26.3,30.35,SSW,195,1.0,7.0,60,0.10,,---,0.16,VWS V14.01,2013-04-03 16:13:00,
2013-04-03 10:14:00,39.0,27.1,30.35,SSW,211,7.0,7.0,62,0.10,,---,0.16,VWS V14.01,2013-04-03 16:14:00,
2013-04-03 10:15:00,39.1,27.2,30.35,SSW,196,4.0,4.0,62,0.10,,---,0.16,VWS V14.01,2013-04-03 16:15:00,
2013-04-03 10:16:00,38.9,26.2,30.35,SSW,202,8.0,8.0,60,0.11,,---,0.17,VWS V14.01,2013-04-03 16:16:00,
2013-04-03 10:17:00,38.8,26.5,30.35,SW,220,6.0,8.0,61,0.11,,---,0.17,VWS V14.01,2013-04-03 16:17:00,
2013-04-03 10:18:00,38.7,26.8,30.35,WSW,253,1.0,6.0,62,0.10,,---,0.17,VWS V14.01,2013-04-03 16:18:00,
2013-04-03 10:19:00,38.7,27.2,30.35,WSW,241,0.0,5.0,63,0.10,,---,0.17,VWS V14.01,2013-04-03 16:19:00,
2013-04-03 10:20:00,38.7,27.2,30.35,WSW,253,1.0,2.0,63,0.10,,---,0.17,VWS V14.01,2013-04-03 16:20:00,
2013-04-03 10:21:00,38.8,26.9,30.35,SSW,209,1.0,4.0,62,0.11,,---,0.18,VWS V14.01,2013-04-03 16:21:00,
2013-04-03 10:22:00,38.9,27.8,30.35,SW,226,3.0,7.0,64,0.10,,---,0.18,VWS V14.01,2013-04-03 16:22:00,
2013-04-03 10:23:00,38.9,27.0,30.35,SW,226,6.0,6.0,62,0.10,,---,0.18,VWS V14.01,2013-04-03 16:23:00,
2013-04-03 10:24:00,38.9,25.8,30.35,SW,225,4.0,6.0,59,0.10,,---,0.18,VWS V14.01,2013-04-03 16:24:00,
2013-04-03 10:25:00,38.9,25.8,30.35,SW,224,5.0,6.0,59,0.10,,---,0.18,VWS V14.01,2013-04-03 16:25:00,
2013-04-03 10:26:00,38.8,26.9,30.35,SSE,151,6.0,6.0,62,0.10,,---,0.18,VWS V14.01,2013-04-03 16:26:00,
2013-04-03 10:27:00,38.9,27.4,30.35,South,182,3.0,6.0,63,0.10,,---,0.18,VWS V14.01,2013-04-03 16:27:00,
2013-04-03 10:28:00,38.9,27.4,30.35,South,182,5.0,7.0,63,0.10,,---,0.18,VWS V14.01,2013-04-03 16:28:00,
2013-04-03 10:29:00,38.9,28.1,30.35,SW,223,8.0,9.0,65,0.09,,---,0.18,VWS V14.01,2013-04-03 16:29:00,
2013-04-03 10:30:00,38.9,28.1,30.35,South,185,6.0,6.0,65,0.09,,---,0.18,VWS V14.01,2013-04-03 16:30:00,
2013-04-03 10:31:00,38.7,26.4,30.35,SW,217,7.0,8.0,61,0.10,,---,0.19,VWS V14.01,2013-04-03 16:31:00,
2013-04-03 10:32:00,38.6,25.9,30.35,SSW,198,7.0,8.0,60,0.10,,---,0.19,VWS V14.01,2013-04-03 16:32:00,
2013-04-03 10:33:00,38.6,26.7,30.35,SSW,199,1.0,7.0,62,0.09,,---,0.19,VWS V14.01,2013-04-03 16:33:00,
2013-04-03 10:34:00,38.6,27.1,30.35,SW,230,6.0,8.0,63,0.09,,---,0.19,VWS V14.01,2013-04-03 16:34:00,
2013-04-03 10:35:00,38.6,27.1,30.34,SW,231,8.0,8.0,63,0.09,,---,0.19,VWS V14.01,2013-04-03 16:35:00,
2013-04-03 10:36:00,38.7,26.8,30.35,SW,227,2.0,5.0,62,0.09,,---,0.19,VWS V14.01,2013-04-03 16:36:00,
2013-04-03 10:37:00,38.8,27.7,30.35,SW,227,0.0,4.0,64,0.09,,---,0.19,VWS V14.01,2013-04-03 16:37:00,
2013-04-03 10:38:00,38.8,28.1,30.34,SW,225,1.0,4.0,65,0.10,,---,0.20,VWS V14.01,2013-04-03 16:38:00,
2013-04-03 10:39:00,38.9,27.4,30.34,SW,225,1.0,4.0,63,0.10,,---,0.20,VWS V14.01,2013-04-03 16:39:00,
2013-04-03 10:40:00,38.9,27.4,30.34,SW,225,3.0,4.0,63,0.10,,---,0.20,VWS V14.01,2013-04-03 16:40:00,
2013-04-03 10:41:00,39.1,26.0,30.34,SW,221,5.0,5.0,59,0.09,,---,0.20,VWS V14.01,2013-04-03 16:41:00,
2013-04-03 10:42:00,39.2,26.1,30.34,SW,234,4.0,5.0,59,0.09,,---,0.20,VWS V14.01,2013-04-03 16:42:00,
2013-04-03 10:43:00,39.3,27.0,30.34,SW,216,4.0,5.0,61,0.09,,---,0.20,VWS V14.01,2013-04-03 16:43:00,
2013-04-03 10:44:00,39.4,27.9,30.34,SSW,202,7.0,7.0,63,0.08,,---,0.20,VWS V14.01,2013-04-03 16:44:00,
2013-04-03 10:45:00,39.4,27.9,30.34,SSW,205,5.0,6.0,63,0.08,,---,0.20,VWS V14.01,2013-04-03 16:45:00,
2013-04-03 10:46:00,39.6,28.1,30.34,South,176,1.0,6.0,63,0.08,,---,0.20,VWS V14.01,2013-04-03 16:46:00,
2013-04-03 10:47:00,39.7,28.1,30.34,South,173,1.0,2.0,63,0.09,,---,0.21,VWS V14.01,2013-04-03 16:47:00,
2013-04-03 10:48:00,39.8,28.6,30.34,SSE,168,5.0,5.0,64,0.09,,---,0.21,VWS V14.01,2013-04-03 16:48:00,
2013-04-03 10:49:00,40.0,28.8,30.34,South,169,2.0,6.0,64,0.09,,---,0.21,VWS V14.01,2013-04-03 16:49:00,
2013-04-03 10:50:00,39.9,28.7,30.34,South,169,3.0,6.0,64,0.09,,---,0.21,VWS V14.01,2013-04-03 16:50:00,
2013-04-03 10:51:00,40.2,27.8,30.34,SE,140,4.0,5.0,61,0.08,,---,0.21,VWS V14.01,2013-04-03 16:51:00,
2013-04-03 10:52:00,40.3,28.7,30.34,ESE,107,4.0,8.0,63,0.08,,---,0.21,VWS V14.01,2013-04-03 16:52:00,
2013-04-03 10:53:00,40.4,27.6,30.35,ESE,107,4.0,6.0,60,0.08,,---,0.21,VWS V14.01,2013-04-03 16:53:00,
2013-04-03 10:54:00,40.3,27.5,30.34,ESE,104,4.0,5.0,60,0.09,,---,0.22,VWS V14.01,2013-04-03 16:54:00,
2013-04-03 10:55:00,40.3,27.5,30.35,ESE,104,4.0,5.0,60,0.09,,---,0.22,VWS V14.01,2013-04-03 16:55:00,
2013-04-03 10:56:00,40.3,28.7,30.35,ESE,104,2.0,5.0,63,0.08,,---,0.22,VWS V14.01,2013-04-03 16:56:00,
2013-04-03 10:57:00,40.3,28.7,30.34,ESE,104,4.0,5.0,63,0.08,,---,0.22,VWS V14.01,2013-04-03 16:57:00,
2013-04-03 10:58:00,40.2,27.8,30.34,ESE,104,3.0,4.0,61,0.08,,---,0.22,VWS V14.01,2013-04-03 16:58:00,
2013-04-03 10:59:00,40.2,27.4,30.34,ESE,104,1.0,4.0,60,0.08,,---,0.22,VWS V14.01,2013-04-03 16:59:00,
2013-04-03 11:00:00,40.2,27.0,30.34,ESE,104,1.0,4.0,59,0.08,,---,0.22,VWS V14.01,2013-04-03 17:00:00,
2013-04-03 11:01:00,40.2,27.4,30.34,ESE,104,1.0,4.0,60,0.08,,---,0.22,VWS V14.01,2013-04-03 17:01:00,
2013-04-03 11:02:00,40.2,26.6,30.34,ESE,104,1.0,5.0,58,0.08,,---,0.22,VWS V14.01,2013-04-03 17:02:00,
2013-04-03 11:03:00,40.2,25.8,30.34,ESE,104,0.0,2.0,56,0.07,,---,0.22,VWS V14.01,2013-04-03 17:03:00,
2013-04-03 11:04:00,40.2,27.8,30.34,ESE,104,5.0,5.0,61,0.08,,---,0.23,VWS V14.01,2013-04-03 17:04:00,
2013-04-03 11:05:00,40.3,28.3,30.34,ESE,104,4.0,5.0,62,0.08,,---,0.23,VWS V14.01,2013-04-03 17:05:00,
2013-04-03 11:06:00,40.2,27.8,30.34,ESE,104,5.0,5.0,61,0.08,,---,0.23,VWS V14.01,2013-04-03 17:06:00,
2013-04-03 11:07:00,40.1,26.1,30.34,ESE,104,5.0,5.0,57,0.08,,---,0.23,VWS V14.01,2013-04-03 17:07:00,
2013-04-03 11:08:00,40.0,27.2,30.34,ESE,104,4.0,5.0,60,0.07,,---,0.23,VWS V14.01,2013-04-03 17:08:00,
2013-04-03 11:09:00,40.0,27.6,30.34,ESE,104,2.0,5.0,61,0.07,,---,0.23,VWS V14.01,2013-04-03 17:09:00,
2013-04-03 11:10:00,39.8,25.4,30.34,ESE,104,2.0,4.0,56,0.07,,---,0.23,VWS V14.01,2013-04-03 17:10:00,
2013-04-03 11:11:00,39.9,27.6,30.34,ESE,104,3.0,4.0,61,0.07,,---,0.23,VWS V14.01,2013-04-03 17:11:00,
2013-04-03 11:12:00,39.7,25.3,30.34,ESE,104,1.0,4.0,56,0.08,,---,0.24,VWS V14.01,2013-04-03 17:12:00,
2013-04-03 11:13:00,39.6,26.1,30.34,ESE,104,2.0,5.0,58,0.08,,---,0.24,VWS V14.01,2013-04-03 17:13:00,
2013-04-03 11:14:00,39.6,27.7,30.34,ESE,104,3.0,4.0,62,0.08,,---,0.24,VWS V14.01,2013-04-03 17:14:00,
2013-04-03 11:15:00,39.7,29.3,30.34,East,79,6.0,8.0,66,0.08,,---,0.24,VWS V14.01,2013-04-03 17:15:00,
2013-04-03 11:16:00,39.6,29.2,30.34,ESE,111,7.0,8.0,66,0.08,,---,0.24,VWS V14.01,2013-04-03 17:16:00,
2013-04-03 11:17:00,39.3,25.8,30.34,East,93,0.0,6.0,58,0.07,,---,0.24,VWS V14.01,2013-04-03 17:17:00,
2013-04-03 11:18:00,39.2,26.5,30.34,East,93,5.0,5.0,60,0.07,,---,0.24,VWS V14.01,2013-04-03 17:18:00,
2013-04-03 11:19:00,39.0,25.9,30.34,East,93,1.0,5.0,59,0.07,,---,0.24,VWS V14.01,2013-04-03 17:19:00,
2013-04-03 11:20:00,39.0,26.7,30.34,East,93,0.0,4.0,61,0.07,,---,0.24,VWS V14.01,2013-04-03 17:20:00,
2013-04-03 11:21:00,38.9,26.6,30.34,East,93,0.0,4.0,61,0.07,,---,0.24,VWS V14.01,2013-04-03 17:21:00,
2013-04-03 11:22:00,39.1,28.7,30.34,East,93,5.0,7.0,66,0.06,,---,0.24,VWS V14.01,2013-04-03 17:22:00,
2013-04-03 11:23:00,39.1,28.7,30.34,East,93,2.0,5.0,66,0.06,,---,0.24,VWS V14.01,2013-04-03 17:23:00,
2013-04-03 11:24:00,39.2,28.1,30.34,East,94,4.0,8.0,64,0.06,,---,0.24,VWS V14.01,2013-04-03 17:24:00,
2013-04-03 11:25:00,39.3,26.6,30.34,ESE,113,5.0,6.0,60,0.06,,---,0.24,VWS V14.01,2013-04-03 17:25:00,
2013-04-03 11:26:00,39.3,28.2,30.34,ESE,111,4.0,6.0,64,0.06,,---,0.24,VWS V14.01,2013-04-03 17:26:00,
2013-04-03 11:27:00,39.5,26.8,30.34,ESE,113,5.0,6.0,60,0.07,,---,0.25,VWS V14.01,2013-04-03 17:27:00,
2013-04-03 11:28:00,39.5,28.0,30.34,ESE,113,4.0,6.0,63,0.07,,---,0.25,VWS V14.01,2013-04-03 17:28:00,
2013-04-03 11:29:00,39.6,28.4,30.34,ESE,113,0.0,4.0,64,0.07,,---,0.25,VWS V14.01,2013-04-03 17:29:00,
2013-04-03 11:30:00,39.7,27.8,30.34,ESE,113,4.0,4.0,62,0.07,,---,0.25,VWS V14.01,2013-04-03 17:30:00,
2013-04-03 11:31:00,39.7,27.4,30.34,ESE,113,4.0,4.0,61,0.07,,---,0.25,VWS V14.01,2013-04-03 17:31:00,
2013-04-03 11:32:00,40.0,27.6,30.34,ESE,109,2.0,5.0,61,0.06,,---,0.25,VWS V14.01,2013-04-03 17:32:00,
2013-04-03 11:33:00,40.1,29.3,30.34,ESE,109,4.0,6.0,65,0.07,,---,0.26,VWS V14.01,2013-04-03 17:33:00,
2013-04-03 11:34:00,40.2,27.8,30.34,ESE,109,0.0,4.0,61,0.07,,---,0.26,VWS V14.01,2013-04-03 17:34:00,
2013-04-03 11:35:00,40.2,26.6,30.34,ESE,109,0.0,0.0,58,0.07,,---,0.26,VWS V14.01,2013-04-03 17:35:00,
2013-04-03 11:36:00,40.2,26.2,30.34,South,173,4.0,4.0,57,0.07,,---,0.26,VWS V14.01,2013-04-03 17:36:00,
2013-04-03 11:37:00,40.2,26.6,30.34,ESE,109,0.0,0.0,58,0.07,,---,0.26,VWS V14.01,2013-04-03 17:37:00,
2013-04-03 11:38:00,40.0,27.6,30.34,WSW,240,2.0,6.0,61,0.07,,---,0.26,VWS V14.01,2013-04-03 17:38:00,
2013-04-03 11:39:00,39.8,27.1,30.34,WSW,248,8.0,11.0,60,0.06,,---,0.26,VWS V14.01,2013-04-03 17:39:00,
2013-04-03 11:40:00,39.6,26.9,30.34,WSW,255,9.0,9.0,60,0.06,,---,0.26,VWS V14.01,2013-04-03 17:40:00,
2013-04-03 11:41:00,39.3,26.6,30.34,WNW,289,2.0,9.0,60,0.06,,---,0.26,VWS V14.01,2013-04-03 17:41:00,
2013-04-03 11:42:00,39.6,26.9,30.34,WSW,255,9.0,9.0,60,0.06,,---,0.26,VWS V14.01,2013-04-03 17:42:00,
2013-04-03 11:43:00,38.8,26.5,30.34,West,267,3.0,14.0,61,0.06,,---,0.26,VWS V14.01,2013-04-03 17:43:00,
2013-04-03 11:44:00,38.4,26.1,30.34,WNW,283,7.0,9.0,61,0.06,,---,0.26,VWS V14.01,2013-04-03 17:44:00,
2013-04-03 11:45:00,38.2,26.0,30.34,West,274,6.0,10.0,61,0.06,,---,0.26,VWS V14.01,2013-04-03 17:45:00,
2013-04-03 11:46:00,38.0,26.5,30.34,West,267,3.0,10.0,63,0.06,,---,0.26,VWS V14.01,2013-04-03 17:46:00,
2013-04-03 11:47:00,38.2,26.0,30.34,West,274,6.0,10.0,61,0.06,,---,0.26,VWS V14.01,2013-04-03 17:47:00,
2013-04-03 11:48:00,37.8,27.5,30.34,West,263,2.0,7.0,66,0.05,,---,0.26,VWS V14.01,2013-04-03 17:48:00,
2013-04-03 11:49:00,37.8,27.1,30.34,West,281,10.0,10.0,65,0.05,,---,0.26,VWS V14.01,2013-04-03 17:49:00,
2013-04-03 11:50:00,37.9,27.2,30.34,WNW,287,5.0,10.0,65,0.05,,---,0.26,VWS V14.01,2013-04-03 17:50:00,
2013-04-03 11:51:00,38.0,27.7,30.34,WSW,240,6.0,9.0,66,0.05,,---,0.26,VWS V14.01,2013-04-03 17:51:00,
2013-04-03 11:52:00,37.9,27.2,30.34,WNW,287,5.0,10.0,65,0.05,,---,0.26,VWS V14.01,2013-04-03 17:52:00,
2013-04-03 11:53:00,38.4,26.9,30.34,West,262,10.0,10.0,63,0.05,,---,0.26,VWS V14.01,2013-04-03 17:53:00,
2013-04-03 11:54:00,38.5,26.2,30.34,WNW,290,10.0,15.0,61,0.05,,---,0.26,VWS V14.01,2013-04-03 17:54:00,
2013-04-03 11:55:00,38.6,25.9,30.34,NW,322,8.0,10.0,60,0.04,,---,0.26,VWS V14.01,2013-04-03 17:55:00,
2013-04-03 11:56:00,38.7,26.8,30.34,West,269,5.0,9.0,62,0.04,,---,0.26,VWS V14.01,2013-04-03 17:56:00,
2013-04-03 11:57:00,38.6,25.9,30.34,NW,322,8.0,10.0,60,0.04,,---,0.26,VWS V14.01,2013-04-03 17:57:00,
2013-04-03 11:58:00,38.9,27.8,30.34,WSW,246,2.0,6.0,64,0.04,,---,0.26,VWS V14.01,2013-04-03 17:58:00,
2013-04-03 11:59:00,39.1,29.4,30.34,West,263,8.0,11.0,68,0.04,,---,0.26,VWS V14.01,2013-04-03 17:59:00,
2013-04-03 12:00:00,39.3,28.5,30.34,SW,230,8.0,8.0,65,0.04,,---,0.26,VWS V14.01,2013-04-03 18:00:00,
2013-04-03 12:01:00,39.4,25.9,30.34,SW,222,8.0,10.0,58,0.04,,---,0.26,VWS V14.01,2013-04-03 18:01:00,
2013-04-03 12:02:00,39.3,28.5,30.34,SSW,205,9.0,9.0,65,0.04,,---,0.26,VWS V14.01,2013-04-03 18:02:00,
2013-04-03 12:03:00,39.4,25.9,30.34,SW,227,6.0,8.0,58,0.05,,---,0.27,VWS V14.01,2013-04-03 18:03:00,
2013-04-03 12:04:00,39.5,27.6,30.34,WSW,240,8.0,8.0,62,0.05,,---,0.27,VWS V14.01,2013-04-03 18:04:00,
2013-04-03 12:05:00,39.5,27.2,30.34,WSW,242,9.0,10.0,61,0.04,,---,0.27,VWS V14.01,2013-04-03 18:05:00,
2013-04-03 12:06:00,39.5,26.0,30.34,WSW,250,4.0,9.0,58,0.04,,---,0.27,VWS V14.01,2013-04-03 18:06:00,
2013-04-03 12:07:00,39.5,26.8,30.34,WSW,254,8.0,9.0,60,0.04,,---,0.27,VWS V14.01,2013-04-03 18:07:00,
2013-04-03 12:08:00,39.6,24.3,30.34,SW,219,5.0,6.0,54,0.04,,---,0.27,VWS V14.01,2013-04-03 18:08:00,
2013-04-03 12:09:00,39.6,26.1,30.34,WSW,256,2.0,5.0,58,0.04,,---,0.27,VWS V14.01,2013-04-03 18:09:00,
2013-04-03 12:10:00,39.7,27.0,30.34,WSW,255,1.0,4.0,60,0.04,,---,0.27,VWS V14.01,2013-04-03 18:10:00,
2013-04-03 12:11:00,39.8,27.1,30.34,WSW,255,0.0,5.0,60,0.04,,---,0.27,VWS V14.01,2013-04-03 18:11:00,
2013-04-03 12:12:00,39.8,27.1,30.34,WSW,255,3.0,5.0,60,0.04,,---,0.27,VWS V14.01,2013-04-03 18:12:00,
2013-04-03 12:13:00,40.0,26.0,30.34,SW,232,6.0,7.0,57,0.03,,---,0.27,VWS V14.01,2013-04-03 18:13:00,
2013-04-03 12:14:00,40.2,27.8,30.34,West,267,4.0,6.0,61,0.03,,---,0.27,VWS V14.01,2013-04-03 18:14:00,
2013-04-03 12:15:00,40.3,26.3,30.34,SW,236,5.0,5.0,57,0.03,,---,0.27,VWS V14.01,2013-04-03 18:15:00,
2013-04-03 12:16:00,40.4,26.4,30.34,West,279,8.0,10.0,57,0.03,,---,0.27,VWS V14.01,2013-04-03 18:16:00,
2013-04-03 12:17:00,40.3,26.3,30.34,SW,236,8.0,10.0,57,0.03,,---,0.27,VWS V14.01,2013-04-03 18:17:00,
2013-04-03 12:18:00,40.4,24.6,30.33,WSW,239,6.0,7.0,53,0.03,,---,0.27,VWS V14.01,2013-04-03 18:18:00,
2013-04-03 12:19:00,40.4,26.0,30.33,South,173,2.0,6.0,56,0.03,,---,0.27,VWS V14.01,2013-04-03 18:19:00,
2013-04-03 12:20:00,40.5,26.9,30.33,SW,234,10.0,10.0,58,0.04,,---,0.28,VWS V14.01,2013-04-03 18:20:00,
2013-04-03 12:21:00,40.5,26.0,30.33,WSW,239,4.0,13.0,56,0.04,,---,0.28,VWS V14.01,2013-04-03 18:21:00,
2013-04-03 12:22:00,40.5,26.0,30.33,SSW,202,12.0,13.0,56,0.04,,---,0.28,VWS V14.01,2013-04-03 18:22:00,
2013-04-03 12:23:00,40.7,27.1,30.34,SW,227,8.0,18.0,58,0.04,,---,0.28,VWS V14.01,2013-04-03 18:23:00,
2013-04-03 12:24:00,40.7,25.8,30.33,West,270,6.0,9.0,55,0.04,,---,0.28,VWS V14.01,2013-04-03 18:24:00,
2013-04-03 12:25:00,40.8,27.6,30.33,WSW,241,3.0,7.0,59,0.04,,---,0.28,VWS V14.01,2013-04-03 18:25:00,
2013-04-03 12:26:00,40.9,27.7,30.33,SW,226,2.0,10.0,59,0.04,,---,0.28,VWS V14.01,2013-04-03 18:26:00,
2013-04-03 12:27:00,40.9,27.7,30.33,SW,226,4.0,10.0,59,0.04,,---,0.28,VWS V14.01,2013-04-03 18:27:00,
2013-04-03 12:28:00,41.0,26.5,30.34,SW,227,7.0,8.0,56,0.03,,---,0.28,VWS V14.01,2013-04-03 18:28:00,
2013-04-03 12:29:00,41.0,25.6,30.33,SW,223,7.0,8.0,54,0.03,,---,0.28,VWS V14.01,2013-04-03 18:29:00,
2013-04-03 12:30:00,41.0,25.6,30.33,SSW,199,11.0,11.0,54,0.03,,---,0.28,VWS V14.01,2013-04-03 18:30:00,
2013-04-03 12:31:00,41.0,27.4,30.33,SW,236,8.0,11.0,58,0.03,,---,0.28,VWS V14.01,2013-04-03 18:31:00,
2013-04-03 12:32:00,41.0,26.5,30.33,WSW,248,8.0,15.0,56,0.03,,---,0.28,VWS V14.01,2013-04-03 18:32:00,
2013-04-03 12:33:00,41.0,27.4,30.33,SW,236,8.0,11.0,58,0.03,,---,0.28,VWS V14.01,2013-04-03 18:33:00,
2013-04-03 12:34:00,40.9,25.1,30.33,South,183,7.0,7.0,53,0.02,,---,0.28,VWS V14.01,2013-04-03 18:34:00,
2013-04-03 12:35:00,41.0,28.2,30.33,SSW,211,7.0,7.0,60,0.02,,---,0.28,VWS V14.01,2013-04-03 18:35:00,
2013-04-03 12:36:00,41.0,26.5,30.34,SSW,211,8.0,9.0,56,0.02,,---,0.28,VWS V14.01,2013-04-03 18:36:00,
2013-04-03 12:37:00,41.0,26.5,30.34,West,263,5.0,8.0,56,0.02,,---,0.28,VWS V14.01,2013-04-03 18:37:00,
2013-04-03 12:38:00,41.0,26.5,30.34,SSW,211,8.0,9.0,56,0.02,,---,0.28,VWS V14.01,2013-04-03 18:38:00,
2013-04-03 12:39:00,41.0,26.1,30.34,WSW,246,10.0,11.0,55,0.02,,---,0.28,VWS V14.01,2013-04-03 18:39:00,
2013-04-03 12:40:00,40.9,26.0,30.33,WSW,247,6.0,10.0,55,0.02,,---,0.28,VWS V14.01,2013-04-03 18:40:00,
2013-04-03 12:41:00,40.8,26.8,30.34,WSW,248,6.0,7.0,57,0.02,,---,0.28,VWS V14.01,2013-04-03 18:41:00,
2013-04-03 12:42:00,40.8,26.3,30.34,SW,223,8.0,10.0,56,0.02,,---,0.28,VWS V14.01,2013-04-03 18:42:00,
2013-04-03 12:43:00,40.8,26.8,30.34,WSW,248,6.0,7.0,57,0.02,,---,0.28,VWS V14.01,2013-04-03 18:43:00,
2013-04-03 12:44:00,40.7,26.2,30.34,WSW,256,4.0,7.0,56,0.02,,---,0.28,VWS V14.01,2013-04-03 18:44:00,
2013-04-03 12:45:00,40.7,25.8,30.34,WSW,257,4.0,4.0,55,0.02,,---,0.28,VWS V14.01,2013-04-03 18:45:00,
2013-04-03 12:46:00,40.7,25.8,30.34,NNW,337,3.0,5.0,55,0.02,,---,0.28,VWS V14.01,2013-04-03 18:46:00,
2013-04-03 12:47:00,40.8,27.6,30.34,West,269,4.0,6.0,59,0.02,,---,0.28,VWS V14.01,2013-04-03 18:47:00,
2013-04-03 12:48:00,40.7,25.8,30.34,NNW,337,3.0,5.0,55,0.02,,---,0.28,VWS V14.01,2013-04-03 18:48:00,
2013-04-03 12:49:00,41.0,26.5,30.34,SSW,200,6.0,7.0,56,0.02,,---,0.28,VWS V14.01,2013-04-03 18:49:00,
2013-04-03 12:50:00,41.1,27.0,30.34,SSW,200,3.0,7.0,57,0.02,,---,0.28,VWS V14.01,2013-04-03 18:50:00,
2013-04-03 12:51:00,41.3,25.9,30.34,SSW,194,4.0,9.0,54,0.02,,---,0.28,VWS V14.01,2013-04-03 18:51:00,
2013-04-03 12:52:00,41.4,28.2,30.33,South,173,4.0,9.0,59,0.02,,---,0.28,VWS V14.01,2013-04-03 18:52:00,
2013-04-03 12:53:00,41.3,25.9,30.34,SSW,194,4.0,4.0,54,0.02,,---,0.28,VWS V14.01,2013-04-03 18:53:00,
2013-04-03 12:55:00,41.9,27.4,30.33,West,260,6.0,11.0,56,0.02,,---,0.28,VWS V14.01,2013-04-03 18:55:00,
2013-04-03 12:56:00,42.0,27.0,30.33,SW,234,8.0,9.0,55,0.02,,---,0.28,VWS V14.01,2013-04-03 18:56:00,
2013-04-03 12:57:00,41.9,25.1,30.33,SW,226,5.0,9.0,51,0.02,,---,0.28,VWS V14.01,2013-04-03 18:57:00,
2013-04-03 12:58:00,42.0,27.0,30.33,WSW,240,9.0,9.0,55,0.02,,---,0.28,VWS V14.01,2013-04-03 18:58:00,
2013-04-03 12:59:00,41.8,25.5,30.33,SSW,209,6.0,12.0,52,0.02,,---,0.28,VWS V14.01,2013-04-03 18:59:00,
2013-04-03 13:00:00,41.8,25.5,30.33,WNW,286,5.0,11.0,52,0.02,,---,0.28,VWS V14.01,2013-04-03 19:00:00,
2013-04-03 13:01:00,41.9,28.2,30.34,WSW,252,1.0,5.0,58,0.02,,---,0.28,VWS V14.01,2013-04-03 19:01:00,
2013-04-03 13:02:00,42.0,27.9,30.33,WSW,257,11.0,11.0,57,0.02,,---,0.28,VWS V14.01,2013-04-03 19:02:00,
2013-04-03 13:03:00,41.9,28.2,30.34,WSW,252,2.0,2.0,58,0.02,,---,0.28,VWS V14.01,2013-04-03 19:03:00,
2013-04-03 13:04:00,42.2,28.1,30.33,WNW,303,8.0,12.0,57,0.01,,---,0.28,VWS V14.01,2013-04-03 19:04:00,
2013-04-03 13:05:00,42.3,25.9,30.33,SW,232,6.0,11.0,52,0.01,,---,0.28,VWS V14.01,2013-04-03 19:05:00,
2013-04-03 13:06:00,42.4,27.0,30.33,SW,215,4.0,10.0,54,0.01,,---,0.28,VWS V14.01,2013-04-03 19:06:00,
2013-04-03 13:07:00,42.4,27.0,30.33,NW,309,4.0,7.0,54,0.01,,---,0.28,VWS V14.01,2013-04-03 19:07:00,
2013-04-03 13:08:00,42.4,27.0,30.33,West,261,7.0,7.0,54,0.01,,---,0.28,VWS V14.01,2013-04-03 19:08:00,
2013-04-03 13:09:00,42.5,25.2,30.33,West,277,0.0,2.0,50,0.01,,---,0.28,VWS V14.01,2013-04-03 19:09:00,
2013-04-03 13:10:00,42.6,27.6,30.33,SSE,155,4.0,8.0,55,0.01,,---,0.28,VWS V14.01,2013-04-03 19:10:00,
2013-04-03 13:11:00,42.7,26.3,30.33,WNW,288,7.0,16.0,52,0.01,,---,0.28,VWS V14.01,2013-04-03 19:11:00,
2013-04-03 13:12:00,42.8,26.9,30.33,West,274,7.0,11.0,53,0.01,,---,0.28,VWS V14.01,2013-04-03 19:12:00,
2013-04-03 13:13:00,42.8,26.4,30.33,West,265,11.0,11.0,52,0.01,,---,0.28,VWS V14.01,2013-04-03 19:13:00,
2013-04-03 13:14:00,42.9,27.4,30.33,West,259,5.0,10.0,54,0.01,,---,0.28,VWS V14.01,2013-04-03 19:14:00,
2013-04-03 13:15:00,42.9,27.0,30.33,NNW,346,5.0,6.0,53,0.01,,---,0.28,VWS V14.01,2013-04-03 19:15:00,
2013-04-03 13:16:00,42.9,25.1,30.33,North,5,2.0,5.0,49,0.02,,---,0.29,VWS V14.01,2013-04-03 19:16:00,
2013-04-03 13:17:00,42.9,26.0,30.33,West,281,7.0,8.0,51,0.02,,---,0.29,VWS V14.01,2013-04-03 19:17:00,
2013-04-03 13:18:00,42.9,25.1,30.33,North,5,1.0,2.0,49,0.02,,---,0.29,VWS V14.01,2013-04-03 19:18:00,
2013-04-03 13:19:00,43.1,26.7,30.33,WSW,241,7.0,12.0,52,0.02,,---,0.29,VWS V14.01,2013-04-03 19:19:00,
2013-04-03 13:20:00,43.1,25.7,30.33,SW,217,4.0,7.0,50,0.02,,---,0.29,VWS V14.01,2013-04-03 19:20:00,
2013-04-03 13:21:00,43.0,23.1,30.33,SSW,203,10.0,10.0,45,0.01,,---,0.29,VWS V14.01,2013-04-03 19:21:00,
2013-04-03 13:22:00,43.0,23.1,30.33,WSW,248,5.0,10.0,45,0.01,,---,0.29,VWS V14.01,2013-04-03 19:22:00,
2013-04-03 13:23:00,43.0,23.1,30.33,SW,221,8.0,10.0,45,0.01,,---,0.29,VWS V14.01,2013-04-03 19:23:00,
2013-04-03 13:24:00,42.9,26.0,30.33,SSW,213,6.0,7.0,51,0.01,,---,0.29,VWS V14.01,2013-04-03 19:24:00,
2013-04-03 13:25:00,43.0,26.1,30.33,SW,218,6.0,13.0,51,0.01,,---,0.29,VWS V14.01,2013-04-03 19:25:00,
2013-04-03 13:26:00,43.0,25.6,30.33,WNW,289,10.0,10.0,50,0.01,,---,0.29,VWS V14.01,2013-04-03 19:26:00,
2013-04-03 13:27:00,43.0,24.2,30.33,West,275,11.0,15.0,47,0.01,,---,0.29,VWS V14.01,2013-04-03 19:27:00,
2013-04-03 13:28:00,43.0,25.2,30.33,SSW,209,6.0,10.0,49,0.01,,---,0.29,VWS V14.01,2013-04-03 19:28:00,
2013-04-03 13:29:00,42.9,25.6,30.33,West,277,8.0,8.0,50,0.01,,---,0.29,VWS V14.01,2013-04-03 19:29:00,
2013-04-03 13:30:00,42.8,25.9,30.33,WSW,242,11.0,14.0,51,0.01,,---,0.29,VWS V14.01,2013-04-03 19:30:00,
2013-04-03 13:31:00,42.9,25.1,30.33,WSW,248,7.0,18.0,49,0.01,,---,0.29,VWS V14.01,2013-04-03 19:31:00,
2013-04-03 13:32:00,42.8,25.5,30.33,SSW,212,12.0,14.0,50,0.01,,---,0.29,VWS V14.01,2013-04-03 19:32:00,
2013-04-03 13:33:00,42.9,25.6,30.33,SW,233,8.0,14.0,50,0.01,,---,0.29,VWS V14.01,2013-04-03 19:33:00,
2013-04-03 13:34:00,42.8,25.5,30.33,WSW,253,9.0,18.0,50,0.01,,---,0.29,VWS V14.01,2013-04-03 19:34:00,
2013-04-03 13:35:00,42.8,24.5,30.33,WSW,247,10.0,12.0,48,0.01,,---,0.29,VWS V14.01,2013-04-03 19:35:00,
2013-04-03 13:36:00,42.8,24.5,30.33,West,275,4.0,20.0,48,0.01,,---,0.29,VWS V14.01,2013-04-03 19:36:00,
2013-04-03 13:37:00,42.9,26.5,30.33,SSW,209,5.0,11.0,52,0.01,,---,0.29,VWS V14.01,2013-04-03 19:37:00,
2013-04-03 13:38:00,42.9,24.6,30.33,SW,232,11.0,11.0,48,0.01,,---,0.29,VWS V14.01,2013-04-03 19:38:00,
2013-04-03 13:39:00,43.0,25.2,30.33,WSW,239,8.0,16.0,49,0.01,,---,0.29,VWS V14.01,2013-04-03 19:39:00,
2013-04-03 13:40:00,43.1,26.7,30.33,SSW,211,8.0,10.0,52,0.01,,---,0.29,VWS V14.01,2013-04-03 19:40:00,
2013-04-03 13:41:00,43.1,25.7,30.32,SW,232,10.0,18.0,50,0.01,,---,0.29,VWS V14.01,2013-04-03 19:41:00,
2013-04-03 13:42:00,43.0,25.2,30.32,SW,232,21.0,21.0,49,0.01,,---,0.29,VWS V14.01,2013-04-03 19:42:00,
2013-04-03 13:43:00,43.1,25.7,30.32,SW,227,6.0,12.0,50,0.01,,---,0.29,VWS V14.01,2013-04-03 19:43:00,
2013-04-03 13:44:00,43.0,25.2,30.33,SW,229,10.0,14.0,49,0.01,,---,0.29,VWS V14.01,2013-04-03 19:44:00,
2013-04-03 13:45:00,43.0,25.2,30.33,WSW,250,9.0,12.0,49,0.01,,---,0.29,VWS V14.01,2013-04-03 19:45:00,
2013-04-03 13:46:00,43.0,25.2,30.33,WNW,282,4.0,14.0,49,0.01,,---,0.29,VWS V14.01,2013-04-03 19:46:00,
2013-04-03 13:47:00,43.1,24.8,30.33,SW,230,5.0,14.0,48,0.01,,---,0.29,VWS V14.01,2013-04-03 19:47:00,
2013-04-03 13:48:00,43.1,25.3,30.33,West,272,9.0,9.0,49,0.01,,---,0.29,VWS V14.01,2013-04-03 19:48:00,
2013-04-03 13:49:00,43.2,24.4,30.32,SW,215,7.0,14.0,47,0.01,,---,0.29,VWS V14.01,2013-04-03 19:49:00,
2013-04-03 13:50:00,43.3,24.4,30.33,West,278,8.0,9.0,47,0.01,,---,0.29,VWS V14.01,2013-04-03 19:50:00,
2013-04-03 13:51:00,43.3,24.4,30.33,WSW,237,14.0,16.0,47,0.01,,---,0.29,VWS V14.01,2013-04-03 19:51:00,
2013-04-03 13:52:00,43.4,24.0,30.33,WSW,246,4.0,14.0,46,0.01,,---,0.29,VWS V14.01,2013-04-03 19:52:00,
2013-04-03 13:53:00,43.4,24.5,30.33,WSW,257,6.0,14.0,47,0.01,,---,0.29,VWS V14.01,2013-04-03 19:53:00,
2013-04-03 13:54:00,43.5,24.1,30.33,West,264,8.0,10.0,46,0.01,,---,0.29,VWS V14.01,2013-04-03 19:54:00,
2013-04-03 13:55:00,43.5,25.6,30.32,WSW,247,5.0,8.0,49,0.01,,---,0.29,VWS V14.01,2013-04-03 19:55:00,
2013-04-03 13:56:00,43.6,23.7,30.32,SSW,203,6.0,11.0,45,0.01,,---,0.29,VWS V14.01,2013-04-03 19:56:00,
2013-04-03 13:57:00,43.6,23.7,30.32,SSW,200,9.0,13.0,45,0.01,,---,0.29,VWS V14.01,2013-04-03 19:57:00,
2013-04-03 13:58:00,43.6,23.1,30.32,SSW,192,4.0,7.0,44,0.01,,---,0.29,VWS V14.01,2013-04-03 19:58:00,
2013-04-03 13:59:00,43.5,21.4,30.33,SSW,192,10.0,12.0,41,0.01,,---,0.29,VWS V14.01,2013-04-03 19:59:00,
2013-04-03 14:00:00,43.5,24.1,30.33,WNW,283,8.0,10.0,46,0.01,,---,0.29,VWS V14.01,2013-04-03 20:00:00,
2013-04-03 14:01:00,43.4,23.5,30.33,West,270,0.0,8.0,45,0.01,,---,0.29,VWS V14.01,2013-04-03 20:01:00,
2013-04-03 14:02:00,43.4,21.9,30.32,WSW,246,4.0,5.0,42,0.01,,---,0.29,VWS V14.01,2013-04-03 20:02:00,
2013-04-03 14:03:00,43.4,21.9,30.33,WSW,248,1.0,2.0,42,0.01,,---,0.29,VWS V14.01,2013-04-03 20:03:00,
2013-04-03 14:04:00,43.4,21.3,30.33,SSW,201,3.0,5.0,41,0.01,,---,0.29,VWS V14.01,2013-04-03 20:04:00,
2013-04-03 14:05:00,43.3,22.3,30.33,SSW,199,4.0,4.0,43,0.01,,---,0.29,VWS V14.01,2013-04-03 20:05:00,
2013-04-03 14:06:00,43.3,22.9,30.33,WSW,243,5.0,10.0,44,0.01,,---,0.29,VWS V14.01,2013-04-03 20:06:00,
2013-04-03 14:07:00,43.4,24.5,30.33,SW,234,6.0,8.0,47,0.01,,---,0.29,VWS V14.01,2013-04-03 20:07:00,
2013-04-03 14:08:00,43.4,21.9,30.33,WSW,243,3.0,7.0,42,0.01,,---,0.29,VWS V14.01,2013-04-03 20:08:00,
2013-04-03 14:09:00,43.4,24.5,30.33,SW,234,6.0,8.0,47,0.01,,---,0.29,VWS V14.01,2013-04-03 20:09:00,
2013-04-03 14:10:00,43.4,23.5,30.33,West,278,9.0,11.0,45,0.01,,---,0.29,VWS V14.01,2013-04-03 20:10:00,
2013-04-03 14:11:00,43.5,24.6,30.33,WNW,298,5.0,11.0,47,0.01,,---,0.29,VWS V14.01,2013-04-03 20:11:00,
2013-04-03 14:12:00,43.6,25.7,30.33,NNW,331,0.0,11.0,49,0.01,,---,0.29,VWS V14.01,2013-04-03 20:12:00,
2013-04-03 14:13:00,43.6,22.6,30.33,WNW,284,2.0,3.0,43,0.01,,---,0.29,VWS V14.01,2013-04-03 20:13:00,
2013-04-03 14:14:00,43.6,25.7,30.33,NNW,331,0.0,0.0,49,0.01,,---,0.29,VWS V14.01,2013-04-03 20:14:00,
2013-04-03 14:15:00,43.8,23.9,30.33,WNW,292,7.0,13.0,45,0.01,,---,0.29,VWS V14.01,2013-04-03 20:15:00,
2013-04-03 14:16:00,43.9,24.0,30.33,West,281,2.0,7.0,45,0.01,,---,0.29,VWS V14.01,2013-04-03 20:16:00,
2013-04-03 14:17:00,44.0,21.2,30.33,West,281,0.0,2.0,40,0.00,,---,0.29,VWS V14.01,2013-04-03 20:17:00,
2013-04-03 14:18:00,44.0,22.4,30.33,West,274,0.0,4.0,42,0.00,,---,0.29,VWS V14.01,2013-04-03 20:18:00,
2013-04-03 14:19:00,44.0,21.2,30.33,West,281,0.0,0.0,40,0.00,,---,0.29,VWS V14.01,2013-04-03 20:19:00,
2013-04-03 14:20:00,44.2,22.6,30.33,West,278,11.0,13.0,42,0.00,,---,0.29,VWS V14.01,2013-04-03 20:20:00,
2013-04-03 14:21:00,44.2,23.1,30.33,West,275,5.0,11.0,43,0.00,,---,0.29,VWS V14.01,2013-04-03 20:21:00,
2013-04-03 14:22:00,44.3,23.8,30.33,WNW,298,1.0,7.0,44,0.00,,---,0.29,VWS V14.01,2013-04-03 20:22:00,
2013-04-03 14:23:00,44.3,23.2,30.33,NW,311,7.0,8.0,43,0.00,,---,0.29,VWS V14.01,2013-04-03 20:23:00,
2013-04-03 14:24:00,44.3,23.8,30.33,WNW,298,1.0,7.0,44,0.00,,---,0.29,VWS V14.01,2013-04-03 20:24:00,
2013-04-03 14:25:00,44.6,24.6,30.33,NNW,346,1.0,5.0,45,0.00,,---,0.29,VWS V14.01,2013-04-03 20:25:00,
2013-04-03 14:26:00,44.7,25.2,30.33,WSW,246,8.0,8.0,46,0.00,,---,0.29,VWS V14.01,2013-04-03 20:26:00,
2013-04-03 14:27:00,44.9,24.9,30.33,WSW,252,8.0,12.0,45,0.00,,---,0.29,VWS V14.01,2013-04-03 20:27:00,
2013-04-03 14:28:00,45.0,23.9,30.33,WNW,287,8.0,11.0,43,0.00,,---,0.29,VWS V14.01,2013-04-03 20:28:00,
2013-04-03 14:29:00,44.9,24.9,30.33,WSW,252,8.0,12.0,45,0.00,,---,0.29,VWS V14.01,2013-04-03 20:29:00,
2013-04-03 14:30:00,45.1,24.0,30.32,West,277,9.0,21.0,43,0.00,,---,0.29,VWS V14.01,2013-04-03 20:30:00,
2013-04-03 14:31:00,45.1,25.0,30.32,WSW,242,10.0,11.0,45,0.00,,---,0.29,VWS V14.01,2013-04-03 20:31:00,
2013-04-03 14:32:00,45.2,25.1,30.32,WSW,250,13.0,15.0,45,0.00,,---,0.29,VWS V14.01,2013-04-03 20:32:00,
2013-04-03 14:33:00,45.3,25.2,30.32,SSW,202,8.0,13.0,45,0.00,,---,0.29,VWS V14.01,2013-04-03 20:33:00,
2013-04-03 14:34:00,45.2,25.1,30.32,SSW,209,13.0,13.0,45,0.00,,---,0.29,VWS V14.01,2013-04-03 20:34:00,
2013-04-03 14:35:00,45.6,25.5,30.32,WSW,245,13.0,13.0,45,0.00,,---,0.29,VWS V14.01,2013-04-03 20:35:00,
2013-04-03 14:36:00,45.8,25.1,30.32,West,277,8.0,16.0,44,0.00,,---,0.29,VWS V14.01,2013-04-03 20:36:00,
2013-04-03 14:37:00,45.9,25.2,30.32,WSW,243,7.0,12.0,44,0.00,,---,0.29,VWS V14.01,2013-04-03 20:37:00,
2013-04-03 14:38:00,46.1,24.9,30.32,WNW,286,4.0,11.0,43,0.00,,---,0.29,VWS V14.01,2013-04-03 20:38:00,
2013-04-03 14:39:00,46.0,26.4,30.32,SW,234,8.0,8.0,46,0.00,,---,0.29,VWS V14.01,2013-04-03 20:39:00,
2013-04-03 14:40:00,46.2,25.0,30.32,WSW,257,10.0,15.0,43,0.00,,---,0.29,VWS V14.01,2013-04-03 20:40:00,
2013-04-03 14:41:00,46.3,24.5,30.32,WNW,292,4.0,12.0,42,0.00,,---,0.29,VWS V14.01,2013-04-03 20:41:00,
2013-04-03 14:42:00,46.3,24.5,30.32,WNW,293,5.0,8.0,42,0.00,,---,0.29,VWS V14.01,2013-04-03 20:42:00,
2013-04-03 14:43:00,46.4,24.0,30.32,WSW,254,11.0,11.0,41,0.00,,---,0.29,VWS V14.01,2013-04-03 20:43:00,
2013-04-03 14:44:00,46.4,24.6,30.32,West,271,6.0,10.0,42,0.00,,---,0.29,VWS V14.01,2013-04-03 20:44:00,
2013-04-03 14:45:00,46.4,25.7,30.32,West,272,22.0,22.0,44,0.00,,---,0.29,VWS V14.01,2013-04-03 20:45:00,
2013-04-03 14:46:00,46.4,24.0,30.32,WNW,302,14.0,22.0,41,0.00,,---,0.29,VWS V14.01,2013-04-03 20:46:00,
2013-04-03 14:47:00,46.4,24.0,30.32,West,279,7.0,16.0,41,0.00,,---,0.29,VWS V14.01,2013-04-03 20:47:00,
2013-04-03 14:48:00,46.3,23.3,30.32,WSW,238,10.0,15.0,40,0.00,,---,0.29,VWS V14.01,2013-04-03 20:48:00,
2013-04-03 14:49:00,46.4,23.4,30.32,WSW,257,9.0,15.0,40,0.00,,---,0.29,VWS V14.01,2013-04-03 20:49:00,
2013-04-03 14:50:00,46.2,25.0,30.32,SW,223,5.0,10.0,43,0.00,,---,0.29,VWS V14.01,2013-04-03 20:50:00,
2013-04-03 14:51:00,46.1,24.3,30.31,WSW,252,11.0,16.0,42,0.00,,---,0.29,VWS V14.01,2013-04-03 20:51:00,
2013-04-03 14:52:00,45.9,23.0,30.31,SSE,163,7.0,19.0,40,0.00,,---,0.29,VWS V14.01,2013-04-03 20:52:00,
2013-04-03 14:53:00,45.7,24.5,30.32,WSW,256,7.0,10.0,43,0.00,,---,0.29,VWS V14.01,2013-04-03 20:53:00,
2013-04-03 14:54:00,45.8,24.6,30.31,WSW,258,8.0,10.0,43,0.00,,---,0.29,VWS V14.01,2013-04-03 20:54:00,
2013-04-03 14:55:00,45.4,24.8,30.32,WSW,246,10.0,18.0,44,0.00,,---,0.29,VWS V14.01,2013-04-03 20:55:00,
2013-04-03 14:56:00,45.4,25.3,30.32,SSW,208,9.0,10.0,45,0.00,,---,0.29,VWS V14.01,2013-04-03 20:56:00,
2013-04-03 14:57:00,45.5,23.8,30.32,WSW,251,15.0,15.0,42,0.00,,---,0.29,VWS V14.01,2013-04-03 20:57:00,
2013-04-03 14:58:00,45.5,23.8,30.32,West,277,8.0,15.0,42,0.00,,---,0.29,VWS V14.01,2013-04-03 20:58:00,
2013-04-03 14:59:00,45.5,23.8,30.32,WSW,244,6.0,15.0,42,0.00,,---,0.29,VWS V14.01,2013-04-03 20:59:00,
2013-04-03 15:00:00,45.8,26.2,30.32,West,267,12.0,15.0,46,0.00,,---,0.29,VWS V14.01,2013-04-03 21:00:00,
2013-04-03 15:01:00,45.9,23.5,30.31,SSW,208,6.0,12.0,41,0.00,,---,0.29,VWS V14.01,2013-04-03 21:01:00,
2013-04-03 15:02:00,45.9,24.1,30.31,SW,216,4.0,24.0,42,0.00,,---,0.29,VWS V14.01,2013-04-03 21:02:00,
2013-04-03 15:03:00,46.0,24.2,30.31,SW,224,2.0,10.0,42,0.00,,---,0.29,VWS V14.01,2013-04-03 21:03:00,
2013-04-03 15:04:00,46.1,26.0,30.31,SSW,198,6.0,6.0,45,0.00,,---,0.29,VWS V14.01,2013-04-03 21:04:00,
2013-04-03 15:05:00,46.0,24.2,30.31,SW,224,2.0,10.0,42,0.00,,---,0.29,VWS V14.01,2013-04-03 21:05:00,
2013-04-03 15:06:00,46.3,25.0,30.31,SW,221,11.0,13.0,43,0.00,,---,0.29,VWS V14.01,2013-04-03 21:06:00,
2013-04-03 15:07:00,46.4,26.8,30.31,West,261,6.0,12.0,46,0.00,,---,0.29,VWS V14.01,2013-04-03 21:07:00,
2013-04-03 15:08:00,46.6,24.8,30.31,SW,223,10.0,13.0,42,0.00,,---,0.29,VWS V14.01,2013-04-03 21:08:00,
2013-04-03 15:09:00,46.7,24.3,30.31,SW,232,12.0,18.0,41,0.00,,---,0.29,VWS V14.01,2013-04-03 21:09:00,
2013-04-03 15:10:00,46.6,24.8,30.31,SW,236,5.0,13.0,42,0.00,,---,0.29,VWS V14.01,2013-04-03 21:10:00,
2013-04-03 15:11:00,46.8,24.4,30.31,West,260,9.0,14.0,41,0.00,,---,0.29,VWS V14.01,2013-04-03 21:11:00,
2013-04-03 15:12:00,46.8,24.9,30.31,West,259,11.0,13.0,42,0.00,,---,0.29,VWS V14.01,2013-04-03 21:12:00,
2013-04-03 15:13:00,46.8,23.8,30.31,SSW,209,7.0,18.0,40,0.00,,---,0.29,VWS V14.01,2013-04-03 21:13:00,
2013-04-03 15:14:00,46.7,24.8,30.31,SW,233,13.0,13.0,42,0.00,,---,0.29,VWS V14.01,2013-04-03 21:14:00,
2013-04-03 15:15:00,46.8,23.8,30.31,SSW,209,7.0,18.0,40,0.00,,---,0.29,VWS V14.01,2013-04-03 21:15:00,
2013-04-03 15:16:00,46.7,24.8,30.31,SW,230,7.0,12.0,42,0.00,,---,0.29,VWS V14.01,2013-04-03 21:16:00,
2013-04-03 15:17:00,46.7,24.8,30.31,WSW,246,6.0,11.0,42,0.00,,---,0.29,VWS V14.01,2013-04-03 21:17:00,
2013-04-03 15:18:00,46.8,26.0,30.31,SW,234,9.0,15.0,44,0.00,,---,0.29,VWS V14.01,2013-04-03 21:18:00,
2013-04-03 15:19:00,46.7,24.3,30.31,WNW,290,9.0,13.0,41,0.00,,---,0.29,VWS V14.01,2013-04-03 21:19:00,
2013-04-03 15:20:00,46.8,26.0,30.31,SW,234,9.0,15.0,44,0.00,,---,0.29,VWS V14.01,2013-04-03 21:20:00,
2013-04-03 15:21:00,46.8,25.5,30.31,WSW,237,9.0,15.0,43,0.00,,---,0.29,VWS V14.01,2013-04-03 21:21:00,
2013-04-03 15:22:00,46.8,24.4,30.31,SSW,210,14.0,16.0,41,0.00,,---,0.29,VWS V14.01,2013-04-03 21:22:00,
2013-04-03 15:23:00,46.8,23.8,30.31,West,262,6.0,14.0,40,0.00,,---,0.29,VWS V14.01,2013-04-03 21:23:00,
2013-04-03 15:24:00,46.7,25.4,30.31,NW,304,6.0,13.0,43,0.00,,---,0.29,VWS V14.01,2013-04-03 21:24:00,
2013-04-03 15:25:00,46.8,23.8,30.31,West,262,6.0,14.0,40,0.00,,---,0.29,VWS V14.01,2013-04-03 21:25:00,
2013-04-03 15:26:00,46.9,25.0,30.31,WSW,237,7.0,14.0,42,0.00,,---,0.29,VWS V14.01,2013-04-03 21:26:00,
2013-04-03 15:27:00,47.0,26.8,30.31,NNW,348,6.0,10.0,45,0.00,,---,0.29,VWS V14.01,2013-04-03 21:27:00,
2013-04-03 15:28:00,47.1,25.2,30.31,WSW,250,15.0,21.0,42,0.00,,---,0.29,VWS V14.01,2013-04-03 21:28:00,
2013-04-03 15:29:00,47.2,24.7,30.31,WNW,286,8.0,21.0,41,0.00,,---,0.29,VWS V14.01,2013-04-03 21:29:00,
2013-04-03 15:30:00,47.1,25.2,30.31,WSW,250,15.0,21.0,42,0.00,,---,0.29,VWS V14.01,2013-04-03 21:30:00,
2013-04-03 15:31:00,47.1,25.2,30.31,SW,229,11.0,15.0,42,0.00,,---,0.29,VWS V14.01,2013-04-03 21:31:00,
2013-04-03 15:32:00,47.1,24.0,30.31,West,265,4.0,11.0,40,0.00,,---,0.29,VWS V14.01,2013-04-03 21:32:00,
2013-04-03 15:33:00,47.1,24.6,30.31,SW,215,13.0,16.0,41,0.00,,---,0.29,VWS V14.01,2013-04-03 21:33:00,
2013-04-03 15:34:00,47.1,24.0,30.31,WSW,255,4.0,13.0,40,0.00,,---,0.29,VWS V14.01,2013-04-03 21:34:00,
2013-04-03 15:35:00,47.1,24.6,30.31,SW,215,13.0,16.0,41,0.00,,---,0.29,VWS V14.01,2013-04-03 21:35:00,
2013-04-03 15:36:00,47.1,24.6,30.31,WNW,295,5.0,20.0,41,0.00,,---,0.29,VWS V14.01,2013-04-03 21:36:00,
2013-04-03 15:37:00,47.1,24.6,30.31,WSW,254,8.0,11.0,41,0.00,,---,0.29,VWS V14.01,2013-04-03 21:37:00,
2013-04-03 15:38:00,47.1,24.6,30.31,WSW,240,8.0,16.0,41,0.00,,---,0.29,VWS V14.01,2013-04-03 21:38:00,
2013-04-03 15:39:00,47.2,25.3,30.31,West,266,8.0,9.0,42,0.00,,---,0.29,VWS V14.01,2013-04-03 21:39:00,
2013-04-03 15:40:00,47.1,24.6,30.31,WSW,240,8.0,16.0,41,0.00,,---,0.29,VWS V14.01,2013-04-03 21:40:00,
2013-04-03 15:41:00,47.3,24.2,30.31,SW,229,4.0,14.0,40,0.00,,---,0.29,VWS V14.01,2013-04-03 21:41:00,
2013-04-03 15:42:00,47.4,24.9,30.31,SW,221,8.0,8.0,41,0.00,,---,0.29,VWS V14.01,2013-04-03 21:42:00,
2013-04-03 15:43:00,47.4,23.7,30.31,SW,215,6.0,13.0,39,0.00,,---,0.29,VWS V14.01,2013-04-03 21:43:00,
2013-04-03 15:44:00,47.5,24.4,30.31,WSW,246,6.0,10.0,40,0.00,,---,0.29,VWS V14.01,2013-04-03 21:44:00,
2013-04-03 15:45:00,47.4,23.7,30.31,SW,215,6.0,13.0,39,0.00,,---,0.29,VWS V14.01,2013-04-03 21:45:00,
2013-04-03 15:46:00,47.5,24.4,30.30,West,275,6.0,12.0,40,0.00,,---,0.29,VWS V14.01,2013-04-03 21:46:00,
2013-04-03 15:47:00,47.6,25.1,30.31,West,277,5.0,12.0,41,0.00,,---,0.29,VWS V14.01,2013-04-03 21:47:00,
2013-04-03 15:48:00,47.6,25.1,30.31,SW,221,6.0,8.0,41,0.00,,---,0.29,VWS V14.01,2013-04-03 21:48:00,
2013-04-03 15:49:00,47.7,25.8,30.31,West,263,7.0,8.0,42,0.00,,---,0.29,VWS V14.01,2013-04-03 21:49:00,
2013-04-03 15:50:00,47.6,25.1,30.31,SW,221,6.0,8.0,41,0.00,,---,0.29,VWS V14.01,2013-04-03 21:50:00,
2013-04-03 15:51:00,47.8,24.1,30.31,WNW,286,9.0,12.0,39,0.00,,---,0.29,VWS V14.01,2013-04-03 21:51:00,
2013-04-03 15:52:00,47.7,24.0,30.31,WNW,296,10.0,13.0,39,0.00,,---,0.29,VWS V14.01,2013-04-03 21:52:00,
2013-04-03 15:53:00,47.7,24.0,30.31,WNW,290,6.0,14.0,39,0.00,,---,0.29,VWS V14.01,2013-04-03 21:53:00,
2013-04-03 15:54:00,47.5,23.2,30.30,WSW,252,13.0,19.0,38,0.00,,---,0.29,VWS V14.01,2013-04-03 21:54:00,
2013-04-03 15:55:00,47.7,24.0,30.31,WNW,290,6.0,14.0,39,0.00,,---,0.29,VWS V14.01,2013-04-03 21:55:00,
2013-04-03 15:56:00,47.2,22.9,30.31,WNW,299,16.0,18.0,38,0.00,,---,0.29,VWS V14.01,2013-04-03 21:56:00,
2013-04-03 15:57:00,47.1,23.4,30.31,WSW,254,13.0,16.0,39,0.00,,---,0.29,VWS V14.01,2013-04-03 21:57:00,
2013-04-03 15:59:00,47.1,25.2,30.30,West,259,18.0,18.0,42,0.00,,---,0.29,VWS V14.01,2013-04-03 21:59:00,
2013-04-03 16:00:00,47.0,24.0,30.30,WSW,239,7.0,13.0,40,0.00,,---,0.29,VWS V14.01,2013-04-03 22:00:00,
2013-04-03 16:02:00,46.9,23.2,30.30,West,271,16.0,21.0,39,0.00,,---,0.29,VWS V14.01,2013-04-03 22:02:00,
2013-04-03 16:03:00,46.8,23.8,30.30,WSW,244,10.0,21.0,40,0.00,,---,0.29,VWS V14.01,2013-04-03 22:03:00,
2013-04-03 16:04:00,46.7,24.3,30.30,WSW,237,9.0,16.0,41,0.00,,---,0.29,VWS V14.01,2013-04-03 22:04:00,
2013-04-03 16:05:00,46.8,23.8,30.30,WSW,244,10.0,21.0,40,0.00,,---,0.29,VWS V14.01,2013-04-03 22:05:00,
2013-04-03 16:06:00,46.6,24.2,30.30,West,275,6.0,10.0,41,0.00,,---,0.29,VWS V14.01,2013-04-03 22:06:00,
2013-04-03 16:07:00,46.6,24.8,30.30,WNW,288,5.0,12.0,42,0.00,,---,0.29,VWS V14.01,2013-04-03 22:07:00,
2013-04-03 16:08:00,46.7,25.4,30.30,WNW,284,8.0,12.0,43,0.00,,---,0.29,VWS V14.01,2013-04-03 22:08:00,
2013-04-03 16:09:00,46.8,25.5,30.30,WSW,248,10.0,16.0,43,0.00,,---,0.29,VWS V14.01,2013-04-03 22:09:00,
2013-04-03 16:10:00,46.7,25.4,30.30,WNW,284,8.0,12.0,43,0.00,,---,0.29,VWS V14.01,2013-04-03 22:10:00,
2013-04-03 16:11:00,47.0,25.1,30.30,SSW,207,9.0,15.0,42,0.00,,---,0.29,VWS V14.01,2013-04-03 22:11:00,
2013-04-03 16:12:00,47.0,24.5,30.30,West,259,13.0,13.0,41,0.00,,---,0.29,VWS V14.01,2013-04-03 22:12:00,
2013-04-03 16:13:00,47.0,24.0,30.30,SW,236,10.0,16.0,40,0.00,,---,0.29,VWS V14.01,2013-04-03 22:13:00,
2013-04-03 16:14:00,46.9,24.5,30.30,SSW,212,9.0,14.0,41,0.00,,---,0.29,VWS V14.01,2013-04-03 22:14:00,
2013-04-03 16:15:00,47.0,24.0,30.30,West,278,11.0,11.0,40,0.00,,---,0.29,VWS V14.01,2013-04-03 22:15:00,
2013-04-03 16:16:00,46.7,24.3,30.30,SW,233,11.0,13.0,41,0.00,,---,0.29,VWS V14.01,2013-04-03 22:16:00,
2013-04-03 16:17:00,46.6,24.2,30.30,SSW,201,10.0,15.0,41,0.00,,---,0.29,VWS V14.01,2013-04-03 22:17:00,
2013-04-03 16:18:00,46.5,24.7,30.30,WSW,240,14.0,14.0,42,0.00,,---,0.29,VWS V14.01,2013-04-03 22:18:00,
2013-04-03 16:19:00,46.5,24.1,30.30,West,279,6.0,14.0,41,0.00,,---,0.29,VWS V14.01,2013-04-03 22:19:00,
2013-04-03 16:20:00,46.5,24.7,30.30,SW,233,14.0,14.0,42,0.00,,---,0.29,VWS V14.01,2013-04-03 22:20:00,
2013-04-03 16:21:00,46.5,24.7,30.30,WSW,257,10.0,12.0,42,0.00,,---,0.29,VWS V14.01,2013-04-03 22:21:00,
2013-04-03 16:22:00,46.5,24.7,30.30,SSW,193,18.0,18.0,42,0.00,,---,0.29,VWS V14.01,2013-04-03 22:22:00,
2013-04-03 16:23:00,46.5,24.7,30.30,SW,232,6.0,18.0,42,0.00,,---,0.29,VWS V14.01,2013-04-03 22:23:00,
2013-04-03 16:24:00,46.5,24.7,30.30,WSW,241,21.0,21.0,42,0.00,,---,0.29,VWS V14.01,2013-04-03 22:24:00,
2013-04-03 16:25:00,46.5,24.7,30.30,SSW,204,7.0,7.0,42,0.00,,---,0.29,VWS V14.01,2013-04-03 22:25:00,
2013-04-03 16:26:00,46.5,24.1,30.30,SW,223,18.0,18.0,41,0.00,,---,0.29,VWS V14.01,2013-04-03 22:26:00,
2013-04-03 16:27:00,46.4,24.0,30.30,SSW,209,7.0,18.0,41,0.00,,---,0.29,VWS V14.01,2013-04-03 22:27:00,
2013-04-03 16:28:00,46.4,24.0,30.29,SW,231,14.0,19.0,41,0.00,,---,0.29,VWS V14.01,2013-04-03 22:28:00,
2013-04-03 16:29:00,46.3,23.3,30.29,SSW,211,7.0,14.0,40,0.00,,---,0.29,VWS V14.01,2013-04-03 22:29:00,
2013-04-03 16:30:00,46.4,22.8,30.29,SSW,200,10.0,14.0,39,0.00,,---,0.29,VWS V14.01,2013-04-03 22:30:00,
2013-04-03 16:32:00,46.4,24.6,30.29,West,261,11.0,20.0,42,0.00,,---,0.29,VWS V14.01,2013-04-03 22:32:00,
2013-04-03 16:33:00,46.4,24.0,30.29,SW,229,6.0,11.0,41,0.00,,---,0.29,VWS V14.01,2013-04-03 22:33:00,
2013-04-03 16:34:00,46.4,24.0,30.29,SSW,211,9.0,11.0,41,0.00,,---,0.29,VWS V14.01,2013-04-03 22:34:00,
2013-04-03 16:35:00,46.4,24.0,30.29,SW,219,5.0,8.0,41,0.00,,---,0.29,VWS V14.01,2013-04-03 22:35:00,
2013-04-03 16:36:00,46.5,24.1,30.29,WNW,289,10.0,19.0,41,0.00,,---,0.29,VWS V14.01,2013-04-03 22:36:00,
2013-04-03 16:37:00,46.6,24.2,30.29,West,267,14.0,15.0,41,0.00,,---,0.29,VWS V14.01,2013-04-03 22:37:00,
2013-04-03 16:38:00,46.6,23.6,30.29,West,265,10.0,14.0,40,0.00,,---,0.29,VWS V14.01,2013-04-03 22:38:00,
2013-04-03 16:39:00,46.6,24.2,30.29,WSW,257,18.0,20.0,41,0.00,,---,0.29,VWS V14.01,2013-04-03 22:39:00,
2013-04-03 16:40:00,46.6,23.6,30.29,WSW,246,11.0,11.0,40,0.00,,---,0.29,VWS V14.01,2013-04-03 22:40:00,
2013-04-03 16:41:00,46.5,22.9,30.29,WSW,243,9.0,16.0,39,0.00,,---,0.29,VWS V14.01,2013-04-03 22:41:00,
2013-04-03 16:42:00,46.4,22.8,30.29,WSW,252,9.0,19.0,39,0.00,,---,0.29,VWS V14.01,2013-04-03 22:42:00,
2013-04-03 16:43:00,46.4,23.4,30.30,WSW,248,4.0,11.0,40,0.00,,---,0.29,VWS V14.01,2013-04-03 22:43:00,
2013-04-03 16:44:00,46.4,24.0,30.30,SW,214,9.0,10.0,41,0.00,,---,0.29,VWS V14.01,2013-04-03 22:44:00,
2013-04-03 16:45:00,46.4,23.4,30.30,SW,215,7.0,9.0,40,0.00,,---,0.29,VWS V14.01,2013-04-03 22:45:00,
2013-04-03 16:46:00,46.6,23.6,30.29,WSW,253,6.0,12.0,40,0.00,,---,0.29,VWS V14.01,2013-04-03 22:46:00,
2013-04-03 16:47:00,46.6,23.6,30.30,WNW,288,6.0,8.0,40,0.00,,---,0.29,VWS V14.01,2013-04-03 22:47:00,
2013-04-03 16:48:00,46.7,23.1,30.30,WSW,240,8.0,13.0,39,0.00,,---,0.29,VWS V14.01,2013-04-03 22:48:00,
2013-04-03 16:49:00,46.8,24.4,30.30,WNW,300,11.0,11.0,41,0.00,,---,0.29,VWS V14.01,2013-04-03 22:49:00,
2013-04-03 16:50:00,46.7,23.1,30.30,WSW,257,8.0,10.0,39,0.00,,---,0.29,VWS V14.01,2013-04-03 22:50:00,
2013-04-03 16:51:00,46.9,24.5,30.30,WSW,240,8.0,12.0,41,0.00,,---,0.29,VWS V14.01,2013-04-03 22:51:00,
2013-04-03 16:52:00,47.0,25.1,30.30,West,268,0.0,12.0,42,0.00,,---,0.29,VWS V14.01,2013-04-03 22:52:00,
2013-04-03 16:53:00,47.2,24.1,30.30,WNW,291,13.0,15.0,40,0.00,,---,0.29,VWS V14.01,2013-04-03 22:53:00,
2013-04-03 16:54:00,47.2,24.1,30.29,WNW,290,13.0,15.0,40,0.00,,---,0.29,VWS V14.01,2013-04-03 22:54:00,
2013-04-03 16:55:00,47.2,24.1,30.30,WNW,282,4.0,13.0,40,0.00,,---,0.29,VWS V14.01,2013-04-03 22:55:00,
2013-04-03 16:56:00,47.1,23.4,30.29,WNW,288,5.0,10.0,39,0.00,,---,0.29,VWS V14.01,2013-04-03 22:56:00,
2013-04-03 16:57:00,47.1,24.0,30.29,WSW,240,9.0,10.0,40,0.00,,---,0.29,VWS V14.01,2013-04-03 22:57:00,
2013-04-03 16:58:00,47.2,24.7,30.29,South,190,6.0,12.0,41,0.00,,---,0.29,VWS V14.01,2013-04-03 22:58:00,
2013-04-03 16:59:00,47.2,25.3,30.29,West,267,5.0,9.0,42,0.00,,---,0.29,VWS V14.01,2013-04-03 22:59:00,
2013-04-03 17:00:00,47.2,24.7,30.29,SSW,209,5.0,9.0,41,0.00,,---,0.29,VWS V14.01,2013-04-03 23:00:00,
2013-04-03 17:01:00,47.4,24.3,30.29,SW,226,15.0,15.0,40,0.00,,---,0.29,VWS V14.01,2013-04-03 23:01:00,
2013-04-03 17:02:00,47.4,24.3,30.29,WSW,252,3.0,15.0,40,0.00,,---,0.29,VWS V14.01,2013-04-03 23:02:00,
2013-04-03 17:03:00,47.4,24.9,30.29,West,275,10.0,14.0,41,0.00,,---,0.29,VWS V14.01,2013-04-03 23:03:00,
2013-04-03 17:04:00,47.4,23.7,30.29,WNW,286,16.0,16.0,39,0.00,,---,0.29,VWS V14.01,2013-04-03 23:04:00,
2013-04-03 17:05:00,47.4,23.7,30.29,West,267,4.0,11.0,39,0.00,,---,0.29,VWS V14.01,2013-04-03 23:05:00,
2013-04-03 17:06:00,47.3,24.2,30.29,SSW,211,5.0,10.0,40,0.00,,---,0.29,VWS V14.01,2013-04-03 23:06:00,
2013-04-03 17:07:00,47.3,24.2,30.29,SW,224,10.0,13.0,40,0.00,,---,0.29,VWS V14.01,2013-04-03 23:07:00,
2013-04-03 17:08:00,47.2,24.1,30.29,WNW,282,5.0,11.0,40,0.00,,---,0.29,VWS V14.01,2013-04-03 23:08:00,
2013-04-03 17:09:00,47.3,23.6,30.29,WNW,288,9.0,15.0,39,0.00,,---,0.29,VWS V14.01,2013-04-03 23:09:00,
2013-04-03 17:10:00,47.2,23.5,30.29,West,264,10.0,15.0,39,0.00,,---,0.29,VWS V14.01,2013-04-03 23:10:00,
2013-04-03 17:11:00,47.1,22.8,30.29,WSW,258,12.0,16.0,38,0.00,,---,0.29,VWS V14.01,2013-04-03 23:11:00,
2013-04-03 17:12:00,47.0,23.3,30.29,WSW,257,7.0,12.0,39,0.00,,---,0.29,VWS V14.01,2013-04-03 23:12:00,
2013-04-03 17:13:00,46.9,23.2,30.29,West,279,16.0,16.0,39,0.00,,---,0.29,VWS V14.01,2013-04-03 23:13:00,
2013-04-03 17:14:00,46.9,23.2,30.29,West,274,10.0,16.0,39,0.00,,---,0.29,VWS V14.01,2013-04-03 23:14:00,
2013-04-03 17:15:00,46.9,23.3,30.29,WSW,250,14.0,16.0,39,0.00,,---,0.29,VWS V14.01,2013-04-03 23:15:00,
2013-04-03 17:16:00,46.6,22.4,30.29,NW,311,9.0,18.0,38,0.00,,---,0.29,VWS V14.01,2013-04-03 23:16:00,
2013-04-03 17:17:00,46.4,22.8,30.29,WSW,243,7.0,22.0,39,0.00,,---,0.29,VWS V14.01,2013-04-03 23:17:00,
2013-04-03 17:18:00,46.2,23.2,30.29,WNW,284,13.0,16.0,40,0.00,,---,0.29,VWS V14.01,2013-04-03 23:18:00,
2013-04-03 17:19:00,46.2,23.2,30.29,WSW,250,14.0,14.0,40,0.00,,---,0.29,VWS V14.01,2013-04-03 23:19:00,
2013-04-03 17:20:00,46.2,23.2,30.29,SSW,211,10.0,14.0,40,0.00,,---,0.29,VWS V14.01,2013-04-03 23:20:00,
2013-04-03 17:21:00,46.0,23.6,30.29,WNW,295,6.0,12.0,41,0.00,,---,0.29,VWS V14.01,2013-04-03 23:21:00,
2013-04-03 17:22:00,46.0,23.0,30.28,SW,220,12.0,15.0,40,0.00,,---,0.29,VWS V14.01,2013-04-03 23:22:00,
2013-04-03 17:23:00,46.0,23.0,30.28,SW,225,11.0,16.0,40,0.00,,---,0.29,VWS V14.01,2013-04-03 23:23:00,
2013-04-03 17:24:00,46.0,23.0,30.29,WNW,300,8.0,11.0,40,0.00,,---,0.29,VWS V14.01,2013-04-03 23:24:00,
2013-04-03 17:25:00,46.0,23.0,30.28,WSW,254,1.0,11.0,40,0.00,,---,0.29,VWS V14.01,2013-04-03 23:25:00,
2013-04-03 17:26:00,46.1,23.1,30.28,SSW,195,5.0,7.0,40,0.00,,---,0.29,VWS V14.01,2013-04-03 23:26:00,
2013-04-03 17:27:00,46.2,22.6,30.29,SSW,201,10.0,13.0,39,0.00,,---,0.29,VWS V14.01,2013-04-03 23:27:00,
2013-04-03 17:28:00,46.2,22.6,30.28,WSW,244,5.0,15.0,39,0.00,,---,0.29,VWS V14.01,2013-04-03 23:28:00,
2013-04-03 17:29:00,46.2,22.6,30.28,West,261,3.0,10.0,39,0.00,,---,0.29,VWS V14.01,2013-04-03 23:29:00,
2013-04-03 17:30:00,46.2,22.6,30.28,SW,236,5.0,10.0,39,0.00,,---,0.29,VWS V14.01,2013-04-03 23:30:00,
2013-04-03 17:31:00,46.3,23.3,30.28,West,281,8.0,13.0,40,0.00,,---,0.29,VWS V14.01,2013-04-03 23:31:00,
2013-04-03 17:32:00,46.4,22.8,30.28,SSW,198,1.0,14.0,39,0.00,,---,0.29,VWS V14.01,2013-04-03 23:32:00,
2013-04-03 17:33:00,46.4,22.8,30.28,SW,227,5.0,10.0,39,0.00,,---,0.29,VWS V14.01,2013-04-03 23:33:00,
2013-04-03 17:34:00,46.4,22.8,30.29,WSW,250,7.0,12.0,39,0.00,,---,0.29,VWS V14.01,2013-04-03 23:34:00,
2013-04-03 17:35:00,46.3,22.7,30.28,SW,234,8.0,9.0,39,0.00,,---,0.29,VWS V14.01,2013-04-03 23:35:00,
2013-04-03 17:36:00,46.4,22.8,30.28,South,186,5.0,9.0,39,0.00,,---,0.29,VWS V14.01,2013-04-03 23:36:00,
2013-04-03 17:37:00,46.4,23.4,30.29,South,189,6.0,6.0,40,0.00,,---,0.29,VWS V14.01,2013-04-03 23:37:00,
2013-04-03 17:38:00,46.4,22.8,30.29,WSW,250,13.0,13.0,39,0.00,,---,0.29,VWS V14.01,2013-04-03 23:38:00,
2013-04-03 17:39:00,46.4,22.2,30.28,SSW,207,6.0,13.0,38,0.00,,---,0.29,VWS V14.01,2013-04-03 23:39:00,
2013-04-03 17:40:00,46.4,22.2,30.29,West,281,6.0,13.0,38,0.00,,---,0.29,VWS V14.01,2013-04-03 23:40:00,
2013-04-03 17:41:00,46.4,22.8,30.29,WNW,290,2.0,10.0,39,0.00,,---,0.29,VWS V14.01,2013-04-03 23:41:00,
2013-04-03 17:42:00,46.4,23.4,30.29,WSW,250,7.0,12.0,40,0.00,,---,0.29,VWS V14.01,2013-04-03 23:42:00,
2013-04-03 17:43:00,46.4,22.8,30.29,WSW,255,7.0,16.0,39,0.00,,---,0.29,VWS V14.01,2013-04-03 23:43:00,
2013-04-03 17:44:00,46.4,22.8,30.29,WSW,244,10.0,14.0,39,0.00,,---,0.29,VWS V14.01,2013-04-03 23:44:00,
2013-04-03 17:45:00,46.4,22.2,30.29,WSW,248,11.0,18.0,38,0.00,,---,0.29,VWS V14.01,2013-04-03 23:45:00,
2013-04-03 17:46:00,46.4,22.8,30.29,WSW,244,10.0,14.0,39,0.00,,---,0.29,VWS V14.01,2013-04-03 23:46:00,
2013-04-03 17:47:00,46.3,22.1,30.29,SW,225,11.0,16.0,38,0.00,,---,0.29,VWS V14.01,2013-04-03 23:47:00,
2013-04-03 17:48:00,46.2,22.0,30.28,WSW,248,8.0,15.0,38,0.00,,---,0.29,VWS V14.01,2013-04-03 23:48:00,
2013-04-03 17:49:00,46.1,22.5,30.29,WSW,248,8.0,14.0,39,0.00,,---,0.29,VWS V14.01,2013-04-03 23:49:00,
2013-04-03 17:50:00,46.1,21.9,30.29,SW,225,9.0,13.0,38,0.00,,---,0.29,VWS V14.01,2013-04-03 23:50:00,
2013-04-03 17:52:00,45.9,22.4,30.29,WNW,292,5.0,11.0,39,0.00,,---,0.29,VWS V14.01,2013-04-03 23:52:00,
2013-04-03 17:53:00,45.9,22.4,30.29,SW,225,7.0,11.0,39,0.00,,---,0.29,VWS V14.01,2013-04-03 23:53:00,
2013-04-03 17:54:00,45.8,21.6,30.29,WSW,248,11.0,15.0,38,0.00,,---,0.29,VWS V14.01,2013-04-03 23:54:00,
2013-04-03 17:55:00,45.8,21.6,30.28,WSW,248,9.0,14.0,38,0.00,,---,0.29,VWS V14.01,2013-04-03 23:55:00,
2013-04-03 17:58:00,45.5,21.4,30.28,WSW,248,8.0,12.0,38,0.00,,---,0.29,VWS V14.01,2013-04-03 23:58:00,
2013-04-03 17:59:00,45.5,22.6,30.28,SSW,202,4.0,9.0,40,0.00,,---,0.29,VWS V14.01,2013-04-03 23:59:00,
2013-04-03 18:00:00,45.5,22.0,30.29,SW,225,5.0,12.0,39,0.00,,---,0.29,VWS V14.01,2013-04-04 00:00:00,
2013-04-03 18:01:00,45.6,22.1,30.28,SW,225,5.0,11.0,39,0.00,,---,0.29,VWS V14.01,2013-04-04 00:01:00,
2013-04-03 18:02:00,45.6,22.1,30.28,WSW,248,7.0,11.0,39,0.00,,---,0.29,VWS V14.01,2013-04-04 00:02:00,
2013-04-03 18:03:00,45.6,21.5,30.28,West,270,11.0,16.0,38,0.00,,---,0.29,VWS V14.01,2013-04-04 00:03:00,
2013-04-03 18:04:00,45.5,21.4,30.28,WSW,248,11.0,16.0,38,0.00,,---,0.29,VWS V14.01,2013-04-04 00:04:00,
2013-04-03 18:05:00,45.4,21.3,30.28,SSW,202,8.0,15.0,38,0.00,,---,0.29,VWS V14.01,2013-04-04 00:05:00,
2013-04-03 18:06:00,45.3,21.8,30.28,WNW,292,7.0,12.0,39,0.00,,---,0.29,VWS V14.01,2013-04-04 00:06:00,
2013-04-03 18:07:00,45.2,21.7,30.28,WNW,292,8.0,12.0,39,0.00,,---,0.29,VWS V14.01,2013-04-04 00:07:00,
2013-04-03 18:08:00,45.1,21.0,30.28,WSW,248,6.0,9.0,38,0.00,,---,0.29,VWS V14.01,2013-04-04 00:08:00,
2013-04-03 18:09:00,45.0,20.9,30.28,WSW,248,9.0,14.0,38,0.00,,---,0.29,VWS V14.01,2013-04-04 00:09:00,
2013-04-03 18:10:00,44.8,21.4,30.28,West,270,6.0,10.0,39,0.00,,---,0.29,VWS V14.01,2013-04-04 00:10:00,
2013-04-03 18:11:00,44.7,21.3,30.28,West,270,2.0,5.0,39,0.00,,---,0.29,VWS V14.01,2013-04-04 00:11:00,
2013-04-03 18:12:00,44.7,21.9,30.28,WNW,292,5.0,8.0,40,0.00,,---,0.29,VWS V14.01,2013-04-04 00:12:00,
2013-04-03 18:13:00,44.6,22.4,30.28,WSW,248,3.0,7.0,41,0.00,,---,0.29,VWS V14.01,2013-04-04 00:13:00,
2013-04-03 18:14:00,44.6,22.4,30.28,WSW,248,6.0,12.0,41,0.00,,---,0.29,VWS V14.01,2013-04-04 00:14:00,
2013-04-03 18:15:00,44.5,21.1,30.28,SW,225,7.0,10.0,39,0.00,,---,0.29,VWS V14.01,2013-04-04 00:15:00,
2013-04-03 18:16:00,44.4,21.0,30.28,West,270,4.0,7.0,39,0.00,,---,0.29,VWS V14.01,2013-04-04 00:16:00,
2013-04-03 18:17:00,44.3,21.5,30.28,SW,225,9.0,15.0,40,0.00,,---,0.29,VWS V14.01,2013-04-04 00:17:00,
2013-04-03 18:18:00,44.2,21.4,30.28,WSW,248,10.0,16.0,40,0.00,,---,0.29,VWS V14.01,2013-04-04 00:18:00,
2013-04-03 18:19:00,44.1,21.3,30.28,SW,225,11.0,19.0,40,0.00,,---,0.29,VWS V14.01,2013-04-04 00:19:00,
2013-04-03 18:20:00,44.0,21.2,30.28,SW,225,8.0,20.0,40,0.00,,---,0.29,VWS V14.01,2013-04-04 00:20:00,
2013-04-03 18:21:00,43.8,21.6,30.28,SW,225,3.0,13.0,41,0.00,,---,0.29,VWS V14.01,2013-04-04 00:21:00,
2013-04-03 18:22:00,43.7,21.6,30.28,WSW,248,10.0,16.0,41,0.00,,---,0.29,VWS V14.01,2013-04-04 00:22:00,
2013-04-03 18:23:00,43.5,21.4,30.28,West,270,8.0,14.0,41,0.00,,---,0.29,VWS V14.01,2013-04-04 00:23:00,
2013-04-03 18:24:00,43.4,21.3,30.28,WSW,248,7.0,12.0,41,0.00,,---,0.29,VWS V14.01,2013-04-04 00:24:00,
2013-04-03 18:25:00,43.3,21.8,30.28,WSW,248,8.0,11.0,42,0.00,,---,0.29,VWS V14.01,2013-04-04 00:25:00,
2013-04-03 18:26:00,43.2,21.1,30.28,WSW,248,5.0,9.0,41,0.00,,---,0.29,VWS V14.01,2013-04-04 00:26:00,
2013-04-03 18:27:00,43.2,21.1,30.28,WSW,248,11.0,16.0,41,0.00,,---,0.29,VWS V14.01,2013-04-04 00:27:00,
2013-04-03 18:28:00,43.1,21.0,30.28,SSW,202,7.0,12.0,41,0.00,,---,0.29,VWS V14.01,2013-04-04 00:28:00,
2013-04-03 18:29:00,43.1,21.6,30.28,WSW,248,9.0,15.0,42,0.00,,---,0.29,VWS V14.01,2013-04-04 00:29:00,
2013-04-03 18:30:00,43.0,21.5,30.28,West,270,7.0,11.0,42,0.00,,---,0.29,VWS V14.01,2013-04-04 00:30:00,
2013-04-03 18:31:00,42.9,21.4,30.28,West,270,4.0,10.0,42,0.00,,---,0.29,VWS V14.01,2013-04-04 00:31:00,
2013-04-03 18:32:00,42.9,20.8,30.29,WSW,248,8.0,14.0,41,0.00,,---,0.29,VWS V14.01,2013-04-04 00:32:00,
2013-04-03 18:33:00,42.9,20.8,30.28,WSW,248,10.0,18.0,41,0.00,,---,0.29,VWS V14.01,2013-04-04 00:33:00,
2013-04-03 18:34:00,42.9,21.4,30.29,West,270,8.0,11.0,42,0.00,,---,0.29,VWS V14.01,2013-04-04 00:34:00,
2013-04-03 18:35:00,42.9,21.4,30.29,WSW,248,7.0,13.0,42,0.00,,---,0.29,VWS V14.01,2013-04-04 00:35:00,
2013-04-03 18:36:00,42.9,21.4,30.29,SW,225,8.0,12.0,42,0.00,,---,0.29,VWS V14.01,2013-04-04 00:36:00,
2013-04-03 18:37:00,42.9,21.4,30.29,West,270,7.0,12.0,42,0.00,,---,0.29,VWS V14.01,2013-04-04 00:37:00,
2013-04-03 18:38:00,42.9,20.8,30.29,WNW,292,6.0,14.0,41,0.00,,---,0.29,VWS V14.01,2013-04-04 00:38:00,
2013-04-03 18:39:00,42.9,21.4,30.29,SW,225,7.0,13.0,42,0.00,,---,0.29,VWS V14.01,2013-04-04 00:39:00,
2013-04-03 18:40:00,42.8,20.8,30.29,WSW,248,4.0,7.0,41,0.00,,---,0.29,VWS V14.01,2013-04-04 00:40:00,
2013-04-03 18:41:00,42.8,21.3,30.29,WSW,248,5.0,9.0,42,0.00,,---,0.29,VWS V14.01,2013-04-04 00:41:00,
2013-04-03 18:42:00,42.7,21.2,30.29,SW,225,3.0,7.0,42,0.00,,---,0.29,VWS V14.01,2013-04-04 00:42:00,
2013-04-03 18:43:00,42.7,21.2,30.29,SSW,202,2.0,5.0,42,0.00,,---,0.29,VWS V14.01,2013-04-04 00:43:00,
2013-04-03 18:44:00,42.7,21.2,30.29,SSW,202,3.0,5.0,42,0.00,,---,0.29,VWS V14.01,2013-04-04 00:44:00,
2013-04-03 18:45:00,42.6,21.1,30.29,SSW,202,7.0,12.0,42,0.00,,---,0.29,VWS V14.01,2013-04-04 00:45:00,
2013-04-03 18:46:00,42.5,21.6,30.29,SSW,202,0.0,3.0,43,0.00,,---,0.29,VWS V14.01,2013-04-04 00:46:00,
2013-04-03 18:47:00,42.5,22.1,30.29,West,270,5.0,9.0,44,0.00,,---,0.29,VWS V14.01,2013-04-04 00:47:00,
2013-04-03 18:48:00,42.4,21.5,30.29,WNW,292,3.0,5.0,43,0.00,,---,0.29,VWS V14.01,2013-04-04 00:48:00,
2013-04-03 18:49:00,42.3,21.4,30.30,WNW,292,0.0,2.0,43,0.00,,---,0.29,VWS V14.01,2013-04-04 00:49:00,
2013-04-03 18:50:00,42.2,21.3,30.30,WNW,292,1.0,3.0,43,0.00,,---,0.29,VWS V14.01,2013-04-04 00:50:00,
2013-04-03 18:51:00,42.2,21.3,30.30,WNW,292,4.0,10.0,43,0.00,,---,0.29,VWS V14.01,2013-04-04 00:51:00,
2013-04-03 18:52:00,42.1,21.8,30.30,WNW,292,3.0,8.0,44,0.00,,---,0.29,VWS V14.01,2013-04-04 00:52:00,
2013-04-03 18:53:00,42.0,21.7,30.29,West,270,6.0,10.0,44,0.00,,---,0.29,VWS V14.01,2013-04-04 00:53:00,
2013-04-03 18:54:00,41.9,21.0,30.30,WSW,248,7.0,10.0,43,0.00,,---,0.29,VWS V14.01,2013-04-04 00:54:00,
2013-04-03 18:55:00,41.8,21.0,30.30,WSW,248,6.0,10.0,43,0.00,,---,0.29,VWS V14.01,2013-04-04 00:55:00,
2013-04-03 18:56:00,41.7,20.9,30.30,WSW,248,3.0,6.0,43,0.00,,---,0.29,VWS V14.01,2013-04-04 00:56:00,
2013-04-03 18:57:00,41.6,21.3,30.30,WNW,292,4.0,13.0,44,0.00,,---,0.29,VWS V14.01,2013-04-04 00:57:00,
2013-04-03 18:58:00,41.5,21.2,30.30,West,270,4.0,7.0,44,0.00,,---,0.29,VWS V14.01,2013-04-04 00:58:00,
2013-04-03 18:59:00,41.4,21.1,30.30,West,270,5.0,9.0,44,0.00,,---,0.29,VWS V14.01,2013-04-04 00:59:00,
2013-04-03 19:00:00,41.3,21.6,30.30,WSW,248,4.0,7.0,45,0.00,,---,0.29,VWS V14.01,2013-04-04 01:00:00,
2013-04-03 19:01:00,41.2,21.0,30.30,WSW,248,1.0,2.0,44,0.00,,---,0.29,VWS V14.01,2013-04-04 01:01:00,
2013-04-03 19:02:00,41.1,21.4,30.30,SW,225,4.0,7.0,45,0.00,,---,0.29,VWS V14.01,2013-04-04 01:02:00,
2013-04-03 19:03:00,41.0,20.8,30.30,SW,225,1.0,4.0,44,0.00,,---,0.29,VWS V14.01,2013-04-04 01:03:00,
2013-04-03 19:04:00,40.9,21.2,30.30,SW,225,3.0,7.0,45,0.00,,---,0.29,VWS V14.01,2013-04-04 01:04:00,
2013-04-03 19:05:00,40.8,21.1,30.30,WSW,248,4.0,6.0,45,0.00,,---,0.29,VWS V14.01,2013-04-04 01:05:00,
2013-04-03 19:06:00,40.7,21.5,30.30,SW,225,3.0,7.0,46,0.00,,---,0.29,VWS V14.01,2013-04-04 01:06:00,
2013-04-03 19:07:00,40.6,21.5,30.30,WSW,248,5.0,9.0,46,0.00,,---,0.29,VWS V14.01,2013-04-04 01:07:00,
2013-04-03 19:08:00,40.5,20.9,30.30,WSW,248,1.0,4.0,45,0.00,,---,0.29,VWS V14.01,2013-04-04 01:08:00,
2013-04-03 19:09:00,40.4,21.3,30.30,WSW,248,2.0,5.0,46,0.00,,---,0.29,VWS V14.01,2013-04-04 01:09:00,
2013-04-03 19:10:00,40.2,21.1,30.30,WSW,248,1.0,5.0,46,0.00,,---,0.29,VWS V14.01,2013-04-04 01:10:00,
2013-04-03 19:11:00,40.2,21.1,30.30,WSW,248,1.0,5.0,46,0.00,,---,0.29,VWS V14.01,2013-04-04 01:11:00,
2013-04-03 19:12:00,40.1,21.5,30.30,WSW,248,1.0,3.0,47,0.00,,---,0.29,VWS V14.01,2013-04-04 01:12:00,
2013-04-03 19:13:00,40.0,20.9,30.30,WSW,248,2.0,4.0,46,0.00,,---,0.29,VWS V14.01,2013-04-04 01:13:00,
2013-04-03 19:14:00,40.0,21.4,30.30,WSW,248,1.0,4.0,47,0.00,,---,0.29,VWS V14.01,2013-04-04 01:14:00,
2013-04-03 19:15:00,39.9,21.3,30.30,WSW,248,0.0,0.0,47,0.00,,---,0.29,VWS V14.01,2013-04-04 01:15:00,
2013-04-03 19:16:00,39.8,21.7,30.30,NW,315,4.0,6.0,48,0.00,,---,0.29,VWS V14.01,2013-04-04 01:16:00,
2013-04-03 19:17:00,39.8,21.2,30.30,NW,315,1.0,3.0,47,0.00,,---,0.29,VWS V14.01,2013-04-04 01:17:00,
2013-04-03 19:18:00,39.8,21.7,30.30,WNW,292,1.0,4.0,48,0.00,,---,0.29,VWS V14.01,2013-04-04 01:18:00,
2013-04-03 19:19:00,39.7,21.6,30.30,WNW,292,0.0,1.0,48,0.00,,---,0.29,VWS V14.01,2013-04-04 01:19:00,
2013-04-03 19:20:00,39.7,21.6,30.30,WNW,292,0.0,2.0,48,0.00,,---,0.29,VWS V14.01,2013-04-04 01:20:00,
2013-04-03 19:21:00,39.6,22.0,30.30,WNW,292,1.0,2.0,49,0.00,,---,0.29,VWS V14.01,2013-04-04 01:21:00,
2013-04-03 19:22:00,39.6,22.0,30.30,WNW,292,0.0,1.0,49,0.00,,---,0.29,VWS V14.01,2013-04-04 01:22:00,
2013-04-03 19:23:00,39.6,22.0,30.30,WNW,292,0.0,0.0,49,0.00,,---,0.29,VWS V14.01,2013-04-04 01:23:00,
2013-04-03 19:24:00,39.5,21.9,30.30,WNW,292,0.0,0.0,49,0.00,,---,0.29,VWS V14.01,2013-04-04 01:24:00,
2013-04-03 19:25:00,39.5,21.9,30.30,WNW,292,0.0,0.0,49,0.00,,---,0.29,VWS V14.01,2013-04-04 01:25:00,
2013-04-03 19:26:00,39.5,22.4,30.30,WNW,292,0.0,2.0,50,0.00,,---,0.29,VWS V14.01,2013-04-04 01:26:00,
2013-04-03 19:27:00,39.4,21.8,30.30,WNW,292,0.0,1.0,49,0.00,,---,0.29,VWS V14.01,2013-04-04 01:27:00,
2013-04-03 19:28:00,39.3,21.8,30.30,WNW,292,0.0,0.0,49,0.00,,---,0.29,VWS V14.01,2013-04-04 01:28:00,
2013-04-03 19:29:00,39.3,22.2,30.30,WNW,292,0.0,0.0,50,0.00,,---,0.29,VWS V14.01,2013-04-04 01:29:00,
2013-04-03 19:30:00,39.3,22.7,30.30,WNW,292,0.0,0.0,51,0.00,,---,0.29,VWS V14.01,2013-04-04 01:30:00,
2013-04-03 19:31:00,39.3,22.7,30.30,WNW,292,0.0,0.0,51,0.00,,---,0.29,VWS V14.01,2013-04-04 01:31:00,
2013-04-03 19:32:00,39.2,23.1,30.30,WNW,292,0.0,0.0,52,0.00,,---,0.29,VWS V14.01,2013-04-04 01:32:00,
2013-04-03 19:33:00,39.2,23.1,30.30,WNW,292,0.0,0.0,52,0.00,,---,0.29,VWS V14.01,2013-04-04 01:33:00,
2013-04-03 19:34:00,39.1,23.4,30.30,WNW,292,0.0,0.0,53,0.00,,---,0.29,VWS V14.01,2013-04-04 01:34:00,
2013-04-03 19:35:00,39.1,23.0,30.30,WNW,292,0.0,2.0,52,0.00,,---,0.29,VWS V14.01,2013-04-04 01:35:00,
2013-04-03 19:36:00,39.0,22.9,30.30,WNW,292,1.0,3.0,52,0.00,,---,0.29,VWS V14.01,2013-04-04 01:36:00,
2013-04-03 19:37:00,38.9,22.8,30.30,WNW,292,1.0,4.0,52,0.00,,---,0.29,VWS V14.01,2013-04-04 01:37:00,
2013-04-03 19:38:00,38.8,22.7,30.29,WNW,292,2.0,4.0,52,0.00,,---,0.29,VWS V14.01,2013-04-04 01:38:00,
2013-04-03 19:39:00,38.8,22.7,30.29,WNW,292,0.0,3.0,52,0.00,,---,0.29,VWS V14.01,2013-04-04 01:39:00,
2013-04-03 19:40:00,38.7,22.6,30.30,WNW,292,0.0,0.0,52,0.00,,---,0.29,VWS V14.01,2013-04-04 01:40:00,
2013-04-03 19:41:00,38.6,22.5,30.30,WNW,292,0.0,2.0,52,0.00,,---,0.29,VWS V14.01,2013-04-04 01:41:00,
2013-04-03 19:42:00,38.6,22.5,30.29,WNW,292,1.0,4.0,52,0.00,,---,0.29,VWS V14.01,2013-04-04 01:42:00,
2013-04-03 19:43:00,38.5,22.4,30.29,WNW,292,1.0,3.0,52,0.00,,---,0.29,VWS V14.01,2013-04-04 01:43:00,
2013-04-03 19:44:00,38.4,22.3,30.30,WNW,292,3.0,8.0,52,0.00,,---,0.29,VWS V14.01,2013-04-04 01:44:00,
2013-04-03 19:45:00,38.3,22.2,30.29,NW,315,3.0,5.0,52,0.00,,---,0.29,VWS V14.01,2013-04-04 01:45:00,
2013-04-03 19:46:00,38.2,22.1,30.30,WNW,292,3.0,5.0,52,0.00,,---,0.29,VWS V14.01,2013-04-04 01:46:00,
2013-04-03 19:47:00,38.1,21.6,30.29,WNW,292,6.0,10.0,51,0.00,,---,0.29,VWS V14.01,2013-04-04 01:47:00,
2013-04-03 19:48:00,38.0,22.0,30.30,WNW,292,4.0,9.0,52,0.00,,---,0.29,VWS V14.01,2013-04-04 01:48:00,
2013-04-03 19:49:00,38.0,22.0,30.30,WNW,292,1.0,4.0,52,0.00,,---,0.29,VWS V14.01,2013-04-04 01:49:00,
2013-04-03 19:50:00,37.9,22.3,30.30,West,270,6.0,14.0,53,0.00,,---,0.29,VWS V14.01,2013-04-04 01:50:00,
2013-04-03 19:51:00,37.9,22.3,30.30,NW,315,5.0,9.0,53,0.00,,---,0.29,VWS V14.01,2013-04-04 01:51:00,
2013-04-03 19:52:00,37.8,22.2,30.29,West,270,5.0,8.0,53,0.00,,---,0.29,VWS V14.01,2013-04-04 01:52:00,
2013-04-03 19:53:00,37.7,22.6,30.30,West,270,4.0,8.0,54,0.00,,---,0.29,VWS V14.01,2013-04-04 01:53:00,
2013-04-03 19:54:00,37.7,22.6,30.29,NW,315,0.0,2.0,54,0.00,,---,0.29,VWS V14.01,2013-04-04 01:54:00,
2013-04-03 19:55:00,37.7,23.0,30.30,NW,315,0.0,1.0,55,0.00,,---,0.29,VWS V14.01,2013-04-04 01:55:00,
2013-04-03 19:56:00,37.6,22.9,30.30,West,270,3.0,6.0,55,0.00,,---,0.29,VWS V14.01,2013-04-04 01:56:00,
2013-04-03 19:57:00,37.5,22.4,30.30,West,270,2.0,6.0,54,0.00,,---,0.29,VWS V14.01,2013-04-04 01:57:00,
2013-04-03 19:58:00,37.5,22.4,30.29,West,270,1.0,6.0,54,0.00,,---,0.29,VWS V14.01,2013-04-04 01:58:00,
2013-04-03 19:59:00,37.4,22.7,30.30,West,270,1.0,4.0,55,0.00,,---,0.29,VWS V14.01,2013-04-04 01:59:00,
2013-04-03 20:00:00,37.4,22.7,30.30,WNW,292,3.0,5.0,55,0.00,,---,0.29,VWS V14.01,2013-04-04 02:00:00,
2013-04-03 20:01:00,37.4,22.7,30.30,WNW,292,1.0,4.0,55,0.00,,---,0.29,VWS V14.01,2013-04-04 02:01:00,
2013-04-03 20:02:00,37.3,22.6,30.30,NW,315,3.0,6.0,55,0.00,,---,0.29,VWS V14.01,2013-04-04 02:02:00,
2013-04-03 20:03:00,37.2,23.0,30.30,NW,315,3.0,5.0,56,0.00,,---,0.29,VWS V14.01,2013-04-04 02:03:00,
2013-04-03 20:04:00,37.2,22.5,30.30,NW,315,2.0,6.0,55,0.00,,---,0.29,VWS V14.01,2013-04-04 02:04:00,
2013-04-03 20:05:00,37.1,22.4,30.30,NW,315,2.0,4.0,55,0.00,,---,0.29,VWS V14.01,2013-04-04 02:05:00,
2013-04-03 20:06:00,37.1,23.3,30.30,West,270,2.0,6.0,57,0.00,,---,0.29,VWS V14.01,2013-04-04 02:06:00,
2013-04-03 20:07:00,37.0,22.8,30.30,SW,225,4.0,7.0,56,0.00,,---,0.29,VWS V14.01,2013-04-04 02:07:00,
2013-04-03 20:08:00,37.0,22.8,30.30,WNW,292,4.0,7.0,56,0.00,,---,0.29,VWS V14.01,2013-04-04 02:08:00,
2013-04-03 20:09:00,36.9,22.7,30.30,West,270,3.0,7.0,56,0.00,,---,0.29,VWS V14.01,2013-04-04 02:09:00,
2013-04-03 20:10:00,36.8,22.6,30.30,West,270,3.0,6.0,56,0.00,,---,0.29,VWS V14.01,2013-04-04 02:10:00,
2013-04-03 20:11:00,36.7,22.5,30.30,NW,315,2.0,6.0,56,0.00,,---,0.29,VWS V14.01,2013-04-04 02:11:00,
2013-04-03 20:12:00,36.7,22.9,30.30,North,0,2.0,5.0,57,0.00,,---,0.29,VWS V14.01,2013-04-04 02:12:00,
2013-04-03 20:13:00,36.6,22.8,30.30,WNW,292,6.0,12.0,57,0.00,,---,0.29,VWS V14.01,2013-04-04 02:13:00,
2013-04-03 20:14:00,36.5,22.7,30.30,SW,225,1.0,7.0,57,0.00,,---,0.29,VWS V14.01,2013-04-04 02:14:00,
2013-04-03 20:15:00,36.4,22.6,30.30,WNW,292,5.0,10.0,57,0.00,,---,0.29,VWS V14.01,2013-04-04 02:15:00,
2013-04-03 20:16:00,36.4,22.6,30.30,West,270,4.0,7.0,57,0.00,,---,0.29,VWS V14.01,2013-04-04 02:16:00,
2013-04-03 20:17:00,36.4,22.2,30.30,West,270,4.0,7.0,56,0.00,,---,0.29,VWS V14.01,2013-04-04 02:17:00,
2013-04-03 20:18:00,36.3,22.5,30.30,NW,315,3.0,5.0,57,0.00,,---,0.29,VWS V14.01,2013-04-04 02:18:00,
2013-04-03 20:19:00,36.3,23.0,30.30,WNW,292,5.0,6.0,58,0.00,,---,0.29,VWS V14.01,2013-04-04 02:19:00,
2013-04-03 20:20:00,36.2,22.5,30.31,West,270,4.0,6.0,57,0.00,,---,0.29,VWS V14.01,2013-04-04 02:20:00,
2013-04-03 20:21:00,36.2,22.5,30.31,WNW,292,3.0,5.0,57,0.00,,---,0.29,VWS V14.01,2013-04-04 02:21:00,
2013-04-03 20:22:00,36.1,22.4,30.31,WNW,292,4.0,7.0,57,0.00,,---,0.29,VWS V14.01,2013-04-04 02:22:00,
2013-04-03 20:23:00,36.1,22.4,30.30,NW,315,4.0,6.0,57,0.00,,---,0.29,VWS V14.01,2013-04-04 02:23:00,
2013-04-03 20:24:00,36.1,22.4,30.31,NW,315,4.0,6.0,57,0.00,,---,0.29,VWS V14.01,2013-04-04 02:24:00,
2013-04-03 20:25:00,36.0,22.3,30.31,WNW,292,2.0,4.0,57,0.00,,---,0.29,VWS V14.01,2013-04-04 02:25:00,
2013-04-03 20:26:00,36.0,22.3,30.31,WSW,248,6.0,8.0,57,0.00,,---,0.29,VWS V14.01,2013-04-04 02:26:00,
2013-04-03 20:27:00,35.9,22.2,30.31,West,270,2.0,4.0,57,0.00,,---,0.29,VWS V14.01,2013-04-04 02:27:00,
2013-04-03 20:28:00,35.9,22.2,30.31,NW,315,6.0,8.0,57,0.00,,---,0.29,VWS V14.01,2013-04-04 02:28:00,
2013-04-03 20:29:00,35.9,22.2,30.31,NW,315,4.0,6.0,57,0.00,,---,0.29,VWS V14.01,2013-04-04 02:29:00,
2013-04-03 20:30:00,35.8,22.5,30.31,North,0,5.0,9.0,58,0.00,,---,0.29,VWS V14.01,2013-04-04 02:30:00,
2013-04-03 20:31:00,35.8,22.5,30.31,WNW,292,3.0,7.0,58,0.00,,---,0.29,VWS V14.01,2013-04-04 02:31:00,
2013-04-03 20:32:00,35.8,22.9,30.31,NW,315,4.0,6.0,59,0.00,,---,0.29,VWS V14.01,2013-04-04 02:32:00,
2013-04-03 20:33:00,35.7,22.4,30.31,WNW,292,5.0,7.0,58,0.00,,---,0.29,VWS V14.01,2013-04-04 02:33:00,
2013-04-03 20:34:00,35.7,22.4,30.31,NW,315,3.0,5.0,58,0.00,,---,0.29,VWS V14.01,2013-04-04 02:34:00,
2013-04-03 20:35:00,35.6,21.9,30.31,NW,315,3.0,5.0,57,0.00,,---,0.29,VWS V14.01,2013-04-04 02:35:00,
2013-04-03 20:36:00,35.6,21.9,30.31,WNW,292,5.0,7.0,57,0.00,,---,0.29,VWS V14.01,2013-04-04 02:36:00,
2013-04-03 20:37:00,35.5,21.8,30.31,WNW,292,3.0,7.0,57,0.00,,---,0.29,VWS V14.01,2013-04-04 02:37:00,
2013-04-03 20:38:00,35.5,22.2,30.31,WNW,292,2.0,4.0,58,0.00,,---,0.29,VWS V14.01,2013-04-04 02:38:00,
2013-04-03 20:39:00,35.4,21.7,30.31,WNW,292,1.0,2.0,57,0.00,,---,0.29,VWS V14.01,2013-04-04 02:39:00,
2013-04-03 20:40:00,35.4,22.1,30.31,WNW,292,1.0,4.0,58,0.00,,---,0.29,VWS V14.01,2013-04-04 02:40:00,
2013-04-03 20:41:00,35.3,22.0,30.31,WNW,292,0.0,0.0,58,0.00,,---,0.29,VWS V14.01,2013-04-04 02:41:00,
2013-04-03 20:42:00,35.3,22.0,30.31,WNW,292,0.0,1.0,58,0.00,,---,0.29,VWS V14.01,2013-04-04 02:42:00,
2013-04-03 20:43:00,35.3,22.0,30.31,WNW,292,1.0,2.0,58,0.00,,---,0.29,VWS V14.01,2013-04-04 02:43:00,
2013-04-03 20:44:00,35.2,21.9,30.31,WNW,292,0.0,0.0,58,0.00,,---,0.29,VWS V14.01,2013-04-04 02:44:00,
2013-04-03 20:45:00,35.2,21.9,30.31,WNW,292,0.0,0.0,58,0.00,,---,0.29,VWS V14.01,2013-04-04 02:45:00,
2013-04-03 20:46:00,35.2,22.3,30.31,WNW,292,0.0,1.0,59,0.00,,---,0.29,VWS V14.01,2013-04-04 02:46:00,
2013-04-03 20:47:00,35.1,21.8,30.31,WNW,292,1.0,2.0,58,0.00,,---,0.29,VWS V14.01,2013-04-04 02:47:00,
2013-04-03 20:48:00,35.0,21.3,30.31,WSW,248,3.0,6.0,57,0.00,,---,0.29,VWS V14.01,2013-04-04 02:48:00,
2013-04-03 20:49:00,35.0,21.3,30.32,WSW,248,3.0,9.0,57,0.00,,---,0.29,VWS V14.01,2013-04-04 02:49:00,
2013-04-03 20:50:00,34.9,21.6,30.32,West,270,2.0,5.0,58,0.00,,---,0.29,VWS V14.01,2013-04-04 02:50:00,
2013-04-03 20:51:00,34.9,21.6,30.32,West,270,0.0,0.0,58,0.00,,---,0.29,VWS V14.01,2013-04-04 02:51:00,
2013-04-03 20:52:00,34.9,21.6,30.32,West,270,0.0,1.0,58,0.00,,---,0.29,VWS V14.01,2013-04-04 02:52:00,
2013-04-03 20:53:00,34.8,21.5,30.32,West,270,0.0,1.0,58,0.00,,---,0.29,VWS V14.01,2013-04-04 02:53:00,
2013-04-03 20:54:00,34.8,21.5,30.32,West,270,0.0,0.0,58,0.00,,---,0.29,VWS V14.01,2013-04-04 02:54:00,
2013-04-03 20:55:00,34.8,21.5,30.32,West,270,0.0,2.0,58,0.00,,---,0.29,VWS V14.01,2013-04-04 02:55:00,
2013-04-03 20:56:00,34.7,21.0,30.32,West,270,0.0,1.0,57,0.00,,---,0.29,VWS V14.01,2013-04-04 02:56:00,
2013-04-03 20:57:00,34.7,21.0,30.32,West,270,0.0,0.0,57,0.00,,---,0.29,VWS V14.01,2013-04-04 02:57:00,
2013-04-03 20:58:00,34.7,21.0,30.32,West,270,0.0,2.0,57,0.00,,---,0.29,VWS V14.01,2013-04-04 02:58:00,
2013-04-03 20:59:00,34.6,21.0,30.32,West,270,1.0,2.0,57,0.00,,---,0.29,VWS V14.01,2013-04-04 02:59:00,
2013-04-03 21:00:00,34.6,21.0,30.32,West,270,1.0,2.0,57,0.00,,---,0.29,VWS V14.01,2013-04-04 03:00:00,
2013-04-03 21:01:00,34.6,21.4,30.32,West,270,0.0,0.0,58,0.00,,---,0.29,VWS V14.01,2013-04-04 03:01:00,
2013-04-03 21:02:00,34.5,20.9,30.32,West,270,2.0,5.0,57,0.00,,---,0.29,VWS V14.01,2013-04-04 03:02:00,
2013-04-03 21:03:00,34.4,20.8,30.32,West,270,0.0,1.0,57,0.00,,---,0.29,VWS V14.01,2013-04-04 03:03:00,
2013-04-03 21:04:00,34.3,21.1,30.32,West,270,0.0,2.0,58,0.00,,---,0.29,VWS V14.01,2013-04-04 03:04:00,
2013-04-03 21:05:00,34.3,21.1,30.32,West,270,0.0,2.0,58,0.00,,---,0.29,VWS V14.01,2013-04-04 03:05:00,
2013-04-03 21:06:00,34.2,20.6,30.32,WNW,292,1.0,3.0,57,0.00,,---,0.29,VWS V14.01,2013-04-04 03:06:00,
2013-04-03 21:07:00,34.2,20.6,30.32,WNW,292,4.0,6.0,57,0.00,,---,0.29,VWS V14.01,2013-04-04 03:07:00,
2013-04-03 21:08:00,34.1,20.5,30.32,WNW,292,1.0,3.0,57,0.00,,---,0.29,VWS V14.01,2013-04-04 03:08:00,
2013-04-03 21:09:00,34.1,20.5,30.32,WNW,292,0.0,1.0,57,0.00,,---,0.29,VWS V14.01,2013-04-04 03:09:00,
2013-04-03 21:10:00,34.0,20.4,30.32,WNW,292,0.0,1.0,57,0.00,,---,0.29,VWS V14.01,2013-04-04 03:10:00,
2013-04-03 21:11:00,34.0,20.4,30.32,WNW,292,2.0,6.0,57,0.00,,---,0.29,VWS V14.01,2013-04-04 03:11:00,
2013-04-03 21:12:00,33.9,19.9,30.32,WNW,292,2.0,8.0,56,0.00,,---,0.29,VWS V14.01,2013-04-04 03:12:00,
2013-04-03 21:13:00,33.9,19.9,30.32,West,270,5.0,6.0,56,0.00,,---,0.29,VWS V14.01,2013-04-04 03:13:00,
2013-04-03 21:14:00,33.9,19.9,30.32,NW,315,5.0,8.0,56,0.00,,---,0.29,VWS V14.01,2013-04-04 03:14:00,
2013-04-03 21:15:00,33.9,20.3,30.32,West,270,3.0,5.0,57,0.00,,---,0.29,VWS V14.01,2013-04-04 03:15:00,
2013-04-03 21:16:00,33.9,20.7,30.32,WNW,292,5.0,8.0,58,0.00,,---,0.29,VWS V14.01,2013-04-04 03:16:00,
2013-04-03 21:17:00,33.9,19.9,30.32,WSW,248,2.0,6.0,56,0.00,,---,0.29,VWS V14.01,2013-04-04 03:17:00,
2013-04-03 21:18:00,33.9,19.9,30.33,WSW,248,1.0,2.0,56,0.00,,---,0.29,VWS V14.01,2013-04-04 03:18:00,
2013-04-03 21:19:00,33.9,19.9,30.32,WNW,292,4.0,8.0,56,0.00,,---,0.29,VWS V14.01,2013-04-04 03:19:00,
2013-04-03 21:20:00,33.9,20.3,30.33,West,270,2.0,6.0,57,0.00,,---,0.29,VWS V14.01,2013-04-04 03:20:00,
2013-04-03 21:21:00,33.9,19.9,30.33,NW,315,3.0,5.0,56,0.00,,---,0.29,VWS V14.01,2013-04-04 03:21:00,
2013-04-03 21:22:00,33.9,19.9,30.33,NW,315,5.0,8.0,56,0.00,,---,0.29,VWS V14.01,2013-04-04 03:22:00,
2013-04-03 21:23:00,34.0,20.0,30.33,NW,315,4.0,6.0,56,0.00,,---,0.29,VWS V14.01,2013-04-04 03:23:00,
2013-04-03 21:24:00,34.0,20.0,30.33,North,0,2.0,4.0,56,0.00,,---,0.29,VWS V14.01,2013-04-04 03:24:00,
2013-04-03 21:25:00,34.0,20.0,30.33,North,0,4.0,7.0,56,0.00,,---,0.29,VWS V14.01,2013-04-04 03:25:00,
2013-04-03 21:26:00,34.0,20.0,30.33,NNW,338,4.0,6.0,56,0.00,,---,0.29,VWS V14.01,2013-04-04 03:26:00,
2013-04-03 21:27:00,34.0,20.0,30.33,NNW,338,3.0,5.0,56,0.00,,---,0.29,VWS V14.01,2013-04-04 03:27:00,
2013-04-03 21:28:00,34.0,20.0,30.33,NNW,338,4.0,6.0,56,0.00,,---,0.29,VWS V14.01,2013-04-04 03:28:00,
2013-04-03 21:29:00,34.0,20.0,30.33,North,0,2.0,5.0,56,0.00,,---,0.29,VWS V14.01,2013-04-04 03:29:00,
2013-04-03 21:30:00,34.0,19.5,30.33,NNW,338,1.0,4.0,55,0.00,,---,0.29,VWS V14.01,2013-04-04 03:30:00,
2013-04-03 21:31:00,34.0,19.5,30.33,NW,315,5.0,8.0,55,0.00,,---,0.29,VWS V14.01,2013-04-04 03:31:00,
2013-04-03 21:32:00,34.0,19.5,30.33,NNW,338,3.0,5.0,55,0.00,,---,0.29,VWS V14.01,2013-04-04 03:32:00,
2013-04-03 21:33:00,34.0,19.5,30.33,NNW,338,1.0,3.0,55,0.00,,---,0.29,VWS V14.01,2013-04-04 03:33:00,
2013-04-03 21:34:00,34.0,19.5,30.33,NNW,338,1.0,5.0,55,0.00,,---,0.29,VWS V14.01,2013-04-04 03:34:00,
2013-04-03 21:35:00,34.0,19.5,30.33,NNW,338,3.0,6.0,55,0.00,,---,0.29,VWS V14.01,2013-04-04 03:35:00,
2013-04-03 21:36:00,34.0,19.5,30.33,NW,315,1.0,3.0,55,0.00,,---,0.29,VWS V14.01,2013-04-04 03:36:00,
2013-04-03 21:37:00,34.0,19.5,30.34,NW,315,1.0,4.0,55,0.00,,---,0.29,VWS V14.01,2013-04-04 03:37:00,
2013-04-03 21:38:00,34.0,19.5,30.33,NW,315,3.0,6.0,55,0.00,,---,0.29,VWS V14.01,2013-04-04 03:38:00,
2013-04-03 21:39:00,34.0,19.5,30.33,NW,315,1.0,4.0,55,0.00,,---,0.29,VWS V14.01,2013-04-04 03:39:00,
2013-04-03 21:40:00,34.0,20.4,30.34,NW,315,3.0,5.0,57,0.00,,---,0.29,VWS V14.01,2013-04-04 03:40:00,
2013-04-03 21:41:00,34.0,19.5,30.33,NW,315,5.0,7.0,55,0.00,,---,0.29,VWS V14.01,2013-04-04 03:41:00,
2013-04-03 21:42:00,34.0,20.0,30.34,NNW,338,2.0,6.0,56,0.00,,---,0.29,VWS V14.01,2013-04-04 03:42:00,
2013-04-03 21:43:00,34.0,20.0,30.34,NW,315,3.0,6.0,56,0.00,,---,0.29,VWS V14.01,2013-04-04 03:43:00,
2013-04-03 21:44:00,33.9,20.3,30.34,WNW,292,4.0,6.0,57,0.00,,---,0.29,VWS V14.01,2013-04-04 03:44:00,
2013-04-03 21:45:00,33.9,20.3,30.34,WNW,292,4.0,9.0,57,0.00,,---,0.29,VWS V14.01,2013-04-04 03:45:00,
2013-04-03 21:46:00,33.9,19.9,30.34,West,270,6.0,8.0,56,0.00,,---,0.29,VWS V14.01,2013-04-04 03:46:00,
2013-04-03 21:47:00,33.9,19.9,30.34,NW,315,5.0,8.0,56,0.00,,---,0.29,VWS V14.01,2013-04-04 03:47:00,
2013-04-03 21:48:00,33.9,19.9,30.34,WSW,248,5.0,11.0,56,0.00,,---,0.29,VWS V14.01,2013-04-04 03:48:00,
2013-04-03 21:49:00,33.9,19.9,30.34,WNW,292,6.0,10.0,56,0.00,,---,0.29,VWS V14.01,2013-04-04 03:49:00,
2013-04-03 21:50:00,33.9,19.5,30.34,WNW,292,3.0,7.0,55,0.00,,---,0.29,VWS V14.01,2013-04-04 03:50:00,
2013-04-03 21:51:00,33.9,19.0,30.34,WNW,292,9.0,13.0,54,0.00,,---,0.29,VWS V14.01,2013-04-04 03:51:00,
2013-04-03 21:52:00,33.9,18.6,30.34,West,270,5.0,9.0,53,0.00,,---,0.29,VWS V14.01,2013-04-04 03:52:00,
2013-04-03 21:53:00,34.0,19.1,30.34,West,270,6.0,12.0,54,0.00,,---,0.29,VWS V14.01,2013-04-04 03:53:00,
2013-04-03 21:54:00,34.1,18.8,30.34,WNW,292,7.0,12.0,53,0.00,,---,0.29,VWS V14.01,2013-04-04 03:54:00,
2013-04-03 21:55:00,34.1,18.8,30.34,West,270,6.0,11.0,53,0.00,,---,0.29,VWS V14.01,2013-04-04 03:55:00,
2013-04-03 21:56:00,34.3,19.0,30.34,West,270,7.0,11.0,53,0.00,,---,0.29,VWS V14.01,2013-04-04 03:56:00,
2013-04-03 21:57:00,34.3,18.5,30.34,West,270,4.0,7.0,52,0.00,,---,0.29,VWS V14.01,2013-04-04 03:57:00,
2013-04-03 21:58:00,34.4,19.0,30.34,WNW,292,4.0,9.0,53,0.00,,---,0.29,VWS V14.01,2013-04-04 03:58:00,
2013-04-03 21:59:00,34.4,19.5,30.34,WNW,292,4.0,7.0,54,0.00,,---,0.29,VWS V14.01,2013-04-04 03:59:00,
2013-04-03 22:00:00,34.5,19.6,30.34,West,270,6.0,10.0,54,0.00,,---,0.29,VWS V14.01,2013-04-04 04:00:00,
2013-04-03 22:01:00,34.5,19.1,30.34,West,270,4.0,7.0,53,0.00,,---,0.29,VWS V14.01,2013-04-04 04:01:00,
2013-04-03 22:02:00,34.6,18.8,30.34,WNW,292,6.0,11.0,52,0.00,,---,0.29,VWS V14.01,2013-04-04 04:02:00,
2013-04-03 22:03:00,34.6,19.2,30.34,WNW,292,5.0,10.0,53,0.00,,---,0.29,VWS V14.01,2013-04-04 04:03:00,
2013-04-03 22:04:00,34.6,19.2,30.34,WNW,292,6.0,9.0,53,0.00,,---,0.29,VWS V14.01,2013-04-04 04:04:00,
2013-04-03 22:05:00,34.6,19.2,30.34,WNW,292,1.0,4.0,53,0.00,,---,0.29,VWS V14.01,2013-04-04 04:05:00,
2013-04-03 22:06:00,34.7,19.3,30.34,NW,315,2.0,7.0,53,0.00,,---,0.29,VWS V14.01,2013-04-04 04:06:00,
2013-04-03 22:07:00,34.7,19.3,30.34,NNW,338,6.0,13.0,53,0.00,,---,0.29,VWS V14.01,2013-04-04 04:07:00,
2013-04-03 22:08:00,34.7,18.9,30.34,West,270,7.0,11.0,52,0.00,,---,0.29,VWS V14.01,2013-04-04 04:08:00,
2013-04-03 22:09:00,34.7,18.4,30.34,West,270,4.0,9.0,51,0.00,,---,0.29,VWS V14.01,2013-04-04 04:09:00,
2013-04-03 22:10:00,34.8,18.5,30.33,SSW,202,2.0,7.0,51,0.00,,---,0.29,VWS V14.01,2013-04-04 04:10:00,
2013-04-03 22:11:00,34.8,18.5,30.34,NW,315,5.0,9.0,51,0.00,,---,0.29,VWS V14.01,2013-04-04 04:11:00,
2013-04-03 22:12:00,34.8,19.0,30.34,West,270,3.0,7.0,52,0.00,,---,0.29,VWS V14.01,2013-04-04 04:12:00,
2013-04-03 22:13:00,34.9,19.1,30.34,NW,315,4.0,12.0,52,0.00,,---,0.29,VWS V14.01,2013-04-04 04:13:00,
2013-04-03 22:14:00,34.8,18.5,30.34,WSW,248,8.0,13.0,51,0.00,,---,0.29,VWS V14.01,2013-04-04 04:14:00,
2013-04-03 22:15:00,34.9,18.2,30.34,West,270,12.0,16.0,50,0.00,,---,0.29,VWS V14.01,2013-04-04 04:15:00,
2013-04-03 22:16:00,35.0,18.2,30.34,WNW,292,6.0,12.0,50,0.00,,---,0.29,VWS V14.01,2013-04-04 04:16:00,
2013-04-03 22:17:00,35.0,18.7,30.33,NW,315,5.0,7.0,51,0.00,,---,0.29,VWS V14.01,2013-04-04 04:17:00,
2013-04-03 22:18:00,35.1,18.4,30.34,WNW,292,8.0,14.0,50,0.00,,---,0.29,VWS V14.01,2013-04-04 04:18:00,
2013-04-03 22:19:00,35.1,18.4,30.34,WNW,292,5.0,9.0,50,0.00,,---,0.29,VWS V14.01,2013-04-04 04:19:00,
2013-04-03 22:20:00,35.2,18.4,30.34,WNW,292,7.0,12.0,50,0.00,,---,0.29,VWS V14.01,2013-04-04 04:20:00,
2013-04-03 22:21:00,35.2,18.4,30.33,WSW,248,8.0,19.0,50,0.00,,---,0.29,VWS V14.01,2013-04-04 04:21:00,
2013-04-03 22:22:00,35.3,18.5,30.34,WNW,292,6.0,9.0,50,0.00,,---,0.29,VWS V14.01,2013-04-04 04:22:00,
2013-04-03 22:23:00,35.4,18.6,30.34,WSW,248,2.0,7.0,50,0.00,,---,0.29,VWS V14.01,2013-04-04 04:23:00,
2013-04-03 22:24:00,35.4,18.6,30.34,WNW,292,6.0,13.0,50,0.00,,---,0.29,VWS V14.01,2013-04-04 04:24:00,
2013-04-03 22:25:00,35.5,18.7,30.34,WSW,248,7.0,11.0,50,0.00,,---,0.29,VWS V14.01,2013-04-04 04:25:00,
2013-04-03 22:26:00,35.5,18.7,30.33,West,270,7.0,11.0,50,0.00,,---,0.29,VWS V14.01,2013-04-04 04:26:00,
2013-04-03 22:27:00,35.5,18.7,30.34,West,270,6.0,10.0,50,0.00,,---,0.29,VWS V14.01,2013-04-04 04:27:00,
2013-04-03 22:28:00,35.5,19.2,30.33,West,270,6.0,11.0,51,0.00,,---,0.29,VWS V14.01,2013-04-04 04:28:00,
2013-04-03 22:29:00,35.6,19.3,30.33,WSW,248,5.0,9.0,51,0.00,,---,0.29,VWS V14.01,2013-04-04 04:29:00,
2013-04-03 22:30:00,35.6,19.3,30.33,WSW,248,7.0,11.0,51,0.00,,---,0.29,VWS V14.01,2013-04-04 04:30:00,
2013-04-03 22:31:00,35.6,19.3,30.33,West,270,8.0,13.0,51,0.00,,---,0.29,VWS V14.01,2013-04-04 04:31:00,
2013-04-03 22:32:00,35.6,19.3,30.33,West,270,3.0,9.0,51,0.00,,---,0.29,VWS V14.01,2013-04-04 04:32:00,
2013-04-03 22:33:00,35.6,19.7,30.33,WSW,248,5.0,7.0,52,0.00,,---,0.29,VWS V14.01,2013-04-04 04:33:00,
2013-04-03 22:34:00,35.6,19.3,30.33,West,270,5.0,9.0,51,0.00,,---,0.29,VWS V14.01,2013-04-04 04:34:00,
2013-04-03 22:35:00,35.6,19.7,30.33,NW,315,4.0,6.0,52,0.00,,---,0.29,VWS V14.01,2013-04-04 04:35:00,
2013-04-03 22:36:00,35.6,19.7,30.33,West,270,3.0,7.0,52,0.00,,---,0.29,VWS V14.01,2013-04-04 04:36:00,
2013-04-03 22:37:00,35.5,19.6,30.33,NW,315,3.0,7.0,52,0.00,,---,0.29,VWS V14.01,2013-04-04 04:37:00,
2013-04-03 22:38:00,35.5,19.2,30.33,WNW,292,7.0,12.0,51,0.00,,---,0.29,VWS V14.01,2013-04-04 04:38:00,
2013-04-03 22:39:00,35.5,19.6,30.33,West,270,4.0,9.0,52,0.00,,---,0.29,VWS V14.01,2013-04-04 04:39:00,
2013-04-03 22:40:00,35.5,19.6,30.33,West,270,3.0,6.0,52,0.00,,---,0.29,VWS V14.01,2013-04-04 04:40:00,
2013-04-03 22:41:00,35.5,19.6,30.33,WSW,248,5.0,9.0,52,0.00,,---,0.29,VWS V14.01,2013-04-04 04:41:00,
2013-04-03 22:42:00,35.5,19.6,30.33,NW,315,3.0,7.0,52,0.00,,---,0.29,VWS V14.01,2013-04-04 04:42:00,
2013-04-03 22:43:00,35.4,19.5,30.32,SW,225,4.0,7.0,52,0.00,,---,0.29,VWS V14.01,2013-04-04 04:43:00,
2013-04-03 22:44:00,35.4,19.5,30.33,NW,315,3.0,6.0,52,0.00,,---,0.29,VWS V14.01,2013-04-04 04:44:00,
2013-04-03 22:45:00,35.4,19.1,30.33,WSW,248,5.0,8.0,51,0.00,,---,0.29,VWS V14.01,2013-04-04 04:45:00,
2013-04-03 22:46:00,35.4,19.1,30.32,WSW,248,3.0,8.0,51,0.00,,---,0.29,VWS V14.01,2013-04-04 04:46:00,
2013-04-03 22:47:00,35.4,19.1,30.32,WSW,248,1.0,3.0,51,0.00,,---,0.29,VWS V14.01,2013-04-04 04:47:00,
2013-04-03 22:48:00,35.3,19.5,30.32,WSW,248,2.0,11.0,52,0.00,,---,0.29,VWS V14.01,2013-04-04 04:48:00,
2013-04-03 22:49:00,35.3,19.0,30.32,WSW,248,8.0,13.0,51,0.00,,---,0.29,VWS V14.01,2013-04-04 04:49:00,
2013-04-03 22:51:00,35.3,19.0,30.32,WSW,248,7.0,16.0,51,0.00,,---,0.29,VWS V14.01,2013-04-04 04:51:00,
2013-04-03 22:52:00,35.4,18.6,30.32,WSW,248,5.0,10.0,50,0.00,,---,0.29,VWS V14.01,2013-04-04 04:52:00,
2013-04-03 22:53:00,35.4,18.6,30.32,SW,225,9.0,16.0,50,0.00,,---,0.29,VWS V14.01,2013-04-04 04:53:00,
2013-04-03 22:54:00,35.4,18.6,30.32,WSW,248,8.0,13.0,50,0.00,,---,0.29,VWS V14.01,2013-04-04 04:54:00,
2013-04-03 22:57:00,35.5,18.7,30.32,WSW,248,6.0,9.0,50,0.00,,---,0.29,VWS V14.01,2013-04-04 04:57:00,
2013-04-03 22:58:00,35.5,18.2,30.32,WSW,248,2.0,5.0,49,0.00,,---,0.29,VWS V14.01,2013-04-04 04:58:00,
2013-04-03 22:59:00,35.5,18.7,30.32,West,270,5.0,9.0,50,0.00,,---,0.29,VWS V14.01,2013-04-04 04:59:00,
2013-04-03 23:00:00,35.5,18.2,30.32,West,270,5.0,8.0,49,0.00,,---,0.29,VWS V14.01,2013-04-04 05:00:00,
2013-04-03 23:01:00,35.6,18.3,30.32,NNE,22,4.0,8.0,49,0.00,,---,0.29,VWS V14.01,2013-04-04 05:01:00,
2013-04-03 23:02:00,35.6,18.8,30.32,NW,315,2.0,4.0,50,0.00,,---,0.29,VWS V14.01,2013-04-04 05:02:00,
2013-04-03 23:03:00,35.6,18.3,30.32,SW,225,5.0,12.0,49,0.00,,---,0.29,VWS V14.01,2013-04-04 05:03:00,
2013-04-03 23:04:00,35.6,18.3,30.32,West,270,7.0,10.0,49,0.00,,---,0.29,VWS V14.01,2013-04-04 05:04:00,
2013-04-03 23:05:00,35.5,18.2,30.32,WSW,248,5.0,10.0,49,0.00,,---,0.29,VWS V14.01,2013-04-04 05:05:00,
2013-04-03 23:06:00,35.5,18.2,30.32,SW,225,3.0,8.0,49,0.00,,---,0.29,VWS V14.01,2013-04-04 05:06:00,
2013-04-03 23:07:00,35.5,18.7,30.32,SW,225,2.0,7.0,50,0.00,,---,0.29,VWS V14.01,2013-04-04 05:07:00,
2013-04-03 23:08:00,35.5,18.2,30.32,SW,225,2.0,6.0,49,0.00,,---,0.29,VWS V14.01,2013-04-04 05:08:00,
2013-04-03 23:09:00,35.5,18.2,30.32,SW,225,7.0,10.0,49,0.00,,---,0.29,VWS V14.01,2013-04-04 05:09:00,
2013-04-03 23:10:00,35.5,18.2,30.32,SW,225,6.0,8.0,49,0.00,,---,0.29,VWS V14.01,2013-04-04 05:10:00,
2013-04-03 23:11:00,35.5,18.2,30.32,SW,225,2.0,7.0,49,0.00,,---,0.29,VWS V14.01,2013-04-04 05:11:00,
2013-04-03 23:12:00,35.5,18.7,30.32,West,270,3.0,5.0,50,0.00,,---,0.29,VWS V14.01,2013-04-04 05:12:00,
2013-04-03 23:13:00,35.5,18.7,30.32,SSW,202,2.0,6.0,50,0.00,,---,0.29,VWS V14.01,2013-04-04 05:13:00,
2013-04-03 23:14:00,35.4,18.6,30.32,SSW,202,2.0,6.0,50,0.00,,---,0.29,VWS V14.01,2013-04-04 05:14:00,
2013-04-03 23:15:00,35.4,18.6,30.32,SW,225,1.0,4.0,50,0.00,,---,0.29,VWS V14.01,2013-04-04 05:15:00,
2013-04-03 23:16:00,35.4,18.6,30.32,SW,225,2.0,4.0,50,0.00,,---,0.29,VWS V14.01,2013-04-04 05:16:00,
2013-04-03 23:17:00,35.4,18.6,30.32,SW,225,3.0,10.0,50,0.00,,---,0.29,VWS V14.01,2013-04-04 05:17:00,
2013-04-03 23:18:00,35.3,18.5,30.32,SW,225,2.0,5.0,50,0.00,,---,0.29,VWS V14.01,2013-04-04 05:18:00,
2013-04-03 23:19:00,35.3,18.5,30.32,SW,225,1.0,4.0,50,0.00,,---,0.29,VWS V14.01,2013-04-04 05:19:00,
2013-04-03 23:20:00,35.3,18.5,30.32,SW,225,1.0,2.0,50,0.00,,---,0.29,VWS V14.01,2013-04-04 05:20:00,
2013-04-03 23:21:00,35.3,19.0,30.32,WSW,248,2.0,4.0,51,0.00,,---,0.29,VWS V14.01,2013-04-04 05:21:00,
2013-04-03 23:22:00,35.2,18.4,30.32,WSW,248,0.0,3.0,50,0.00,,---,0.29,VWS V14.01,2013-04-04 05:22:00,
2013-04-03 23:23:00,35.2,18.4,30.32,WSW,248,0.0,1.0,50,0.00,,---,0.29,VWS V14.01,2013-04-04 05:23:00,
2013-04-03 23:24:00,35.1,18.4,30.32,West,270,2.0,6.0,50,0.00,,---,0.29,VWS V14.01,2013-04-04 05:24:00,
2013-04-03 23:25:00,35.1,18.8,30.32,West,270,0.0,1.0,51,0.00,,---,0.29,VWS V14.01,2013-04-04 05:25:00,
2013-04-03 23:26:00,35.0,18.7,30.32,West,270,1.0,2.0,51,0.00,,---,0.29,VWS V14.01,2013-04-04 05:26:00,
2013-04-03 23:27:00,35.0,18.7,30.32,West,270,0.0,1.0,51,0.00,,---,0.29,VWS V14.01,2013-04-04 05:27:00,
2013-04-03 23:28:00,35.0,18.7,30.32,WNW,292,1.0,4.0,51,0.00,,---,0.29,VWS V14.01,2013-04-04 05:28:00,
2013-04-03 23:29:00,34.9,18.6,30.32,NW,315,2.0,5.0,51,0.00,,---,0.29,VWS V14.01,2013-04-04 05:29:00,
2013-04-03 23:30:00,34.9,18.6,30.32,NW,315,0.0,2.0,51,0.00,,---,0.29,VWS V14.01,2013-04-04 05:30:00,
2013-04-03 23:31:00,34.8,18.5,30.32,NW,315,0.0,1.0,51,0.00,,---,0.29,VWS V14.01,2013-04-04 05:31:00,
2013-04-03 23:32:00,34.8,19.0,30.32,NNW,338,4.0,6.0,52,0.00,,---,0.29,VWS V14.01,2013-04-04 05:32:00,
2013-04-03 23:33:00,34.7,18.9,30.32,North,0,1.0,2.0,52,0.00,,---,0.29,VWS V14.01,2013-04-04 05:33:00,
2013-04-03 23:34:00,34.7,19.3,30.32,North,0,2.0,5.0,53,0.00,,---,0.29,VWS V14.01,2013-04-04 05:34:00,
2013-04-03 23:35:00,34.7,18.9,30.32,North,0,1.0,5.0,52,0.00,,---,0.29,VWS V14.01,2013-04-04 05:35:00,
2013-04-03 23:36:00,34.6,18.8,30.32,North,0,0.0,1.0,52,0.00,,---,0.29,VWS V14.01,2013-04-04 05:36:00,
2013-04-03 23:37:00,34.6,18.8,30.32,North,0,2.0,5.0,52,0.00,,---,0.29,VWS V14.01,2013-04-04 05:37:00,
2013-04-03 23:38:00,34.6,18.8,30.32,NW,315,5.0,7.0,52,0.00,,---,0.29,VWS V14.01,2013-04-04 05:38:00,
2013-04-03 23:39:00,34.6,18.8,30.32,West,270,4.0,6.0,52,0.00,,---,0.29,VWS V14.01,2013-04-04 05:39:00,
2013-04-03 23:40:00,34.5,18.7,30.32,WNW,292,4.0,6.0,52,0.00,,---,0.29,VWS V14.01,2013-04-04 05:40:00,
2013-04-03 23:41:00,34.5,18.7,30.32,West,270,4.0,6.0,52,0.00,,---,0.29,VWS V14.01,2013-04-04 05:41:00,
2013-04-03 23:42:00,34.5,19.1,30.32,West,270,4.0,6.0,53,0.00,,---,0.29,VWS V14.01,2013-04-04 05:42:00,
2013-04-03 23:43:00,34.5,18.7,30.32,West,270,4.0,6.0,52,0.00,,---,0.29,VWS V14.01,2013-04-04 05:43:00,
2013-04-03 23:44:00,34.5,18.7,30.32,NNE,22,5.0,11.0,52,0.00,,---,0.29,VWS V14.01,2013-04-04 05:44:00,
2013-04-03 23:45:00,34.5,19.1,30.32,West,270,6.0,8.0,53,0.00,,---,0.29,VWS V14.01,2013-04-04 05:45:00,
2013-04-03 23:46:00,34.5,19.1,30.32,WSW,248,4.0,5.0,53,0.00,,---,0.29,VWS V14.01,2013-04-04 05:46:00,
2013-04-03 23:47:00,34.5,19.1,30.32,WSW,248,2.0,5.0,53,0.00,,---,0.29,VWS V14.01,2013-04-04 05:47:00,
2013-04-03 23:48:00,34.5,18.7,30.32,WSW,248,0.0,1.0,52,0.00,,---,0.29,VWS V14.01,2013-04-04 05:48:00,
2013-04-03 23:49:00,34.5,19.1,30.32,West,270,1.0,5.0,53,0.00,,---,0.29,VWS V14.01,2013-04-04 05:49:00,
2013-04-03 23:50:00,34.5,19.6,30.32,West,270,0.0,0.0,54,0.00,,---,0.29,VWS V14.01,2013-04-04 05:50:00,
2013-04-03 23:51:00,34.5,19.1,30.32,West,270,0.0,2.0,53,0.00,,---,0.29,VWS V14.01,2013-04-04 05:51:00,
2013-04-03 23:52:00,34.5,19.1,30.32,West,270,0.0,1.0,53,0.00,,---,0.29,VWS V14.01,2013-04-04 05:52:00,
2013-04-03 23:53:00,34.4,19.5,30.32,WNW,292,4.0,8.0,54,0.00,,---,0.29,VWS V14.01,2013-04-04 05:53:00,
2013-04-03 23:54:00,34.4,19.0,30.32,WSW,248,4.0,6.0,53,0.00,,---,0.29,VWS V14.01,2013-04-04 05:54:00,
2013-04-03 23:55:00,34.4,19.5,30.32,WSW,248,0.0,1.0,54,0.00,,---,0.29,VWS V14.01,2013-04-04 05:55:00,
2013-04-03 23:56:00,34.4,19.0,30.32,West,270,1.0,6.0,53,0.00,,---,0.29,VWS V14.01,2013-04-04 05:56:00,
2013-04-03 23:57:00,34.4,19.5,30.32,West,270,1.0,2.0,54,0.00,,---,0.29,VWS V14.01,2013-04-04 05:57:00,
2013-04-03 23:58:00,34.4,19.0,30.32,West,270,0.0,0.0,53,0.00,,---,0.29,VWS V14.01,2013-04-04 05:58:00,
2013-04-03 23:59:00,34.4,19.0,30.32,West,270,0.0,0.0,53,0.00,,---,0.29,VWS V14.01,2013-04-04 05:59:00,